[[{"header":{"parameterUnit":"m.s-1","parameterCategory":1,"la1":30.6,"la2":28.766,"lo1":-90.7593,"lo2":-88.6598,"dy":0.0162,"dx":0.0183,"nx":116,"ny":114,"refTime":"2023-11-12T06:00:00:Z","depth":0,"parameterNumber":2,"parameterNumberName":"U-component_of_WINDS"},"data":[0.0,0.0,0.0,0.0,0.0,0.0,0.0,0.0,0.0,0.0,0.0,0.0,0.0,0.0,0.0,0.0,0.0,0.0,0.0,0.0,0.0,0.0,0.0,0.0,0.0,0.0,0.0,0.0,0.0,0.0,0.0,0.0,0.0,0.0,0.0,0.0,0.0,0.0,0.0,0.0,0.0,0.0,0.0,0.0,0.0,0.0,0.0,0.0,0.0,0.0,0.0,0.0,0.0,0.0,0.0,0.0,0.0,0.0,0.0,0.0,0.0,0.0,0.0,0.0,0.0,0.0,0.0,0.0,0.0,0.0,0.0,0.0,0.0,0.0,0.0,0.0,0.0,0.0,0.0,0.0,0.0,0.0,0.0,0.0,0.0,0.0,0.0,0.0,0.0,0.0,0.0,0.0,0.0,0.0,0.0,0.0,0.0,0.0,0.0,0.0,0.0,0.0,0.0,0.0,0.0,0.0,0.0,0.0,0.0,0.0,0.0,0.0,0.0,0.0,0.0,0.0,0.0,0.0,0.0,0.0,0.0,0.0,0.0,0.0,0.0,0.0,0.0,0.0,0.0,0.0,0.0,0.0,0.0,0.0,0.0,0.0,0.0,0.0,0.0,0.0,0.0,0.0,0.0,0.0,0.0,0.0,0.0,0.0,0.0,0.0,0.0,0.0,0.0,0.0,0.0,0.0,0.0,0.0,0.0,0.0,0.0,0.0,0.0,0.0,0.0,0.0,0.0,0.0,0.0,0.0,0.0,0.0,0.0,0.0,0.0,0.0,0.0,0.0,0.0,0.0,0.0,0.0,0.0,0.0,0.0,0.0,0.0,0.0,0.0,0.0,0.0,0.0,0.0,0.0,0.0,0.0,0.0,0.0,0.0,0.0,0.0,0.0,0.0,0.0,0.0,0.0,0.0,0.0,0.0,0.0,0.0,0.0,0.0,0.0,0.0,0.0,0.0,0.0,0.0,0.0,0.0,0.0,0.0,0.0,0.0,0.0,0.0,0.0,0.0,0.0,0.0,0.0,0.0,0.0,0.0,0.0,0.0,0.0,0.0,0.0,0.0,0.0,0.0,0.0,0.0,0.0,0.0,0.0,0.0,0.0,0.0,0.0,0.0,0.0,0.0,0.0,0.0,0.0,0.0,0.0,0.0,0.0,0.0,0.0,0.0,0.0,0.0,0.0,0.0,0.0,0.0,0.0,0.0,0.0,0.0,0.0,0.0,0.0,0.0,0.0,0.0,0.0,0.0,0.0,0.0,0.0,0.0,0.0,0.0,0.0,0.0,0.0,0.0,0.0,0.0,0.0,0.0,0.0,0.0,0.0,0.0,0.0,0.0,0.0,0.0,0.0,0.0,0.0,0.0,0.0,0.0,0.0,0.0,0.0,0.0,0.0,0.0,0.0,0.0,0.0,0.0,0.0,0.0,0.0,0.0,0.0,0.0,0.0,0.0,0.0,0.0,0.0,0.0,0.0,0.0,0.0,0.0,0.0,0.0,0.0,0.0,0.0,0.0,0.0,0.0,0.0,0.0,0.0,0.0,0.0,0.0,0.0,0.0,0.0,0.0,0.0,0.0,0.0,0.0,0.0,0.0,0.0,0.0,0.0,0.0,0.0,0.0,0.0,0.0,0.0,0.0,0.0,0.0,0.0,0.0,0.0,0.0,0.0,0.0,0.0,0.0,0.0,0.0,0.0,0.0,0.0,0.0,0.0,0.0,0.0,0.0,0.0,0.0,0.0,0.0,0.0,0.0,0.0,0.0,0.0,0.0,0.0,0.0,0.0,0.0,0.0,0.0,0.0,0.0,0.0,0.0,0.0,0.0,0.0,0.0,0.0,0.0,0.0,0.0,0.0,0.0,0.0,0.0,0.0,0.0,0.0,0.0,0.0,0.0,0.0,0.0,0.0,0.0,0.0,0.0,0.0,0.0,0.0,0.0,0.0,0.0,0.0,0.0,0.0,0.0,0.0,0.0,0.0,0.0,0.0,0.0,0.0,0.0,0.0,0.0,0.0,0.0,0.0,0.0,0.0,0.0,0.0,0.0,0.0,0.0,0.0,0.0,0.0,0.0,0.0,0.0,0.0,0.0,0.0,0.0,0.0,0.0,0.0,0.0,0.0,0.0,0.0,0.0,0.0,0.0,0.0,0.0,0.0,0.0,0.0,0.0,0.0,0.0,0.0,0.0,0.0,0.0,0.0,0.0,0.0,0.0,0.0,0.0,0.0,0.0,0.0,0.0,0.0,0.0,0.0,0.0,0.0,0.0,0.0,0.0,0.0,0.0,0.0,0.0,0.0,0.0,0.0,0.0,0.0,0.0,0.0,0.0,0.0,0.0,0.0,0.0,0.0,0.0,0.0,0.0,0.0,0.0,0.0,0.0,0.0,0.0,0.0,0.0,0.0,0.0,0.0,0.0,0.0,0.0,0.0,0.0,0.0,0.0,0.0,0.0,0.0,0.0,0.0,0.0,0.0,0.0,0.0,0.0,0.0,0.0,0.0,0.0,0.0,0.0,0.0,0.0,0.0,0.0,0.0,0.0,0.0,0.0,0.0,0.0,0.0,0.0,0.0,0.0,0.0,0.0,0.0,0.0,0.0,0.0,0.0,0.0,0.0,0.0,0.0,0.0,0.0,0.0,0.0,0.0,0.0,0.0,0.0,0.0,0.0,0.0,0.0,0.0,0.0,0.0,0.0,0.0,0.0,0.0,0.0,0.0,0.0,0.0,0.0,0.0,0.0,0.0,0.0,0.0,0.0,0.0,0.0,0.0,0.0,0.0,0.0,0.0,0.0,0.0,0.0,0.0,0.0,0.0,0.0,0.0,0.0,0.0,0.0,0.0,0.0,0.0,0.0,0.0,0.0,0.0,0.0,0.0,0.0,0.0,0.0,0.0,0.0,0.0,0.0,0.0,0.0,0.0,0.0,0.0,0.0,0.0,0.0,0.0,0.0,0.0,0.0,0.0,0.0,0.0,0.0,0.0,0.0,0.0,0.0,0.0,0.0,0.0,0.0,0.0,0.0,0.0,0.0,0.0,0.0,0.0,0.0,0.0,0.0,0.0,0.0,0.0,0.0,0.0,0.0,0.0,0.0,0.0,0.0,0.0,0.0,0.0,0.0,0.0,0.0,0.0,0.0,0.0,0.0,0.0,0.0,0.0,0.0,0.0,0.0,0.0,0.0,0.0,0.0,0.0,0.0,0.0,0.0,0.0,0.0,0.0,0.0,0.0,0.0,0.0,0.0,0.0,0.0,0.0,0.0,0.0,0.0,0.0,0.0,0.0,0.0,0.0,0.0,0.0,0.0,0.0,0.0,0.0,0.0,0.0,0.0,0.0,0.0,0.0,0.0,0.0,0.0,0.0,0.0,0.0,0.0,0.0,0.0,0.0,0.0,0.0,0.0,0.0,0.0,0.0,0.0,0.0,0.0,0.0,0.0,0.0,0.0,0.0,0.0,0.0,0.0,0.0,0.0,0.0,0.0,0.0,0.0,0.0,0.0,0.0,0.0,0.0,0.0,0.0,0.0,0.0,0.0,0.0,0.0,0.0,0.0,0.0,0.0,0.0,0.0,0.0,0.0,0.0,0.0,0.0,0.0,0.0,0.0,0.0,0.0,0.0,0.0,0.0,0.0,0.0,0.0,0.0,0.0,0.0,0.0,0.0,0.0,0.0,0.0,0.0,0.0,0.0,0.0,0.0,0.0,0.0,0.0,0.0,0.0,0.0,0.0,0.0,0.0,0.0,0.0,0.0,0.0,0.0,0.0,0.0,0.0,0.0,0.0,0.0,0.0,0.0,0.0,0.0,0.0,0.0,0.0,0.0,0.0,0.0,0.0,0.0,0.0,0.0,0.0,0.0,0.0,0.0,0.0,0.0,0.0,0.0,0.0,0.0,0.0,0.0,0.0,0.0,0.0,0.0,0.0,0.0,0.0,0.0,0.0,0.0,0.0,0.0,0.0,0.0,0.0,0.0,0.0,0.0,0.0,0.0,0.0,0.0,0.0,0.0,0.0,0.0,0.0,0.0,0.0,0.0,0.0,0.0,0.0,0.0,0.0,0.0,0.0,0.0,0.0,0.0,0.0,0.0,0.0,0.0,0.0,0.0,0.0,0.0,0.0,0.0,0.0,0.0,0.0,0.0,0.0,0.0,0.0,0.0,0.0,0.0,0.0,0.0,0.0,0.0,0.0,0.0,0.0,0.0,0.0,0.0,0.0,0.0,0.0,0.0,0.0,0.0,0.0,0.0,0.0,0.0,0.0,0.0,0.0,0.0,0.0,0.0,0.0,0.0,0.0,0.0,0.0,0.0,0.0,0.0,0.0,0.0,0.0,0.0,0.0,0.0,0.0,0.0,0.0,0.0,0.0,0.0,0.0,0.0,0.0,0.0,0.0,0.0,0.0,0.0,0.0,0.0,0.0,0.0,0.0,0.0,0.0,0.0,0.0,0.0,0.0,0.0,0.0,0.0,0.0,0.0,0.0,0.0,0.0,0.0,0.0,0.0,0.0,0.0,0.0,0.0,0.0,0.0,0.0,0.0,0.0,0.0,0.0,0.0,0.0,0.0,0.0,0.0,0.0,0.0,0.0,0.0,0.0,0.0,0.0,0.0,0.0,0.0,0.0,0.0,0.0,0.0,0.0,0.0,0.0,0.0,0.0,0.0,0.0,0.0,0.0,0.0,0.0,0.0,0.0,0.0,0.0,0.0,0.0,0.0,0.0,0.0,0.0,0.0,0.0,0.0,0.0,0.0,0.0,0.0,0.0,0.0,0.0,0.0,0.0,0.0,0.0,0.0,0.0,0.0,0.0,0.0,0.0,0.0,0.0,0.0,0.0,0.0,0.0,0.0,0.0,0.0,0.0,0.0,0.0,0.0,0.0,0.0,0.0,0.0,0.0,0.0,0.0,0.0,0.0,0.0,0.0,0.0,0.0,0.0,0.0,0.0,0.0,0.0,0.0,0.0,0.0,0.0,0.0,0.0,0.0,0.0,0.0,0.0,0.0,0.0,0.0,0.0,0.0,0.0,0.0,0.0,0.0,0.0,0.0,0.0,0.0,0.0,0.0,0.0,0.0,0.0,0.0,0.0,0.0,0.0,0.0,0.0,0.0,0.0,0.0,0.0,0.0,0.0,0.0,0.0,0.0,0.0,0.0,0.0,0.0,0.0,0.0,0.0,0.0,0.0,0.0,0.0,0.0,0.0,0.0,0.0,0.0,0.0,0.0,0.0,0.0,0.0,0.0,0.0,0.0,0.0,0.0,0.0,0.0,0.0,0.0,0.0,0.0,0.0,0.0,0.0,0.0,0.0,0.0,0.0,0.0,0.0,0.0,0.0,0.0,0.0,0.0,0.0,0.0,0.0,0.0,0.0,0.0,0.0,0.0,0.0,0.0,0.0,0.0,0.0,0.0,0.0,0.0,0.0,0.0,0.0,0.0,0.0,0.0,0.0,0.0,0.0,0.0,0.0,0.0,0.0,0.0,0.0,0.0,0.0,0.0,0.0,0.0,0.0,0.0,0.0,0.0,0.0,0.0,0.0,0.0,0.0,0.0,0.0,0.0,0.0,0.0,0.0,0.0,0.0,0.0,0.0,0.0,0.0,0.0,0.0,0.0,0.0,0.0,0.0,0.0,0.0,0.0,0.0,0.0,0.0,0.0,0.0,0.0,0.0,0.0,0.0,0.0,0.0,0.0,0.0,0.0,0.0,0.0,0.0,0.0,0.0,0.0,0.0,0.0,0.0,0.0,0.0,0.0,0.0,0.0,0.0,0.0,0.0,0.0,0.0,0.0,0.0,0.0,0.0,0.0,0.0,0.0,0.0,0.0,0.0,0.0,0.0,0.0,0.0,0.0,0.0,0.0,0.0,0.0,0.0,0.0,0.0,0.0,0.0,0.0,0.0,0.0,0.0,0.0,0.0,0.0,0.0,0.0,0.0,0.0,0.0,0.0,0.0,0.0,0.0,0.0,0.0,0.0,0.0,0.0,0.0,0.0,0.0,0.0,0.0,0.0,0.0,0.0,0.0,0.0,0.0,0.0,0.0,0.0,0.0,0.0,0.0,0.0,0.0,0.0,0.0,0.0,0.0,0.0,0.0,0.0,3.5348,0.0,0.0,0.0,0.0,0.0,0.0,0.0,0.0,0.0,0.0,0.0,0.0,0.0,0.0,0.0,0.0,0.0,0.0,0.0,0.0,0.0,0.0,0.0,0.0,0.0,0.0,0.0,0.0,0.0,0.0,0.0,0.0,0.0,0.0,0.0,0.0,0.0,0.0,0.0,2.5976,2.6449,2.7377,2.6961,2.6724,2.6624,0.0,0.0,0.0,0.0,0.0,0.0,0.0,0.0,0.0,0.0,0.0,0.0,0.0,0.0,0.0,0.0,0.0,0.0,0.0,0.0,0.0,0.0,0.0,0.0,0.0,0.0,0.0,0.0,0.0,0.0,0.0,0.0,0.0,0.0,0.0,0.0,0.0,0.0,0.0,0.0,0.0,0.0,0.0,0.0,0.0,0.0,0.0,0.0,0.0,0.0,0.0,0.0,0.0,0.0,0.0,0.0,0.0,0.0,0.0,0.0,0.0,0.0,0.0,0.0,0.0,0.0,0.0,0.0,0.0,0.0,0.0,3.6315,0.0,0.0,0.0,0.0,0.0,0.0,0.0,0.0,0.0,0.0,0.0,0.0,0.0,0.0,0.0,0.0,0.0,0.0,0.0,0.0,0.0,0.0,0.0,0.0,0.0,0.0,0.0,0.0,0.0,0.0,0.0,0.0,0.0,0.0,0.0,2.5451,2.6121,2.7483,2.7544,2.8185,2.9256,2.9306,2.9384,2.9475,2.899,0.0,0.0,0.0,0.0,0.0,0.0,0.0,0.0,0.0,0.0,0.0,0.0,0.0,0.0,0.0,0.0,0.0,0.0,0.0,0.0,0.0,0.0,0.0,0.0,0.0,0.0,0.0,0.0,0.0,0.0,0.0,0.0,0.0,0.0,0.0,0.0,0.0,0.0,0.0,0.0,0.0,0.0,0.0,0.0,0.0,0.0,0.0,0.0,0.0,0.0,0.0,0.0,0.0,0.0,0.0,0.0,0.0,0.0,0.0,0.0,0.0,0.0,0.0,3.9778,4.0288,4.0815,4.0812,4.1175,4.1626,3.9428,3.8361,3.8153,0.0,0.0,0.0,0.0,0.0,0.0,0.0,0.0,0.0,0.0,0.0,0.0,0.0,0.0,0.0,0.0,0.0,0.0,0.0,0.0,0.0,0.0,0.0,2.2183,2.2909,2.3618,2.4046,0.0,0.0,0.0,0.0,0.0,0.0,0.0,2.6877,2.7517,2.8912,2.9406,2.9993,3.0719,3.126,3.1802,3.2239,2.9741,2.8586,2.851,0.0,0.0,0.0,0.0,0.0,0.0,0.0,0.0,0.0,0.0,0.0,0.0,0.0,0.0,0.0,0.0,0.0,0.0,0.0,0.0,0.0,0.0,0.0,0.0,0.0,0.0,0.0,0.0,0.0,0.0,0.0,0.0,0.0,0.0,0.0,0.0,0.0,0.0,0.0,0.0,0.0,3.0211,3.162,0.0,0.0,0.0,0.0,0.0,0.0,0.0,0.0,0.0,0.0,0.0,0.0,0.0,3.9281,4.0596,4.0527,4.0816,4.1499,4.1449,4.1363,4.1304,4.1842,4.2027,4.1978,4.2255,0.0,4.071,4.071,0.0,0.0,0.0,0.0,0.0,0.0,0.0,0.0,0.0,0.0,0.0,0.0,0.0,0.0,0.0,0.0,0.0,0.0,0.0,0.0,0.0,2.2763,2.343,2.374,2.4478,2.4914,2.4846,0.0,0.0,0.0,0.0,2.7412,2.8415,2.8331,2.8928,3.0261,3.1207,3.1827,3.2057,3.2274,3.2453,3.263,3.1263,3.0701,3.07,2.9811,0.0,0.0,0.0,0.0,0.0,0.0,0.0,0.0,0.0,0.0,0.0,0.0,0.0,0.0,0.0,0.0,0.0,0.0,0.0,0.0,0.0,0.0,0.0,0.0,0.0,0.0,0.0,0.0,0.0,0.0,0.0,0.0,0.0,0.0,0.0,0.0,0.0,0.0,0.0,3.0733,3.1424,3.2942,3.3377,3.3931,0.0,0.0,0.0,0.0,0.0,0.0,0.0,0.0,0.0,4.0044,4.0383,4.107,4.2123,4.2325,4.2779,4.3473,4.3709,4.3743,4.3609,4.3876,4.393,4.3885,4.4212,4.3951,4.3263,4.2127,4.1424,4.1038,0.0,0.0,0.0,0.0,0.0,4.0109,0.0,0.0,0.0,0.0,0.0,0.0,0.0,0.0,0.0,0.0,0.0,0.0,2.2558,2.3612,2.4379,2.4535,2.5258,2.5638,2.5569,0.0,0.0,0.0,0.0,2.9042,2.988,3.0094,3.0683,3.1591,3.2848,3.3439,3.3383,3.3599,3.3648,3.3545,3.3368,3.2999,3.2361,3.1221,3.0729,3.0598,0.0,0.0,0.0,0.0,0.0,0.0,0.0,0.0,0.0,0.0,0.0,0.0,0.0,0.0,0.0,0.0,0.0,0.0,0.0,0.0,0.0,0.0,0.0,0.0,0.0,0.0,0.0,0.0,0.0,0.0,0.0,0.0,0.0,0.0,0.0,0.0,0.0,3.2367,3.3019,3.4288,3.5006,3.5682,0.0,0.0,0.0,0.0,0.0,0.0,3.9632,4.0373,4.1022,4.1545,4.2245,4.2984,4.3704,4.4045,4.4411,4.4865,4.5268,4.5453,4.5505,4.5702,4.5849,4.5913,4.6108,4.6041,4.5712,4.3615,4.2746,4.2683,4.2176,4.1965,4.1965,4.192,4.1905,4.189,0.0,0.0,0.0,0.0,0.0,0.0,0.0,0.0,0.0,0.0,0.0,2.2552,2.4034,2.4245,2.4563,2.5184,2.5981,2.6407,2.6257,2.7585,2.8363,2.8359,2.8982,2.993,3.1191,3.2381,3.2965,3.2892,3.4135,3.4703,3.4724,3.5875,3.6397,3.6384,3.613,3.4616,3.2302,3.2225,3.2192,3.205,3.0522,0.0,0.0,0.0,0.0,0.0,0.0,0.0,0.0,0.0,0.0,0.0,0.0,0.0,0.0,0.0,0.0,0.0,0.0,0.0,0.0,0.0,0.0,0.0,0.0,0.0,0.0,0.0,0.0,0.0,0.0,0.0,0.0,0.0,0.0,0.0,0.0,0.0,0.0,3.5805,3.6545,0.0,0.0,0.0,0.0,3.9582,4.02,4.0936,4.172,4.2456,4.3193,4.3896,4.4356,4.4905,4.5633,4.5369,4.5242,4.5259,4.5292,4.5571,4.6076,4.6808,4.7286,4.7616,4.8242,4.8405,4.8066,4.5793,4.4756,4.4658,4.4626,4.4626,4.4609,4.4396,4.433,4.4297,0.0,0.0,0.0,0.0,0.0,0.0,0.0,0.0,0.0,2.1849,2.24,2.3102,2.4174,2.469,2.5239,2.6016,2.7146,2.7801,2.7716,2.8606,2.9343,2.9729,3.0313,3.1215,3.2505,3.3762,3.4351,3.4157,3.5493,3.6108,3.5974,3.6228,3.6325,3.6312,3.6064,3.5404,3.4497,3.3575,3.32,3.3059,3.1613,3.1066,0.0,0.0,0.0,0.0,0.0,0.0,0.0,0.0,0.0,0.0,0.0,0.0,0.0,0.0,0.0,0.0,0.0,0.0,0.0,0.0,0.0,0.0,0.0,0.0,0.0,0.0,0.0,0.0,0.0,0.0,0.0,0.0,0.0,0.0,0.0,0.0,0.0,3.7023,3.8195,0.0,3.9001,4.013,4.0896,4.1117,4.1793,4.244,4.3103,4.3754,4.4348,4.4986,4.5051,4.5649,4.6816,4.67,4.7075,4.787,4.7716,4.7707,4.7758,4.7906,4.8019,4.8166,4.8423,4.8464,4.8344,4.7519,4.6916,4.6431,4.5963,4.5771,4.5753,4.5684,4.5378,4.509,0.0,0.0,0.0,0.0,0.0,0.0,0.0,0.0,0.0,2.223,2.3032,2.3804,2.4589,2.5295,2.6107,2.7126,2.8045,2.8636,2.879,2.9463,3.0133,3.0742,3.1759,3.2799,3.3829,3.4873,3.5428,3.5502,3.654,3.6954,3.6848,3.7039,3.7127,3.7146,3.6876,3.6735,3.6614,3.5172,3.4476,3.4302,3.2881,3.2293,3.2178,0.0,0.0,0.0,0.0,0.0,0.0,0.0,0.0,0.0,0.0,0.0,0.0,0.0,0.0,0.0,0.0,0.0,0.0,0.0,0.0,0.0,0.0,0.0,0.0,0.0,0.0,0.0,0.0,0.0,0.0,0.0,0.0,0.0,0.0,0.0,3.7506,3.8351,3.9711,4.0527,4.0401,4.1649,4.246,4.2404,4.3277,4.392,4.4293,4.4914,4.553,4.6109,4.6225,4.6845,4.8021,4.7933,4.8267,4.9102,4.8903,4.8868,4.8983,4.8834,4.885,4.9049,4.9049,4.8979,4.8885,4.8828,4.8523,4.8084,4.7312,4.7033,4.6983,4.6911,4.6638,4.6301,0.0,0.0,0.0,0.0,0.0,0.0,0.0,0.0,2.1393,2.2914,2.381,2.4589,2.5307,2.6051,2.7056,2.8462,2.854,2.879,2.9377,3.0157,3.081,3.1375,3.3282,3.4577,3.5105,3.5738,3.6332,3.6918,3.7205,3.7344,3.7395,3.8497,3.9023,3.9023,3.8826,3.8628,3.8429,3.6909,3.6104,3.5733,3.4308,3.3732,3.3572,0.0,0.0,0.0,0.0,0.0,0.0,0.0,0.0,0.0,0.0,0.0,0.0,0.0,0.0,0.0,0.0,0.0,0.0,0.0,0.0,0.0,0.0,0.0,0.0,0.0,0.0,0.0,0.0,0.0,0.0,0.0,0.0,0.0,3.5926,3.8179,3.9935,3.9778,4.1057,4.1905,4.1785,4.291,4.359,4.3472,4.4634,4.5374,4.5374,4.6078,4.6798,4.7435,4.7952,4.8565,4.9295,4.8935,4.8753,4.8753,4.8597,4.8869,4.9578,4.9559,4.9847,5.0361,5.0361,5.0172,4.9935,4.9736,4.9644,4.9559,4.8751,4.8416,4.8398,4.8211,4.8136,4.8079,0.0,0.0,0.0,0.0,0.0,0.0,0.0,2.1293,2.2019,2.2984,2.381,2.457,2.5246,2.5939,2.6931,2.8401,2.8978,2.9498,3.0166,3.1327,3.245,3.344,3.4387,3.5161,3.5738,3.6861,3.7374,3.7178,3.8288,3.8732,3.8547,3.9235,3.9482,3.9375,3.9188,3.9031,3.8811,3.7904,3.745,3.7241,3.5439,3.441,3.3932,0.0,0.0,0.0,0.0,0.0,0.0,0.0,0.0,0.0,0.0,0.0,0.0,0.0,0.0,0.0,0.0,0.0,0.0,0.0,0.0,0.0,0.0,0.0,0.0,0.0,0.0,0.0,0.0,0.0,0.0,0.0,0.0,3.9017,3.8615,3.9252,4.0139,4.1021,4.2309,4.3076,4.2947,4.41,4.483,4.4783,4.6045,4.683,4.683,4.7906,4.8587,4.8765,4.8627,4.8917,4.9678,4.9419,4.9544,5.0089,5.0358,5.0611,5.0834,5.1184,5.1299,5.1316,5.1316,5.1161,5.0903,5.0861,5.084,5.0715,4.9521,4.9036,4.9068,4.8977,4.8957,4.8874,0.0,0.0,0.0,0.0,0.0,0.0,0.0,2.1469,2.2265,2.2984,2.4085,2.4908,2.5254,2.6189,2.738,2.8838,2.9281,2.9902,3.0857,3.2134,3.3288,3.4231,3.5052,3.5759,3.6352,3.7249,3.7845,3.8199,3.8789,3.9131,3.9226,3.977,3.9913,3.9722,3.9625,3.9512,3.9288,3.8618,3.8105,3.7685,3.6627,3.5639,3.4787,3.4017,3.3322,3.2576,3.1623,3.0883,3.0273,2.9779,0.0,0.0,0.0,0.0,0.0,0.0,0.0,0.0,0.0,0.0,0.0,0.0,0.0,0.0,0.0,0.0,0.0,0.0,0.0,0.0,0.0,0.0,0.0,0.0,3.9272,4.0254,4.1117,4.1291,4.161,4.2332,4.3527,4.428,4.422,4.5358,4.611,4.611,4.7298,4.8044,4.7942,4.8648,4.9141,4.9374,4.9171,4.9523,5.0537,5.0358,5.0593,5.1315,5.151,5.1539,5.1489,5.1756,5.1748,0.0,5.1518,5.1455,5.1297,5.1223,5.118,0.0,0.0,0.0,0.0,0.0,5.0071,4.9957,0.0,0.0,0.0,0.0,0.0,0.0,0.0,2.1533,2.2364,2.3019,2.4429,2.5385,2.531,2.66,2.8075,2.9487,2.9541,3.0142,3.1652,3.2658,3.3503,3.4309,3.5454,3.6352,3.684,3.7218,3.8056,3.9353,3.8993,3.9042,3.9582,4.0147,4.0282,4.0101,4.0067,3.9984,3.9803,3.9121,3.8374,3.7691,3.7665,3.6925,3.5753,3.471,3.384,3.3154,3.2652,3.2069,3.1444,3.0957,0.0,0.0,0.0,0.0,0.0,0.0,0.0,0.0,0.0,0.0,0.0,0.0,0.0,0.0,0.0,0.0,0.0,0.0,0.0,0.0,0.0,0.0,0.0,0.0,4.0111,4.1248,4.3128,4.3664,4.3809,4.3655,4.4667,4.5407,4.5505,4.6581,4.7293,4.7374,4.845,4.9,4.8799,0.0,0.0,0.0,0.0,5.0339,5.1662,5.1483,5.168,5.2263,5.2122,5.1999,5.1821,5.1863,5.1768,5.1504,5.1504,5.1504,5.1462,5.1279,5.1194,5.1184,5.1211,5.1234,5.1234,5.1234,5.1117,0.0,0.0,0.0,0.0,0.0,0.0,0.0,0.0,2.1978,2.2955,2.3089,2.4429,2.5358,2.522,2.6598,2.806,2.942,2.9455,3.048,3.3019,3.3083,3.365,3.5023,3.6145,3.6708,3.6652,3.7652,3.8474,3.9063,3.926,3.9629,4.0147,4.0689,4.0848,4.0631,4.0478,4.0324,4.0138,3.9324,3.891,3.8783,3.7714,3.6677,3.5729,3.5597,3.4884,3.3822,3.3181,3.2632,3.2151,3.159,3.1004,3.0541,3.0628,2.9858,0.0,0.0,0.0,0.0,0.0,0.0,0.0,0.0,0.0,0.0,0.0,0.0,0.0,0.0,0.0,0.0,0.0,0.0,0.0,4.0011,4.1478,4.2684,4.308,4.4589,4.5456,4.498,4.5538,4.6157,4.676,4.7452,4.8008,4.8397,4.9167,4.9539,4.9365,4.991,5.0531,5.1177,5.1052,5.1335,5.2174,5.1991,5.1952,5.2058,0.0,0.0,5.2512,5.2905,5.2959,5.2772,5.2772,5.2639,5.2409,5.2396,5.2373,5.2272,5.1206,5.0827,5.0827,5.0827,5.0645,5.045,0.0,0.0,0.0,0.0,0.0,0.0,0.0,2.1814,2.2674,2.3054,2.412,2.4958,2.5227,2.623,2.7477,2.8892,2.954,3.0916,3.3348,3.3188,3.364,3.505,3.617,3.6633,3.6391,3.7533,3.8343,3.8766,3.9203,3.9612,4.0073,4.0673,4.0814,4.0557,4.0453,4.0296,4.0121,3.9681,3.9365,3.9025,3.8072,3.7209,3.6399,3.5964,3.5445,3.4784,3.3893,3.3446,3.3106,3.2291,3.1834,3.1634,3.1493,3.1073,3.0588,0.0,0.0,0.0,0.0,0.0,0.0,0.0,0.0,0.0,0.0,0.0,0.0,0.0,0.0,3.7074,3.8518,0.0,4.0033,4.1467,4.2425,4.3384,4.4428,4.57,4.6448,4.6273,4.6725,4.7337,4.8034,4.8605,4.901,4.9222,4.9837,5.0262,5.0402,5.0753,5.1204,5.1784,5.1683,5.1971,5.2679,5.2492,5.2545,5.2923,5.3003,5.2987,5.2909,5.3143,5.3122,5.2908,5.2908,5.2841,5.2676,5.2676,5.2891,5.3137,5.2326,5.179,5.1506,5.1506,5.135,5.1149,0.0,0.0,0.0,0.0,0.0,0.0,0.0,0.0,2.2265,2.2984,2.381,2.457,2.5219,2.591,2.6914,2.8495,2.9728,3.1181,3.303,3.3044,3.3484,3.4629,3.5789,3.6359,3.6198,3.7181,3.7966,3.8508,3.8874,3.9293,3.9742,4.0265,4.0416,4.0226,4.0191,4.0086,3.9958,3.9905,3.9511,3.8897,3.8321,3.775,3.7114,3.6153,3.5765,3.5576,3.4563,3.4189,3.3944,3.2905,3.2577,3.2492,3.212,3.209,3.205,3.1487,3.1438,0.0,0.0,0.0,0.0,0.0,0.0,0.0,0.0,3.5395,3.5892,3.731,3.7958,3.8467,3.9249,3.9977,4.1056,4.2759,4.3289,4.4057,4.5814,4.6671,4.7186,4.7452,4.7881,4.8408,4.9087,4.9503,4.9823,5.0075,5.0499,5.0964,5.1394,5.1458,5.1674,5.2207,5.2218,5.2544,5.3228,5.3027,5.3203,5.3724,5.3474,5.3255,5.3109,5.3064,5.297,5.2891,5.3014,5.3076,5.3076,5.303,5.3315,5.3784,5.3506,5.3054,5.2566,5.2612,5.2474,5.2327,0.0,0.0,0.0,0.0,0.0,0.0,0.0,0.0,0.0,2.2984,2.381,2.457,2.5219,2.591,2.7045,2.8964,2.9894,3.0948,3.215,3.2733,3.3295,3.3912,3.5058,3.5863,3.6211,3.6713,3.7503,3.8508,3.8247,3.8632,3.954,3.945,3.9598,4.0046,3.9857,3.9768,3.9732,3.9535,3.9163,3.8676,3.8029,3.7519,3.7113,3.6411,3.5968,3.5608,3.4877,3.4396,3.4007,3.3395,3.2862,3.2463,3.2629,3.2373,3.2031,3.205,3.2145,3.2215,3.2226,3.2328,3.2561,3.3193,3.3943,3.4682,0.0,3.6027,3.6855,3.8324,3.8671,3.9149,4.051,4.1749,4.2637,4.2882,4.4367,4.5549,4.5793,4.7022,4.8052,4.849,4.8582,4.8919,4.9646,4.962,4.9988,5.1057,5.1176,5.1426,5.19,5.1911,5.2259,5.2965,5.2997,5.3207,5.3707,5.3685,5.3608,5.3421,5.3233,5.3131,5.3109,5.2863,5.3059,5.3629,5.4214,5.4491,5.4468,5.4227,5.4187,5.4202,5.3942,5.3674,5.3476,5.3685,5.359,5.3405,0.0,0.0,0.0,0.0,0.0,0.0,0.0,0.0,0.0,0.0,2.3137,2.3903,2.4655,2.5652,2.6899,2.8442,2.927,3.0162,3.1278,3.202,3.2773,3.3526,3.4386,3.4993,3.5313,3.6161,3.6719,3.7008,3.7561,3.7929,3.8159,3.8491,3.8673,3.8655,3.8586,3.8469,3.8365,3.826,3.8128,3.7884,3.7355,3.7086,3.7028,3.6423,3.6199,3.6106,3.5485,3.4964,0.0,3.3958,3.3435,3.3073,3.3157,3.3155,3.3019,3.2648,3.2674,3.2852,3.2934,3.3615,3.4373,3.462,3.5255,3.5969,3.6672,3.7366,3.8172,3.9233,3.9705,4.0221,4.128,4.217,4.3004,0.0,4.5031,4.6115,4.6957,4.7943,4.8778,4.9273,4.9644,4.9922,5.0243,5.0435,5.077,5.1264,5.1556,5.1973,5.2618,5.2628,5.2965,5.366,5.3564,5.3593,5.3789,5.3528,5.3352,5.321,5.2966,5.3071,5.345,5.3306,5.366,5.4306,5.4583,5.4613,5.4465,5.4371,5.4443,5.4642,5.4377,5.4503,5.4701,5.3984,5.3592,5.3374,0.0,0.0,0.0,0.0,0.0,0.0,0.0,0.0,0.0,0.0,0.0,2.3178,2.4177,2.5485,2.6707,2.7758,2.8493,2.9363,3.0426,3.1209,3.1999,3.2784,3.3554,3.4083,3.4436,3.533,3.5854,3.5878,3.6708,3.7107,3.7154,3.764,3.7761,3.7622,3.7622,3.7554,3.7387,3.7387,3.7315,3.7122,3.679,3.6671,3.6671,3.6299,3.6182,3.6168,3.5565,3.5185,3.4767,3.4008,3.3612,3.3435,3.3506,3.3617,3.37,3.3249,3.3404,3.3807,3.4121,3.4987,3.5829,3.5803,3.6326,3.7025,3.7717,3.8455,3.9271,4.0166,4.0699,4.1229,4.2172,4.281,4.3605,4.4852,4.5662,4.6536,4.7814,4.8591,4.918,4.9649,5.0237,5.0614,5.0709,5.1029,5.1374,5.1767,5.2099,5.2618,5.3344,5.3376,5.3597,5.4071,5.3919,5.3767,5.3702,5.3308,5.3157,5.3276,5.3074,5.3322,5.3999,5.4153,5.4522,5.4983,5.5168,5.5142,5.4874,5.4803,5.4885,5.5073,5.4858,5.506,5.5361,5.4403,5.3914,5.3767,0.0,0.0,0.0,0.0,0.0,0.0,0.0,0.0,0.0,0.0,0.0,0.0,0.0,2.545,2.6514,2.7069,2.7741,2.8582,2.9666,3.0359,3.0928,3.1341,3.245,3.3252,3.3726,3.4152,3.4862,3.5878,3.5688,3.6059,3.6989,3.6825,3.6974,3.7404,3.7404,3.7404,3.7387,3.7387,3.7075,3.6523,3.6523,3.6318,3.6035,3.6005,3.5813,3.5445,3.4782,3.4695,3.4691,3.338,3.3101,3.3335,3.3479,3.3519,3.3552,3.379,3.4465,3.5292,3.6024,3.6299,3.6351,3.6297,3.6883,3.7619,3.8255,3.8954,3.9862,4.1255,4.1562,4.2001,4.3395,4.4237,4.4949,4.5662,4.6391,4.7136,4.7896,4.8591,4.9125,4.9475,5.0141,5.0709,0.0,5.1015,5.1564,5.2934,5.306,5.3376,5.404,5.4071,5.4071,5.4103,5.3919,5.3702,5.3399,5.3188,5.3284,5.3683,5.366,5.4029,5.4706,5.5345,5.5653,5.5715,5.6416,5.6579,5.6311,5.6066,5.5794,5.5551,5.5275,5.5204,5.5204,5.5174,5.5144,5.5119,0.0,0.0,0.0,0.0,0.0,0.0,0.0,0.0,0.0,0.0,0.0,0.0,0.0,0.0,0.0,0.0,2.7021,2.7666,2.8337,2.9388,3.0145,3.0554,3.1135,3.1931,3.2945,3.3179,3.3713,3.4569,3.4612,3.4774,3.5002,3.4847,3.4795,3.4831,3.5296,3.5476,3.5506,3.5938,3.5759,3.5176,3.5176,3.4963,3.4653,3.4653,3.4729,3.4736,0.0,3.3954,3.4177,3.371,3.3432,3.3309,3.3361,3.344,3.3634,3.4413,3.5161,3.5814,3.6198,3.664,3.6978,3.6983,3.7885,3.8886,3.9084,4.0042,4.1029,4.1515,4.1938,4.257,4.3508,4.4302,4.5014,4.5694,4.6828,4.7864,4.8558,4.9271,4.9854,5.0198,5.0825,0.0,0.0,0.0,0.0,5.3028,5.3502,5.385,5.4071,5.4103,5.4038,5.3919,5.3671,5.3649,5.3872,5.3625,5.3782,5.4368,5.4799,5.5161,5.5407,5.6108,5.6416,5.6447,5.6524,5.6397,5.6102,5.5855,5.5581,5.533,5.5259,5.5179,5.5179,5.5179,5.5108,5.4955,0.0,0.0,0.0,0.0,0.0,0.0,0.0,0.0,0.0,0.0,0.0,0.0,0.0,0.0,0.0,0.0,0.0,2.6485,2.7238,2.7966,2.8672,2.9364,2.9955,3.0637,3.1402,3.1866,3.2422,3.3097,3.3298,3.3496,3.3651,3.3668,3.3621,3.3514,3.3949,3.4128,3.4158,3.4592,3.4532,3.4128,3.4191,3.4136,3.403,3.4045,3.4085,0.0,3.3552,3.3458,3.3554,3.3554,3.3432,3.3309,3.3309,3.3559,3.4086,3.5243,3.5947,3.6419,3.686,3.7289,3.769,3.8005,3.8811,3.962,4.0154,4.0964,4.1677,4.1921,4.252,4.3217,4.3978,4.469,4.537,4.6083,4.7216,4.8235,4.8915,4.9627,5.0227,5.0647,5.1216,5.1742,0.0,0.0,0.0,5.3408,5.385,5.4103,5.4103,5.4103,5.3995,5.3811,5.3759,5.3859,5.4078,5.4075,5.4399,5.5076,5.5745,5.6108,5.6108,5.657,5.6737,5.664,5.647,5.6201,5.583,5.5681,5.5431,5.5179,5.5179,5.5179,5.5179,5.5078,5.4955,5.4803,0.0,0.0,0.0,0.0,0.0,0.0,0.0,0.0,0.0,0.0,0.0,0.0,0.0,0.0,0.0,0.0,0.0,0.0,2.6312,2.6228,2.6647,2.7846,2.8866,2.9339,2.9257,3.0207,3.0964,3.1491,3.178,3.2209,3.2846,3.3156,3.3305,3.3305,3.3335,3.3335,3.3335,3.3425,3.3425,3.3425,3.3607,3.3744,3.3923,3.4042,3.3791,3.3367,3.3367,3.3163,3.2912,3.2912,3.3101,3.334,3.334,3.3913,3.4877,3.6222,3.6749,3.7128,3.7958,3.8227,3.8463,3.9285,3.9556,3.9959,4.1288,4.1644,4.1823,4.2457,4.3185,4.3945,4.4658,4.5338,4.605,4.678,4.754,4.8267,4.8915,4.9677,5.0348,5.0851,5.1378,5.1833,0.0,0.0,0.0,5.404,0.0,5.4103,5.4103,5.4103,5.4027,5.3852,5.4206,5.4326,5.4179,5.4607,5.5106,5.5745,5.6477,5.681,5.681,5.681,5.6664,5.6397,5.6397,5.6077,5.5606,5.5581,5.5431,5.5179,5.5179,5.5179,5.5128,5.4905,5.4777,5.4751,0.0,0.0,0.0,0.0,0.0,0.0,0.0,0.0,0.0,0.0,0.0,0.0,0.0,0.0,0.0,0.0,0.0,0.0,2.495,2.5696,2.6185,2.6424,2.7393,2.8136,2.8559,2.9014,2.952,3.0123,3.0374,3.06,3.0752,3.0645,3.0596,3.0626,3.1061,3.127,3.133,3.2347,3.2556,3.2298,3.2764,3.2834,3.2668,3.2696,3.2687,3.2673,3.2756,3.286,3.2912,3.2912,3.3415,3.4049,3.4049,3.4903,3.602,3.6465,3.7014,3.7549,3.7886,3.8447,3.9014,3.9219,4.0194,4.1158,4.1515,4.197,4.2408,4.2554,4.3185,4.3945,4.4658,4.5338,4.605,4.678,4.7929,4.8817,4.8979,5.0131,5.0898,5.0915,5.1932,5.2557,5.2313,5.3364,0.0,0.0,5.4103,5.4103,5.4103,5.4103,5.413,5.4237,5.4336,5.4702,5.5285,5.5947,5.6354,5.6508,5.6717,5.681,5.681,5.681,5.6664,5.6397,5.6201,5.5904,5.5581,5.5381,5.5255,5.5179,5.5179,5.5082,5.4905,5.4828,5.4517,5.4126,0.0,0.0,0.0,0.0,0.0,0.0,0.0,0.0,0.0,0.0,0.0,0.0,0.0,0.0,0.0,0.0,0.0,0.0,0.0,2.4429,2.4785,2.4948,2.5941,2.6583,2.6799,2.7474,2.7953,2.8192,2.8516,2.8827,2.913,2.9158,2.9309,2.9608,2.9967,3.0117,3.0177,3.0968,3.1158,0.0,0.0,3.1489,3.1318,3.1403,3.148,3.1645,3.2021,3.2538,3.2989,3.3043,3.3617,3.4365,3.4681,3.5538,3.6469,3.6887,3.7296,3.7736,3.8228,3.8745,3.9312,4.004,4.0921,4.1677,4.197,4.2343,4.2586,4.2586,4.3444,4.4302,4.4723,4.5597,4.6424,4.6845,4.8091,4.9012,4.9012,5.026,5.1162,5.1048,5.221,5.2849,5.2487,5.3627,5.4327,0.0,5.4103,5.4103,5.4103,5.4387,5.4517,5.4398,5.5,5.5612,5.617,5.657,5.681,5.681,5.681,5.681,5.681,5.6689,5.6494,5.6201,0.0,5.5681,5.5406,5.5255,5.5179,5.5179,5.5053,5.4955,5.4777,5.4491,5.4178,5.3893,0.0,0.0,0.0,0.0,0.0,0.0,0.0,0.0,0.0,0.0,0.0,0.0,0.0,0.0,0.0,0.0,0.0,0.0,0.0,0.0,2.3002,2.3522,2.4489,2.4885,2.4642,2.5811,2.6315,2.6114,2.6618,2.7158,2.7734,2.8076,2.8517,2.9069,2.9069,2.9082,2.9096,2.9425,2.9552,2.9635,3.002,3.0217,3.0243,0.0,3.0503,3.068,3.1419,3.2226,3.3024,3.3237,3.3814,3.4555,3.5187,3.5932,3.6676,3.732,3.7525,3.7757,3.8739,3.9085,3.9559,4.1181,4.1646,4.1888,4.2472,4.2586,4.2602,4.2618,4.3751,4.4739,4.487,4.594,4.6881,4.6946,4.8144,4.9048,4.9048,5.0279,5.1218,5.1218,5.2275,5.2949,5.2677,5.3751,5.437,5.4167,5.4124,5.4134,5.4229,5.4776,5.4967,5.4688,5.5898,5.6628,5.681,5.681,5.681,5.681,5.681,5.6785,5.6737,5.6519,5.6225,5.5929,0.0,0.0,5.5179,5.5179,5.5154,5.5103,5.4905,5.4751,5.4619,5.4101,5.3893,5.3815,0.0,0.0,0.0,0.0,0.0,0.0,0.0,0.0,0.0,0.0,1.8899,0.0,0.0,0.0,0.0,0.0,0.0,0.0,0.0,0.0,0.0,2.2769,2.3271,2.3469,2.3237,2.4392,2.4865,2.4646,2.5684,2.6221,2.6331,2.6182,2.6171,2.6303,2.6303,2.6351,2.6537,2.7657,2.8261,2.8582,2.9732,3.0269,3.0373,3.0516,0.0,0.0,3.161,3.2162,3.2537,3.3119,3.4162,3.525,3.5377,3.6294,3.7366,3.7611,3.7672,3.7844,3.8769,3.9527,4.0275,4.1188,4.1926,4.2472,4.2554,4.2586,4.2666,4.2822,4.3536,4.4381,4.5064,4.5914,4.6699,4.7304,4.8439,4.9245,4.9245,5.0353,5.1218,5.1218,5.2424,5.3147,5.2949,5.401,0.0,0.0,0.0,5.4356,5.4903,5.5061,5.5408,5.6123,5.6534,5.6759,5.681,5.681,5.681,5.681,5.681,5.6689,5.647,5.6421,5.6127,5.5656,5.5631,0.0,5.5179,5.5179,5.5053,5.4879,5.4828,5.4491,5.4049,5.3945,5.3762,5.3527,0.0,0.0,0.0,0.0,0.0,0.0,0.0,0.0,0.0,0.0,1.8815,1.8844,0.0,0.0,0.0,0.0,0.0,0.0,0.0,0.0,0.0,0.0,0.0,0.0,2.2373,2.3136,2.3476,2.3309,0.0,2.4309,2.4943,2.4754,2.5036,2.5696,2.5696,2.5766,2.5943,2.666,2.7052,2.7231,2.7934,2.8522,2.8953,0.0,0.0,0.0,3.0873,3.1596,3.2355,3.2658,3.3741,3.4972,3.5296,3.6147,3.712,3.756,3.776,3.8086,3.9351,3.9987,4.0578,4.1734,4.2313,4.2618,4.2744,4.276,4.2806,4.2959,4.3578,4.4361,4.5128,4.5914,4.6635,4.7388,4.8613,4.9405,4.9299,5.0495,5.1461,5.1672,5.2657,5.3368,5.3504,5.4276,5.4676,5.4433,0.0,5.4745,5.507,5.5574,5.6196,5.6996,5.6865,5.681,5.681,5.681,5.681,5.681,5.681,5.6664,5.6397,5.625,5.5979,5.5581,5.5456,0.0,5.5179,5.5057,5.493,5.4777,5.4466,5.4152,5.3893,5.3736,5.35,5.3266,0.0,0.0,0.0,0.0,0.0,0.0,0.0,1.8953,1.8909,1.8905,1.8838,1.876,1.8622,1.8531,1.8713,0.0,0.0,0.0,0.0,0.0,0.0,0.0,0.0,0.0,0.0,0.0,0.0,2.2189,2.2137,0.0,0.0,0.0,0.0,0.0,2.513,2.5258,2.5401,2.5798,2.5988,0.0,0.0,2.6801,0.0,0.0,0.0,0.0,0.0,3.1007,3.214,3.2279,3.3231,3.4427,3.5076,3.5893,3.6819,3.7581,3.7892,3.8278,3.9725,4.0221,4.067,4.2053,4.252,4.2713,4.2868,4.2915,4.2992,4.3128,4.3633,4.4305,4.5223,4.588,4.6569,4.7473,4.8768,4.9599,4.9441,5.0623,5.1703,5.2183,5.287,5.3497,5.4047,5.4521,0.0,5.4497,0.0,0.0,5.5535,5.6281,5.6965,5.7464,5.7019,5.681,5.681,5.681,5.681,5.681,5.6737,5.6567,5.6299,5.6053,5.578,5.5506,5.528,0.0,0.0,5.493,5.4777,5.4645,5.4101,5.3838,5.3789,5.35,5.3292,5.3054,0.0,0.0,0.0,0.0,0.0,0.0,0.0,1.8979,1.8886,1.8913,1.8825,1.876,1.8622,1.8531,1.8468,0.0,0.0,0.0,0.0,0.0,0.0,0.0,0.0,0.0,0.0,0.0,0.0,2.1485,2.1891,0.0,0.0,0.0,0.0,0.0,0.0,2.3305,2.3448,2.4732,0.0,0.0,0.0,0.0,0.0,0.0,0.0,0.0,0.0,3.0739,3.1598,3.2259,3.3068,3.3879,3.4542,3.5733,3.705,3.7898,3.8166,3.8384,3.9336,4.0012,4.066,4.1499,4.2288,4.2884,4.2899,4.2975,4.3143,4.331,4.3421,4.3928,4.5454,4.5816,4.6313,4.772,4.9024,4.9877,4.9859,5.0805,5.1741,5.2387,5.298,5.3576,5.4301,5.4624,5.4792,5.4771,0.0,0.0,5.6956,5.7253,5.7433,5.7519,5.7019,5.681,5.681,5.681,5.681,5.681,5.6543,5.6299,5.6028,5.5755,5.5481,5.5259,5.5204,0.0,0.0,5.493,5.4619,5.4304,5.4023,5.3762,5.35,5.3239,5.3107,5.3001,0.0,0.0,0.0,0.0,0.0,0.0,0.0,1.8983,1.8886,1.8886,1.8829,1.876,1.8622,1.8531,1.8433,0.0,0.0,0.0,0.0,0.0,0.0,0.0,0.0,0.0,0.0,0.0,2.0315,2.025,2.076,0.0,0.0,0.0,0.0,0.0,0.0,2.2531,2.2659,2.3221,0.0,0.0,0.0,0.0,0.0,0.0,0.0,0.0,0.0,0.0,3.0923,3.1689,3.249,3.3347,3.4516,3.5642,3.6676,3.7325,3.7897,3.8498,3.9282,4.0083,4.0856,4.1539,4.2376,4.3036,4.3176,4.3252,4.331,4.3494,4.3524,4.3983,4.5516,4.5797,4.6278,4.7769,4.9159,5.0033,4.9929,5.0931,5.2053,5.303,5.324,5.3738,5.4871,0.0,5.5038,5.5609,0.0,0.0,5.78,5.7621,5.7519,5.7519,5.7019,5.681,5.681,5.681,5.6713,5.6567,5.6445,5.6176,5.5755,5.5656,5.5456,5.5179,5.5179,0.0,0.0,5.4645,5.4333,5.4019,5.3762,5.3503,5.3239,5.3133,5.2867,5.2519,0.0,0.0,0.0,0.0,0.0,0.0,1.9091,1.8983,1.8886,1.8886,1.8816,1.8746,1.8622,1.8511,1.8413,1.8323,0.0,0.0,0.0,0.0,0.0,0.0,0.0,0.0,0.0,0.0,1.9194,1.9194,1.9747,2.0206,0.0,0.0,2.1109,2.1568,0.0,0.0,0.0,0.0,0.0,0.0,0.0,0.0,0.0,0.0,0.0,0.0,0.0,0.0,0.0,0.0,0.0,3.3111,3.4349,3.5324,3.6181,3.6993,3.7811,3.8576,3.9152,3.9888,4.0692,4.1395,4.2201,4.2942,4.3307,4.3449,4.3509,4.3658,4.3687,4.4119,4.5594,4.5859,4.6341,4.7785,4.9243,5.0169,4.9998,5.1039,5.2281,5.355,5.3441,5.3867,5.5259,5.5031,5.5198,5.6138,0.0,0.0,5.8087,5.7754,5.7519,5.7519,5.7019,5.681,5.681,5.681,5.6664,5.6397,5.6323,5.6053,5.5606,5.5506,5.5381,5.5209,0.0,0.0,0.0,5.4359,5.4071,5.3867,5.353,5.3266,5.3054,5.2894,5.2573,5.2195,0.0,0.0,0.0,0.0,0.0,0.0,0.0,1.8983,1.8886,1.8886,1.8798,1.8683,1.8617,1.8472,1.8363,1.8323,0.0,0.0,0.0,0.0,0.0,0.0,0.0,0.0,0.0,0.0,0.0,1.8515,1.9043,1.931,1.9333,2.0011,2.0311,2.0342,0.0,0.0,0.0,0.0,0.0,0.0,0.0,0.0,0.0,0.0,0.0,0.0,0.0,0.0,0.0,0.0,0.0,0.0,0.0,3.472,3.5681,3.7082,3.8032,3.8646,3.8766,3.9345,4.0099,4.0834,4.1658,4.2517,4.3239,4.3509,4.3643,4.3853,4.3898,4.4331,4.5729,4.5996,4.6433,4.7801,4.9243,5.0203,5.0203,5.111,5.2319,5.3722,5.3519,5.3867,5.5259,5.5031,5.5198,0.0,0.0,0.0,5.7855,5.766,5.7519,5.7519,5.7019,5.681,5.681,5.681,5.6664,5.6397,5.6127,5.5855,5.5581,5.533,5.5179,0.0,0.0,0.0,0.0,5.4152,5.3919,5.3867,5.3319,5.308,5.3027,5.2438,5.2194,5.2113,0.0,0.0,0.0,0.0,0.0,0.0,0.0,1.8983,1.8886,1.8886,1.8798,1.8683,1.8617,1.8472,1.8343,1.8256,0.0,0.0,0.0,0.0,0.0,0.0,0.0,0.0,0.0,0.0,0.0,1.776,1.8393,1.8887,1.931,1.9526,1.9857,2.0311,2.0527,2.0637,0.0,0.0,0.0,0.0,0.0,0.0,0.0,0.0,0.0,0.0,0.0,0.0,0.0,0.0,0.0,0.0,0.0,0.0,0.0,3.6776,3.7511,3.8098,3.8644,3.9415,4.0207,4.0959,4.1904,4.2821,4.3551,4.3835,4.3952,4.401,4.4058,4.4493,4.593,4.6106,4.6464,4.7898,4.9293,5.0203,5.0203,5.111,5.2319,5.3722,5.4397,5.4782,0.0,0.0,5.5676,0.0,0.0,0.0,5.7863,5.766,5.7424,5.7227,5.6947,5.681,5.681,5.6616,5.6397,5.6127,5.5855,5.5581,5.5305,5.5229,0.0,0.0,0.0,0.0,0.0,5.3997,5.3684,5.3345,5.316,5.2841,5.2465,5.2248,5.1978,5.1623,0.0,0.0,0.0,0.0,0.0,0.0,0.0,1.8983,1.8886,1.8886,1.8775,1.8655,1.8617,1.8462,1.8318,1.8225,0.0,0.0,0.0,0.0,0.0,0.0,0.0,0.0,0.0,0.0,0.0,0.0,0.0,1.8153,1.8515,1.9055,1.9518,1.9941,2.0213,2.0363,0.0,0.0,0.0,0.0,0.0,0.0,2.4669,0.0,0.0,0.0,0.0,0.0,0.0,0.0,0.0,0.0,0.0,0.0,0.0,0.0,3.7208,3.7768,3.8749,3.9424,4.0048,4.079,4.1701,4.265,4.3385,4.3824,4.4112,4.4169,4.4184,4.4605,4.6039,4.6216,4.656,4.7898,4.9277,5.0203,5.0203,5.111,5.2263,5.3511,5.4628,0.0,0.0,5.5336,0.0,0.0,0.0,0.0,5.7723,5.759,5.7353,5.6995,5.6882,5.681,5.681,5.6543,5.6274,5.6003,5.5731,5.5456,5.5179,5.5108,0.0,0.0,0.0,0.0,0.0,5.3684,5.3398,5.3054,5.2841,5.2546,5.2195,5.1978,5.1678,5.1377,0.0,0.0,0.0,0.0,0.0,0.0,0.0,0.0,0.0,0.0,1.8703,1.8612,1.8608,1.8438,1.8287,0.0,0.0,0.0,0.0,0.0,0.0,0.0,0.0,0.0,0.0,0.0,0.0,1.6396,1.6949,1.7242,1.7246,0.0,1.924,1.9349,2.0071,2.0405,0.0,0.0,0.0,0.0,0.0,0.0,0.0,0.0,0.0,0.0,0.0,0.0,0.0,0.0,0.0,0.0,0.0,0.0,0.0,0.0,0.0,0.0,0.0,3.9368,3.9681,4.0447,4.129,4.2102,4.2853,4.359,0.0,4.4312,4.4375,4.4788,4.6088,4.6344,4.6737,4.79,4.9293,5.0203,5.0252,5.1224,5.2282,5.3259,5.4398,0.0,5.4898,5.5304,0.0,0.0,0.0,0.0,5.7511,5.7495,5.7258,5.681,5.6785,5.6761,5.6761,5.6519,5.625,5.5979,5.5706,5.5431,5.5154,5.493,0.0,0.0,0.0,0.0,0.0,5.3319,5.3054,5.2974,5.2438,5.2195,5.2059,5.1569,5.1377,5.1266,0.0,0.0,0.0,0.0,0.0,0.0,0.0,0.0,0.0,0.0,1.872,1.8598,1.859,1.8413,0.0,0.0,0.0,0.0,0.0,0.0,0.0,0.0,0.0,0.0,0.0,0.0,0.0,1.649,1.6565,1.6825,1.728,1.8076,0.0,0.0,2.0087,0.0,0.0,0.0,0.0,0.0,0.0,0.0,0.0,0.0,0.0,0.0,2.736,2.8154,0.0,0.0,0.0,0.0,0.0,0.0,0.0,0.0,3.68,3.7507,3.8492,0.0,3.9839,4.0575,4.1406,4.2253,0.0,4.383,4.4468,4.4511,4.4984,4.5602,4.6301,4.6852,4.7535,4.8794,4.9675,5.035,5.074,5.2173,5.3434,5.4069,5.4721,5.5203,5.5517,5.6005,0.0,0.0,0.0,5.7668,5.7488,5.733,5.7067,5.681,5.6592,5.6494,5.6494,5.6225,5.5954,5.5681,5.5406,5.5128,5.4905,5.4828,0.0,0.0,0.0,0.0,5.3266,5.3133,5.2814,5.2411,5.2248,5.1951,5.1569,5.1459,5.1128,5.0711,0.0,0.0,0.0,0.0,0.0,0.0,0.0,0.0,0.0,0.0,0.0,0.0,0.0,0.0,0.0,0.0,0.0,0.0,0.0,0.0,0.0,0.0,0.0,0.0,0.0,1.6688,0.0,0.0,0.0,1.6739,0.0,0.0,0.0,0.0,2.0197,0.0,0.0,0.0,0.0,0.0,2.2487,0.0,0.0,0.0,0.0,0.0,2.7262,2.7989,0.0,2.9642,3.0904,3.2054,0.0,0.0,0.0,0.0,3.6801,3.7647,3.8468,3.9231,3.9882,4.0285,4.1298,4.2314,4.2706,4.372,4.4702,4.5041,4.5432,4.5969,4.6776,4.719,4.7786,4.9011,4.9673,5.0441,5.1536,5.2785,5.374,5.4168,5.4654,5.5153,0.0,0.0,0.0,0.0,0.0,5.7778,5.7519,5.7258,5.7019,5.681,5.6543,5.6397,5.6397,5.6003,5.5731,5.5581,5.5179,5.4955,5.4803,5.4517,5.4204,0.0,0.0,0.0,5.3054,5.2787,5.2492,5.2195,5.1951,5.1651,5.1377,5.11,5.0794,5.0459,0.0,0.0,0.0,0.0,0.0,0.0,0.0,0.0,0.0,0.0,0.0,0.0,0.0,0.0,0.0,0.0,0.0,0.0,0.0,0.0,0.0,0.0,0.0,0.0,1.6908,1.6688,1.6577,1.6505,0.0,0.0,0.0,0.0,1.8882,0.0,0.0,0.0,0.0,0.0,0.0,0.0,2.2392,0.0,0.0,0.0,0.0,0.0,0.0,0.0,0.0,2.9555,3.0697,3.1627,3.2342,0.0,0.0,0.0,0.0,0.0,3.8483,3.927,3.9956,4.0078,4.1227,4.2333,4.2422,4.3586,4.4804,4.5534,4.5776,4.6146,4.719,4.7548,4.8023,4.9111,4.9866,5.0886,5.2449,5.3284,5.3824,5.4136,5.4532,0.0,0.0,0.0,0.0,0.0,0.0,5.7731,5.7472,5.718,5.6947,5.6737,5.6494,5.6323,5.6274,5.583,5.5556,5.5456,5.5032,5.4751,5.4645,5.4126,5.3867,0.0,0.0,0.0,5.2921,5.2411,5.214,5.2033,5.1569,5.1349,5.1211,5.0711,5.0431,5.0263,0.0,0.0,0.0,0.0,0.0,0.0,0.0,0.0,0.0,0.0,0.0,0.0,0.0,0.0,0.0,0.0,0.0,0.0,0.0,0.0,0.0,0.0,0.0,1.6908,1.6908,1.6688,1.6596,1.659,1.6512,1.6855,1.7556,1.8194,1.9233,2.0503,2.0705,0.0,0.0,0.0,0.0,0.0,2.2573,0.0,0.0,0.0,0.0,0.0,0.0,0.0,0.0,2.9672,3.074,3.166,3.2552,0.0,0.0,0.0,0.0,0.0,3.7986,3.9048,4.021,4.084,4.1664,4.2455,4.3085,4.3944,4.4804,4.5534,4.606,4.6585,4.7275,4.8289,4.9227,4.9906,5.1325,5.2609,5.3342,0.0,5.4442,5.4876,0.0,5.5219,0.0,0.0,0.0,0.0,0.0,5.7448,5.7187,5.6947,5.6737,5.647,5.6201,5.5954,5.5731,5.5631,5.5355,5.493,5.4854,5.4517,5.4049,5.3945,5.3658,0.0,0.0,5.2814,5.2331,5.2221,5.1951,5.1514,5.1404,5.11,5.0627,5.0543,5.0178,4.9668,0.0,0.0,0.0,0.0,0.0,0.0,0.0,0.0,0.0,0.0,0.0,0.0,0.0,0.0,0.0,0.0,0.0,0.0,0.0,0.0,0.0,0.0,1.7055,1.6908,1.6908,1.6688,1.6603,1.6603,1.6961,1.7494,1.8174,1.9186,2.0065,2.0776,2.0786,2.0802,2.0802,0.0,0.0,0.0,0.0,0.0,0.0,0.0,0.0,0.0,0.0,0.0,0.0,0.0,3.053,3.1196,3.2474,0.0,0.0,0.0,0.0,0.0,3.7898,3.8983,4.0383,4.1521,4.2063,4.2489,4.322,4.435,4.5384,4.5992,4.666,4.7365,4.8254,4.8909,4.9576,5.0342,5.1682,5.2826,5.3363,5.386,5.4349,0.0,0.0,0.0,0.0,0.0,0.0,0.0,0.0,0.0,5.7108,5.6899,5.6689,5.6421,5.6151,5.588,5.5606,5.5305,5.5057,5.4803,5.4619,5.4307,5.3893,5.3579,5.3345,5.3054,0.0,5.2465,5.2195,5.1897,5.1623,5.1377,5.1045,5.0738,5.0459,5.0122,4.964,4.9068,0.0,0.0,0.0,0.0,0.0,0.0,0.0,0.0,0.0,0.0,0.0,0.0,0.0,0.0,0.0,0.0,0.0,0.0,0.0,0.0,1.7316,1.7316,1.7055,1.6908,1.6908,1.6688,1.6666,1.6855,1.7424,1.8121,1.8918,2.016,2.0736,2.0802,2.0802,2.0802,2.0802,2.0992,0.0,0.0,0.0,0.0,0.0,0.0,0.0,0.0,0.0,0.0,0.0,0.0,0.0,0.0,0.0,0.0,0.0,3.5049,3.6657,3.791,3.791,3.9106,4.0675,4.1961,4.23,4.2591,4.3693,4.4843,4.5882,4.6612,4.731,4.8127,4.9125,4.9526,4.9987,5.0961,5.2048,5.2915,5.3407,5.3918,5.4443,5.491,0.0,0.0,0.0,0.0,0.0,0.0,0.0,0.0,5.7043,5.6803,5.6592,5.6323,5.6053,5.5755,5.5406,5.5032,5.4777,5.4671,5.4359,5.4071,5.3789,5.3319,5.3054,5.2974,5.2438,5.2113,5.1978,5.1569,5.1321,5.1155,5.0683,5.043,5.0206,4.9611,4.9096,4.869,0.0,0.0,0.0,0.0,0.0,0.0,0.0,0.0,0.0,0.0,0.0,0.0,0.0,0.0,0.0,0.0,0.0,0.0,0.0,0.0,1.7316,1.7316,1.7055,1.6908,1.6908,1.6688,1.6957,1.7613,1.7676,1.8402,1.9736,2.0438,2.0794,2.0802,2.0802,2.0802,2.0834,2.153,2.2225,0.0,0.0,0.0,0.0,0.0,0.0,0.0,0.0,0.0,0.0,0.0,0.0,0.0,0.0,0.0,3.3425,3.5093,3.6681,3.791,3.791,3.9466,4.1305,4.2097,4.23,4.2875,4.506,4.5635,4.6051,4.727,4.8008,4.862,4.9193,5.017,5.1221,5.2225,5.303,5.3623,5.3898,0.0,5.514,0.0,0.0,0.0,0.0,0.0,0.0,0.0,0.0,0.0,5.6834,5.6567,5.6299,5.6053,5.578,5.5381,5.4879,5.4828,5.4645,5.4329,5.4045,5.3789,5.353,5.3213,5.2947,5.2707,5.2358,5.1924,5.1431,5.1432,5.1072,5.0571,5.0543,5.015,4.9585,4.8981,4.8721,4.8606,0.0,0.0,0.0,0.0,0.0,0.0,0.0,0.0,0.0,0.0,0.0,0.0,0.0,0.0,0.0,0.0,0.0,0.0,0.0,0.0,1.7316,1.7316,1.7055,1.6908,1.6908,1.7164,1.7424,1.7708,1.8567,1.9491,2.0415,2.0668,2.0802,2.0802,2.0802,2.1047,2.1498,2.1783,2.2532,2.3534,0.0,0.0,0.0,0.0,0.0,0.0,0.0,0.0,0.0,0.0,3.047,3.091,3.2568,3.3168,3.3646,3.5712,3.7077,3.799,3.8464,3.9851,4.1373,4.213,4.301,4.4093,4.5399,4.5954,4.6458,4.7285,4.8302,4.926,5.0203,5.1203,5.2039,5.2443,5.3266,5.387,5.3999,5.4363,0.0,0.0,0.0,0.0,0.0,0.0,0.0,0.0,0.0,0.0,0.0,5.647,5.6201,5.5755,5.5656,5.533,5.4803,5.4594,5.4359,5.4045,5.3971,5.3684,5.3239,5.2974,5.268,5.2385,5.1897,5.1569,5.1377,5.1017,5.0711,5.0459,5.0093,4.9583,4.901,4.8779,4.8431,4.8026,0.0,0.0,0.0,0.0,0.0,0.0,0.0,0.0,0.0,0.0,0.0,0.0,0.0,0.0,0.0,0.0,0.0,0.0,0.0,0.0,1.7316,1.7316,1.7055,1.7004,1.7215,1.7728,1.8031,1.8031,1.9428,2.0336,2.0761,2.0761,2.0761,2.0793,2.1005,2.1401,2.1941,2.2343,2.306,2.3904,2.4134,2.4681,0.0,0.0,0.0,0.0,0.0,0.0,0.0,0.0,3.0675,3.1306,3.2679,3.3357,3.406,3.6186,3.7325,3.8046,3.8802,4.0257,4.1677,4.2164,4.3619,4.5128,4.5814,4.642,4.7093,4.7912,4.901,5.0187,5.1358,5.2062,5.2595,0.0,5.3567,5.4034,5.4116,5.4474,0.0,0.0,0.0,0.0,0.0,0.0,0.0,0.0,0.0,0.0,0.0,5.6323,5.6077,0.0,5.5431,5.5103,5.4645,5.4333,5.4019,5.3762,5.3684,5.3477,5.308,5.2707,5.2438,5.2167,5.1623,5.1321,5.1211,5.0711,5.0402,5.015,4.9554,4.9068,4.869,4.8577,4.8172,4.7677,0.0,0.0,0.0,0.0,0.0,0.0,0.0,0.0,0.0,0.0,0.0,0.0,0.0,0.0,0.0,0.0,0.0,0.0,0.0,1.741,1.7316,1.7316,1.7055,1.7215,1.7891,1.8426,1.8701,1.8733,2.0131,2.0753,2.0701,2.0701,2.0701,2.0733,2.1407,2.1773,2.2004,2.3345,2.3904,2.3967,2.4701,2.5113,0.0,0.0,0.0,0.0,0.0,0.0,0.0,0.0,3.104,3.1962,3.2836,3.3704,3.4723,3.6355,3.7313,3.8046,3.8802,4.0641,4.23,4.23,4.4012,4.5863,4.6376,4.7071,4.7985,4.9353,5.0339,5.1355,5.2585,5.2622,0.0,5.3846,5.401,5.4093,5.438,0.0,0.0,0.0,0.0,0.0,0.0,0.0,0.0,0.0,0.0,0.0,0.0,5.6151,5.588,0.0,5.5082,5.4645,5.4304,5.4019,5.3762,5.3474,5.3213,5.308,5.3054,5.2492,5.2194,5.214,5.1623,5.1211,5.0878,5.0599,5.015,4.9528,4.8924,4.8692,4.8635,4.8344,4.7967,4.7648,0.0,0.0,0.0,0.0,0.0,0.0,0.0,0.0,0.0,0.0,0.0,0.0,0.0,0.0,0.0,0.0,0.0,0.0,0.0,1.7386,1.7316,1.7316,1.7481,1.7707,1.7885,1.8926,1.9688,2.0194,2.0547,2.0726,2.0701,2.0586,2.0842,2.1342,2.1591,2.2263,2.3261,2.3727,2.4207,2.4701,2.49,2.5113,2.5342,0.0,0.0,0.0,0.0,0.0,0.0,0.0,0.0,0.0,3.2835,3.3714,3.4879,3.6963,3.7719,3.8294,4.0087,4.1407,4.2422,4.2949,4.479,4.6471,4.6511,4.7383,4.8687,5.0272,5.108,5.171,5.2459,5.3259,0.0,5.3987,5.4306,0.0,0.0,0.0,0.0,0.0,0.0,0.0,0.0,0.0,0.0,0.0,0.0,0.0,0.0,5.5855,0.0,0.0,5.4981,5.4645,5.4304,5.4019,5.3658,5.3213,5.2947,5.2814,5.2787,5.2411,5.2005,5.1623,5.1238,5.0906,5.0571,5.0065,4.964,4.9211,4.8837,4.8548,4.8315,4.7967,4.7645,4.7294,0.0,0.0,0.0,0.0,0.0,0.0,0.0,0.0,0.0,0.0,1.8368,0.0,0.0,0.0,0.0,0.0,0.0,0.0,0.0,0.0,1.7316,1.7316,1.77,1.8151,1.8636,1.9664,2.0367,2.0745,2.0726,2.066,2.0584,2.0774,2.1082,2.1535,2.215,2.2942,2.3811,2.4142,2.4547,2.4995,2.4995,2.5272,2.5736,0.0,0.0,0.0,0.0,0.0,0.0,0.0,0.0,0.0,3.2946,3.3937,3.5318,3.7313,3.791,3.8384,4.0595,4.1745,4.257,4.3606,4.5365,4.7031,4.7967,4.8718,4.9609,5.0757,5.1609,5.2291,5.2853,5.3655,0.0,5.4315,5.4749,0.0,0.0,0.0,0.0,0.0,0.0,0.0,0.0,0.0,0.0,0.0,0.0,0.0,0.0,5.5681,0.0,0.0,5.4747,5.4436,5.4149,5.3762,5.3424,5.308,5.268,5.2519,5.2492,5.2167,5.1815,5.1377,5.0934,5.0515,5.0093,4.9611,4.924,4.8895,4.8606,4.8315,4.7967,4.7792,4.7438,4.7023,0.0,0.0,0.0,0.0,0.0,0.0,0.0,0.0,0.0,0.0,1.8338,1.8261,0.0,0.0,0.0,0.0,0.0,0.0,0.0,0.0,1.731,1.7363,1.7829,1.8657,1.987,2.0478,2.0753,2.0685,2.0685,2.0624,2.0498,2.1096,2.1476,2.1622,2.2911,2.3649,2.3918,2.4535,2.4898,2.509,2.509,2.5622,2.6408,2.6472,0.0,0.0,0.0,0.0,0.0,0.0,0.0,0.0,3.3202,3.4308,3.5904,3.7437,3.791,3.8384,4.0696,4.1779,4.2706,4.4296,4.5824,4.7612,5.014,5.0593,5.0622,5.1085,5.2101,5.3062,5.3584,5.3905,5.4239,5.4738,0.0,0.0,0.0,0.0,0.0,0.0,0.0,0.0,0.0,0.0,0.0,0.0,0.0,0.0,0.0,5.5556,0.0,5.4828,5.4462,5.4149,5.3919,5.3372,5.308,0.0,5.2492,5.2167,5.2113,5.1868,5.1596,5.1294,5.0711,5.0122,4.9556,4.924,4.8924,4.869,4.8344,4.7997,4.7703,4.7674,4.729,4.6806,0.0,0.0,0.0,0.0,0.0,0.0,0.0,0.0,0.0,0.0,0.0,0.0,0.0,0.0,0.0,0.0,0.0,0.0,0.0,0.0,1.7508,1.7987,1.8993,1.9883,2.0581,2.0739,2.0712,2.0536,2.0536,2.0765,2.1206,2.129,2.1861,2.291,2.3316,2.3849,2.4437,2.4684,2.5171,2.5787,2.5787,2.6332,2.723,2.7817,2.8351,0.0,0.0,0.0,0.0,0.0,0.0,0.0,3.3894,3.4801,3.5904,3.7437,3.791,3.8519,4.1305,4.2198,4.2807,4.4925,4.6814,4.858,5.0325,5.0909,5.1345,5.2218,5.3072,5.377,5.4156,5.4568,5.487,5.4802,0.0,0.0,0.0,0.0,0.0,0.0,0.0,0.0,0.0,0.0,0.0,0.0,0.0,0.0,5.5606,0.0,0.0,5.4803,5.4256,5.3971,5.3919,5.3372,5.2974,0.0,5.2411,5.1978,5.1569,5.1514,5.1183,5.0683,5.0291,4.9897,4.9556,4.924,4.8924,4.869,4.8344,4.7997,4.7674,4.7383,4.7083,4.6776,0.0,0.0,0.0,0.0,0.0,0.0,0.0,0.0,0.0,0.0,0.0,0.0,0.0,0.0,0.0,0.0,0.0,0.0,0.0,0.0,0.0,0.0,1.9667,2.0241,2.0771,2.0802,2.0861,2.104,2.104,2.1135,2.136,2.1985,2.2634,2.3302,2.3701,2.4307,2.5051,2.5175,2.5707,2.644,2.6483,2.7095,2.7977,2.834,2.8844,2.9459,3.0391,0.0,0.0,0.0,0.0,0.0,0.0,0.0,3.64,3.7538,3.8147,3.9005,4.1576,4.23,4.2943,4.5568,4.7643,4.9304,5.0442,5.1008,5.1689,5.303,5.3624,5.398,5.4356,5.4704,5.4938,5.4813,0.0,0.0,0.0,0.0,0.0,0.0,0.0,0.0,0.0,0.0,0.0,0.0,0.0,5.5681,5.5406,5.5002,5.4722,5.4594,5.4126,5.3789,5.353,5.3107,5.2761,5.2465,5.214,5.1705,5.1155,5.1017,5.0822,5.0459,5.0009,4.9641,4.9354,4.9039,4.8721,4.8431,4.8286,4.7909,4.7442,4.7265,4.6934,4.6536,0.0,0.0,0.0,0.0,0.0,0.0,0.0,0.0,0.0,0.0,0.0,0.0,0.0,0.0,0.0,0.0,0.0,0.0,0.0,0.0,0.0,0.0,2.0127,2.0368,2.0802,2.0802,2.1049,2.161,2.1735,2.1729,2.1689,2.2788,2.3363,2.3486,2.4153,2.4863,2.5536,2.5768,2.6354,2.7067,2.7219,2.7825,2.8692,2.882,0.0,3.0205,3.1154,3.1494,3.1659,3.273,0.0,0.0,0.0,0.0,3.6965,3.7709,3.8466,3.9516,4.1717,4.2685,4.3687,4.6191,4.8231,4.9789,5.0509,5.1008,5.177,5.3536,5.3918,5.4045,5.4425,5.4645,5.4792,5.475,0.0,0.0,0.0,0.0,0.0,0.0,0.0,0.0,0.0,0.0,0.0,0.0,0.0,5.5456,5.5158,5.4849,5.4568,5.4252,5.3968,5.3579,5.308,5.2814,5.2546,5.2194,5.1814,5.1376,5.0906,5.0571,5.0403,5.0375,4.9839,4.9412,4.9068,4.8808,4.8489,4.8201,4.8201,4.7792,4.7205,4.7205,4.6815,4.6301,0.0,0.0,0.0,0.0,0.0,0.0,0.0,0.0,0.0,0.0,1.8182,0.0,0.0,0.0,0.0,0.0,0.0,0.0,1.8201,0.0,0.0,2.0006,2.0599,2.091,2.0802,2.0802,2.1049,2.161,2.2185,2.2651,2.3034,2.3219,2.3609,2.4184,2.4861,2.5284,2.5556,2.6255,2.702,2.7778,2.7924,2.8524,2.9427,0.0,0.0,3.0917,3.1895,3.2248,3.2426,3.3628,3.4097,0.0,0.0,0.0,3.6988,3.7805,3.861,3.9673,4.1881,4.4298,4.6293,4.6699,4.8231,4.9789,5.0509,5.1008,5.177,5.3536,5.3918,5.4117,5.487,5.4915,5.4729,5.4497,0.0,0.0,0.0,0.0,0.0,0.0,0.0,0.0,0.0,0.0,0.0,0.0,5.5631,5.5381,5.4879,5.4539,5.4226,5.3942,5.3684,5.3424,5.308,5.2814,5.2546,5.2167,5.1403,5.0989,5.0878,5.032,5.0066,5.0038,4.9727,4.9412,4.9068,4.8808,4.8489,4.8201,4.8201,4.7792,4.7205,4.7205,4.6815,4.6301,0.0,0.0,0.0,0.0,0.0,0.0,0.0,0.0,0.0,0.0,0.0,1.8791,0.0,0.0,0.0,1.8795,1.9019,1.9253,1.947,2.0007,2.0391,2.0607,2.0919,2.1006,2.0802,2.1213,2.1647,2.2153,2.2848,2.3396,2.3856,2.4246,2.4584,2.4861,0.0,0.0,2.6582,2.7052,2.7694,2.8451,2.9036,2.9616,0.0,0.0,0.0,0.0,0.0,0.0,3.3137,3.4406,3.508,3.5528,3.6095,0.0,0.0,0.0,3.9234,4.0207,4.1996,4.4583,4.68,4.68,4.8231,4.9789,5.0509,5.1008,5.1689,5.2997,5.3591,5.4189,5.5122,5.501,5.4771,5.4634,5.5141,0.0,0.0,0.0,0.0,0.0,0.0,0.0,0.0,0.0,0.0,0.0,5.5456,5.5204,5.4828,5.4487,5.4175,5.3919,5.3474,5.316,5.2867,5.2573,5.2195,5.1733,5.1155,5.0823,5.0655,5.0207,5.001,4.9982,4.9499,4.924,4.9068,4.8606,4.8344,4.8172,4.7997,4.7619,4.7176,4.7023,4.6691,4.6301,0.0,0.0,0.0,0.0,0.0,0.0,0.0,0.0,0.0,0.0,0.0,0.0,0.0,0.0,0.0,0.0,1.9783,2.0075,2.0627,2.0587,2.0683,2.1079,2.1054,2.1069,2.1087,2.1616,2.2213,2.2839,2.3357,2.384,2.4307,2.4984,2.5415,0.0,2.5753,2.6433,0.0,0.0,2.8568,2.9178,3.0096,0.0,0.0,0.0,0.0,0.0,0.0,0.0,0.0,0.0,0.0,3.6736,3.7018,3.7968,0.0,0.0,0.0,4.1205,4.2278,4.4503,4.6607,4.6766,4.7959,4.9369,5.0459,5.0876,5.1411,5.2575,5.325,5.3934,5.4952,5.4975,5.4792,5.4697,5.4909,0.0,0.0,0.0,0.0,0.0,0.0,0.0,0.0,0.0,0.0,0.0,5.5305,5.5027,5.4696,5.4436,5.4149,5.3815,5.3345,5.2974,5.2707,5.2275,5.1869,5.1404,5.1045,5.0767,5.0487,5.015,4.9953,4.9868,4.9326,4.9096,4.9068,4.846,4.8201,4.8169,4.7821,4.7501,4.7176,4.69,4.6596,4.6301,0.0,0.0,0.0,0.0,0.0,0.0,0.0,0.0,0.0,0.0,0.0,0.0,0.0,1.9893,1.9796,1.9711,2.0213,2.0796,2.1295,2.1237,2.1135,2.1111,2.0974,0.0,2.1814,2.1869,2.2434,2.3544,2.3575,2.384,2.4307,2.4984,2.5661,2.636,2.7007,2.7415,2.7678,0.0,0.0,0.0,0.0,0.0,0.0,0.0,0.0,0.0,0.0,0.0,0.0,0.0,0.0,0.0,0.0,3.8396,3.9066,0.0,0.0,0.0,4.2685,4.4279,4.6078,4.666,4.726,4.822,5.0241,5.0577,5.087,5.2462,5.2843,5.3169,5.4258,5.4654,5.4729,5.4454,5.4801,5.4917,0.0,0.0,0.0,0.0,0.0,0.0,0.0,0.0,0.0,0.0,5.5204,5.4951,5.4355,5.4304,5.4045,5.3527,5.3239,5.2974,5.2707,5.2113,5.1706,5.1404,5.1045,5.0767,5.0487,5.015,4.9868,4.9585,4.9269,4.9096,4.9068,4.846,4.8201,4.8169,4.7821,4.7501,4.7176,4.69,4.6596,4.6301,0.0,0.0,0.0,0.0,0.0,0.0,0.0,0.0,0.0,0.0,0.0,0.0,0.0,2.1186,2.1109,2.0981,2.1051,2.1171,2.1348,2.1262,2.136,2.1718,2.1635,2.19,2.2519,2.2975,2.3305,2.3606,2.4033,2.4482,2.4953,2.5672,2.638,2.7069,2.7272,2.794,2.8907,2.955,0.0,0.0,0.0,0.0,0.0,0.0,0.0,0.0,0.0,0.0,0.0,0.0,0.0,0.0,0.0,0.0,0.0,4.0483,4.1614,4.2718,4.3142,4.4496,4.593,4.6631,4.7192,4.8034,4.9621,5.0209,5.0622,5.1475,5.2261,5.288,5.3116,5.3673,5.4216,5.4612,5.456,5.4277,0.0,0.0,0.0,0.0,0.0,0.0,0.0,0.0,0.0,0.0,0.0,5.4119,5.3739,5.3917,5.3893,5.35,5.308,5.2627,5.2113,5.1896,5.1568,5.11,5.0962,5.0656,5.0178,5.0038,4.984,4.9556,4.9269,4.901,4.8808,4.8373,4.8201,4.8169,4.7821,4.7501,4.7176,4.69,4.6596,4.6301,0.0,0.0,0.0,0.0,0.0,0.0,0.0,0.0,0.0,0.0,0.0,0.0,0.0,0.0,2.1904,2.1946,2.2036,2.2046,2.1973,2.1858,2.1991,2.2379,2.2325,2.2604,2.3237,2.3661,0.0,0.0,0.0,2.5072,2.5312,2.6287,2.6999,2.7508,2.7928,2.8711,0.0,0.0,0.0,3.1835,0.0,0.0,3.4462,0.0,0.0,0.0,0.0,0.0,0.0,0.0,0.0,0.0,0.0,0.0,0.0,0.0,0.0,4.3061,4.3484,4.4489,4.5625,4.6563,4.7068,4.7741,4.9235,4.9858,5.0292,5.0889,5.1561,5.2179,5.2462,5.2824,5.339,5.4269,5.4115,5.3776,0.0,0.0,0.0,0.0,0.0,0.0,0.0,0.0,0.0,0.0,0.0,0.0,5.3091,5.3374,5.3506,5.3237,5.2894,5.2411,5.1814,5.1787,5.1513,5.0906,5.0906,5.0572,5.001,5.001,4.9783,4.944,4.9211,4.8952,4.8663,4.8344,4.8201,4.8169,4.7821,4.7501,4.7176,4.69,4.6596,4.6301,0.0,0.0,0.0,0.0,0.0,0.0,0.0,0.0,0.0,0.0,0.0,0.0,0.0,0.0,0.0,2.2484,2.3066,2.3368,2.3316,2.3099,2.3024,2.3024,2.2975,2.3237,2.3904,0.0,0.0,0.0,0.0,0.0,0.0,0.0,2.7489,2.7721,2.9062,2.9726,2.9998,0.0,3.2591,3.3403,0.0,3.4941,3.5856,0.0,0.0,0.0,3.8776,3.9771,0.0,4.1531,0.0,0.0,0.0,0.0,0.0,0.0,0.0,0.0,0.0,0.0,0.0,4.6423,4.68,4.7286,4.9133,4.9555,4.9875,5.0759,5.0791,5.1019,5.2234,5.21,5.2254,5.3446,5.3476,5.345,5.3697,0.0,0.0,0.0,0.0,0.0,0.0,0.0,0.0,0.0,5.29,5.266,5.2362,5.2729,5.2888,5.2677,5.2678,5.2383,5.1814,5.1787,5.1513,5.0906,5.0906,5.0572,5.001,5.001,4.967,4.9125,4.9096,4.8952,4.8663,4.8344,4.8201,4.8169,4.785,4.7501,4.7176,4.69,4.6571,4.6301,0.0,0.0,0.0,0.0,0.0,0.0,0.0,0.0,0.0,0.0,0.0,0.0,0.0,0.0,0.0,2.3131,2.3248,2.329,2.3167,2.3046,2.3247,2.3787,2.3685,2.3954,2.4669,0.0,0.0,0.0,0.0,0.0,0.0,0.0,0.0,0.0,3.0179,3.1212,3.2204,3.2652,0.0,3.4081,3.4918,3.6101,0.0,0.0,0.0,0.0,0.0,4.067,4.1056,0.0,4.1713,4.1797,0.0,0.0,0.0,0.0,0.0,0.0,4.4196,0.0,0.0,0.0,0.0,0.0,4.7809,4.8818,4.9608,4.9624,4.9898,5.0331,5.1052,5.101,5.1167,5.2241,5.2504,5.2541,5.2293,0.0,0.0,0.0,0.0,0.0,0.0,0.0,0.0,0.0,5.1754,5.1753,5.168,5.1879,5.196,5.1995,5.1968,5.193,5.1814,5.1787,5.1513,5.0906,5.0906,5.0572,5.001,5.001,4.9783,4.9469,4.9211,4.8952,4.8663,4.8344,4.8201,4.8172,4.8084,4.7733,4.7205,4.7116,4.6755,4.6301,0.0,0.0,0.0,0.0,0.0,0.0,0.0,0.0,0.0,0.0,0.0,0.0,0.0,0.0,0.0,2.3749,2.3934,2.4021,2.3938,2.4141,2.4452,2.4854,2.5112,2.544,2.5871,0.0,0.0,0.0,0.0,0.0,0.0,0.0,0.0,0.0,0.0,0.0,0.0,0.0,0.0,0.0,3.6148,0.0,0.0,3.8909,3.9844,0.0,0.0,0.0,4.2419,4.3076,4.3167,0.0,0.0,0.0,0.0,0.0,0.0,0.0,0.0,0.0,0.0,0.0,0.0,0.0,4.7306,4.8283,4.9123,4.9094,4.9273,4.9596,5.0126,5.0094,5.0083,5.0502,5.0698,5.1089,5.1839,5.1664,0.0,0.0,0.0,0.0,0.0,5.122,5.1114,5.0943,5.084,5.0903,5.1214,5.1229,5.1273,5.1311,5.1571,5.1618,5.142,5.1646,5.1513,5.0906,5.0906,5.0572,5.001,5.001,4.984,4.9556,4.9269,4.8952,4.8663,4.8344,4.8201,4.8201,4.8201,4.7792,4.7205,4.7205,4.6815,4.6301,0.0,0.0,0.0,0.0,0.0,0.0,0.0,0.0,0.0,0.0,0.0,0.0,0.0,0.0,0.0,0.0,2.5003,2.5304,2.5306,2.5786,0.0,0.0,0.0,0.0,0.0,0.0,0.0,0.0,0.0,0.0,0.0,0.0,0.0,0.0,0.0,0.0,0.0,0.0,0.0,3.6707,3.7511,3.839,0.0,0.0,4.1071,4.1951,4.2805,4.3612,4.4423,4.5236,4.5304,0.0,0.0,0.0,0.0,0.0,4.4674,0.0,0.0,0.0,0.0,0.0,4.6162,0.0,4.7206,4.7898,4.8572,4.8929,4.8827,4.8889,4.9407,4.936,4.9112,4.8816,4.8725,4.944,5.1538,5.1576,0.0,0.0,0.0,0.0,5.0332,5.01,5.013,5.048,5.0097,5.0118,5.0759,5.0659,5.0633,5.068,5.1226,5.1305,5.0886,5.1449,5.143,5.0906,5.0906,5.0572,5.001,5.001,4.9868,4.9613,4.9269,4.8952,4.8721,4.8344,4.8201,4.8201,4.8201,4.7821,4.7265,4.7205,4.6845,4.6331,0.0,0.0,0.0,0.0,0.0,0.0,0.0,0.0,0.0,0.0,0.0,0.0,0.0,0.0,0.0,0.0,0.0,2.6735,2.6545,0.0,0.0,0.0,0.0,0.0,0.0,0.0,0.0,0.0,0.0,0.0,0.0,0.0,0.0,0.0,0.0,0.0,0.0,0.0,0.0,3.8127,3.8554,0.0,4.0796,4.1767,4.2635,4.3411,4.4269,4.4707,4.4918,4.5353,4.5618,4.5763,0.0,0.0,0.0,0.0,0.0,0.0,0.0,0.0,0.0,0.0,0.0,0.0,4.6523,4.7421,4.8245,4.8232,4.8167,4.8315,4.8873,4.8784,4.8772,4.913,4.8921,4.8735,4.8898,4.9231,4.9504,0.0,0.0,0.0,5.0302,5.01,4.9918,4.9816,4.9637,4.9569,4.9448,4.9757,4.9915,4.9995,5.0112,5.0424,5.0886,5.1027,5.1038,5.0906,5.0906,5.0572,5.001,5.001,4.9982,4.9897,4.9354,4.9068,4.8981,4.8431,4.8201,4.8201,4.8201,4.7967,4.756,4.7294,4.6993,4.6656,0.0,0.0,0.0,0.0,0.0,0.0,0.0,0.0,0.0,0.0,0.0,0.0,0.0,0.0,0.0,0.0,0.0,0.0,0.0,0.0,0.0,0.0,0.0,0.0,0.0,0.0,0.0,0.0,0.0,0.0,0.0,0.0,0.0,0.0,0.0,0.0,0.0,0.0,3.8475,4.0072,4.0449,0.0,4.1789,4.317,4.3945,4.435,4.5113,4.5683,4.6076,4.606,4.6169,0.0,0.0,4.6075,4.61,0.0,4.5861,4.5775,0.0,0.0,0.0,4.5456,0.0,0.0,0.0,4.7493,4.8063,4.7536,4.7438,4.7389,4.721,4.7029,4.6945,4.7151,4.6927,4.6632,4.6333,4.7575,4.8471,0.0,0.0,0.0,4.8594,4.8628,4.8775,4.9092,4.9056,4.9098,4.9281,4.9246,4.9251,4.9338,4.9627,4.9856,4.996,5.0296,5.0451,5.0436,5.0436,5.0298,5.001,5.001,5.001,4.9982,4.9528,4.9269,4.9068,4.8635,4.8344,4.8201,4.8201,4.7997,4.7648,4.7324,4.7023,4.6746,2.4155,0.0,0.0,0.0,0.0,0.0,0.0,0.0,0.0,0.0,0.0,0.0,0.0,0.0,0.0,0.0,0.0,0.0,0.0,0.0,0.0,0.0,0.0,3.0752,0.0,0.0,0.0,0.0,0.0,0.0,0.0,0.0,0.0,0.0,0.0,0.0,0.0,0.0,0.0,4.1669,0.0,4.2557,4.2749,4.4493,4.5158,4.5272,4.6098,4.6915,4.7544,4.7225,4.7144,4.7095,4.6609,4.6488,0.0,0.0,0.0,0.0,0.0,0.0,0.0,0.0,0.0,4.7285,0.0,0.0,0.0,4.7039,4.6775,4.6462,4.5708,4.5419,0.0,0.0,0.0,0.0,0.0,4.6152,0.0,4.7177,0.0,0.0,0.0,4.6995,4.737,4.8136,4.8216,4.846,4.9085,4.8904,4.8779,4.8783,4.9338,4.9456,4.9085,4.9565,4.9835,4.991,4.9967,4.9968,4.9903,4.9984,5.001,4.9982,4.9727,4.9412,4.9068,4.8808,4.8489,4.8201,4.8201,4.8026,4.7762,4.7353,4.7053,4.681,2.4007,2.3769,0.0,0.0,0.0,0.0,0.0,0.0,0.0,0.0,0.0,0.0,0.0,0.0,0.0,0.0,0.0,0.0,3.0383,0.0,0.0,0.0,0.0,0.0,3.0631,0.0,0.0,0.0,0.0,0.0,0.0,0.0,0.0,0.0,3.557,0.0,0.0,0.0,4.0166,0.0,4.3201,4.381,0.0,4.5739,4.6392,4.657,4.8117,4.8813,4.9038,0.0,4.9099,4.9141,0.0,4.8362,4.8249,0.0,0.0,0.0,0.0,0.0,0.0,0.0,4.6704,0.0,0.0,0.0,4.7023,4.6924,0.0,4.5881,4.5799,0.0,0.0,0.0,0.0,0.0,4.4539,4.4594,4.4973,4.5787,0.0,0.0,0.0,4.6425,4.6324,4.6789,4.7,4.7281,4.7684,4.8577,4.8841,4.8393,4.8776,4.913,4.9365,4.9193,4.9272,4.9569,4.9854,4.9886,4.9638,4.9905,5.001,4.9982,4.9727,4.9412,4.9068,4.8808,4.8489,4.8201,4.8201,4.8198,4.8055,4.7442,4.7176,4.7057,2.5222,2.4972,0.0,0.0,0.0,0.0,0.0,0.0,0.0,0.0,0.0,0.0,0.0,0.0,0.0,0.0,0.0,3.2458,0.0,0.0,0.0,0.0,0.0,0.0,0.0,0.0,0.0,0.0,3.3343,0.0,0.0,0.0,0.0,0.0,3.6595,0.0,3.8744,0.0,4.1525,0.0,0.0,0.0,0.0,4.6699,4.7305,4.7772,4.855,4.8903,4.8994,0.0,4.9367,0.0,0.0,0.0,0.0,0.0,0.0,0.0,0.0,0.0,0.0,0.0,0.0,0.0,4.7634,0.0,4.6775,0.0,0.0,0.0,0.0,0.0,0.0,0.0,4.3684,0.0,0.0,0.0,4.3517,0.0,0.0,0.0,0.0,0.0,0.0,0.0,4.6436,4.6686,4.6963,4.7626,4.7928,4.7784,4.8145,4.8332,4.8368,4.8432,4.8628,4.8982,4.8967,4.917,4.9529,4.9497,4.9656,4.9982,4.9868,4.9528,4.9096,4.8981,4.8635,4.8201,4.8201,4.8201,4.8114,4.7442,4.7205,4.7116,2.6471,0.0,0.0,0.0,0.0,0.0,0.0,0.0,0.0,0.0,0.0,0.0,3.2421,3.2564,0.0,0.0,3.4035,3.4297,0.0,0.0,3.4833,0.0,0.0,0.0,0.0,0.0,0.0,0.0,0.0,0.0,0.0,0.0,0.0,0.0,0.0,3.8791,4.0135,0.0,4.2631,4.4352,4.5394,4.655,4.7662,4.784,4.8467,4.929,4.944,4.9593,4.981,5.0103,5.0121,0.0,4.9964,0.0,0.0,0.0,0.0,0.0,4.8796,0.0,0.0,0.0,0.0,0.0,0.0,0.0,0.0,0.0,0.0,0.0,0.0,0.0,0.0,0.0,0.0,4.2343,0.0,4.2056,0.0,0.0,0.0,0.0,0.0,0.0,0.0,4.5343,4.5503,4.5764,4.6307,4.6784,4.7089,4.7239,4.7683,4.784,4.7673,4.7976,4.8231,4.8445,4.8352,4.8616,4.9145,4.92,4.9414,4.9738,4.9956,4.9698,4.924,4.9154,4.8808,4.8344,4.8257,4.8201,4.8114,4.7442,4.7205,4.7091,2.7369,2.7399,0.0,0.0,0.0,0.0,0.0,0.0,0.0,0.0,0.0,0.0,0.0,0.0,0.0,0.0,0.0,3.5835,3.5865,0.0,3.564,0.0,0.0,3.4957,0.0,0.0,0.0,0.0,0.0,0.0,0.0,0.0,0.0,0.0,3.8839,4.023,4.1542,4.1573,4.32,4.576,4.5773,4.7416,4.9742,0.0,5.0108,5.1477,5.1497,0.0,0.0,5.2509,5.22,0.0,0.0,0.0,0.0,0.0,0.0,0.0,0.0,0.0,0.0,4.8453,0.0,0.0,0.0,0.0,4.6225,0.0,0.0,0.0,0.0,0.0,0.0,0.0,0.0,0.0,0.0,0.0,0.0,0.0,0.0,0.0,0.0,0.0,0.0,4.3897,4.3784,4.4237,4.5548,4.6263,4.6688,4.683,4.7521,4.7885,4.7885,4.8048,4.8108,4.8111,4.8443,4.8489,4.8256,4.9172,4.9418,4.9168,4.9738,4.984,4.9556,4.924,4.8924,4.8635,4.8344,4.8201,4.8114,4.7442,4.7205,4.704,0.0,0.0,0.0,0.0,0.0,0.0,0.0,3.2266,0.0,0.0,0.0,0.0,0.0,3.6024,3.6489,0.0,0.0,3.7213,3.7213,3.7213,0.0,0.0,0.0,3.7098,0.0,0.0,0.0,0.0,0.0,0.0,3.7901,3.8541,0.0,0.0,0.0,4.1162,0.0,0.0,0.0,0.0,0.0,4.9363,5.0615,0.0,0.0,5.1894,5.2015,5.2215,0.0,5.2556,5.2497,5.2333,5.2076,5.161,5.1147,5.089,5.0207,0.0,0.0,0.0,4.887,4.8993,0.0,0.0,0.0,0.0,0.0,0.0,0.0,0.0,0.0,0.0,0.0,0.0,0.0,0.0,0.0,0.0,0.0,0.0,0.0,0.0,0.0,0.0,0.0,4.2629,4.3364,4.3817,4.3867,4.5199,4.5874,4.5747,4.6518,4.7052,4.7314,4.7574,4.7838,4.8108,4.8024,4.8073,4.8199,4.8348,4.8654,4.9114,4.9304,4.9489,4.9556,4.924,4.8924,4.8637,4.7896,4.7508,4.7276,4.6839,4.6667,4.6503,3.0554,0.0,0.0,0.0,0.0,0.0,0.0,0.0,0.0,0.0,3.5845,0.0,3.7024,0.0,3.8141,0.0,3.9008,3.9129,3.9129,3.9129,0.0,3.8884,3.9091,0.0,0.0,0.0,0.0,0.0,0.0,3.9011,3.9187,3.9582,3.9961,4.0293,0.0,4.2269,4.2853,4.4938,4.6089,0.0,0.0,5.0839,0.0,0.0,5.1924,5.2396,0.0,5.2741,5.2952,5.3097,5.3009,5.2879,5.2879,5.246,5.1957,5.1957,5.1145,5.0269,5.039,4.9815,0.0,4.9345,4.8904,0.0,4.8152,0.0,0.0,0.0,0.0,0.0,0.0,0.0,0.0,0.0,0.0,0.0,0.0,3.9381,0.0,0.0,0.0,0.0,0.0,4.0806,4.1128,4.1243,4.2269,4.2911,0.0,0.0,4.475,4.5186,4.5766,4.6286,4.6686,4.7247,4.7627,4.7771,4.7819,4.787,4.7895,4.7905,4.8134,4.8517,4.8707,4.8839,4.8938,4.8626,4.8342,4.7975,4.7293,4.6822,4.6562,4.6219,4.5831,4.537,3.094,0.0,0.0,0.0,3.2458,0.0,0.0,0.0,3.6615,0.0,3.7461,3.8412,3.8767,3.942,4.001,4.0475,4.1104,4.1493,4.1493,4.1493,0.0,0.0,4.0928,4.052,3.9367,0.0,0.0,0.0,0.0,0.0,3.9198,4.0049,4.0888,4.1715,4.2505,0.0,4.4794,4.5615,4.6753,4.8206,5.0228,5.1715,5.27,5.2763,0.0,5.3176,5.3144,5.3523,5.4081,5.4081,5.3767,5.3396,5.3416,5.3031,5.262,5.264,5.2161,5.1618,5.1618,5.0646,4.9591,4.961,0.0,0.0,0.0,0.0,4.7305,0.0,0.0,0.0,0.0,0.0,0.0,0.0,0.0,0.0,0.0,0.0,0.0,0.0,0.0,3.914,3.8981,3.9471,3.9818,3.9859,4.057,4.1554,0.0,0.0,4.3457,4.512,4.5377,4.5677,4.6109,4.7072,4.7451,4.7207,4.78,4.7829,4.7315,4.7895,4.7882,4.7432,4.7948,4.8028,4.7781,4.7532,4.72,4.6867,4.6587,4.6252,4.5861,4.5628,4.4786,4.3765,3.3045,3.3478,3.4163,0.0,3.5151,3.5216,0.0,0.0,0.0,0.0,3.8931,3.9526,4.0052,4.1055,4.176,4.1871,4.2462,0.0,0.0,0.0,0.0,4.194,4.21,4.1896,4.128,4.1497,0.0,4.1555,0.0,0.0,4.1827,4.2361,4.2739,4.3011,4.4411,4.5191,4.5615,4.7372,4.8791,5.003,5.1456,5.2217,0.0,0.0,5.4009,5.3991,5.349,5.3449,5.3574,5.3574,5.3492,5.3432,5.3636,5.3249,5.2713,5.2912,5.2446,5.1948,5.2091,5.1483,5.0853,5.101,5.0154,4.9162,0.0,0.0,0.0,0.0,0.0,0.0,0.0,0.0,0.0,0.0,0.0,0.0,0.0,0.0,0.0,3.7569,0.0,3.7871,3.82,3.9208,3.9636,3.9239,4.0345,4.1236,4.1776,0.0,0.0,4.4704,4.4945,4.5399,4.6081,4.6785,4.7145,4.7207,4.78,4.7829,4.7315,4.7453,4.7497,4.7431,4.754,4.7677,4.7781,4.7532,4.72,4.6841,4.6114,4.5252,4.4444,4.4599,4.4032,4.3159,3.4478,0.0,0.0,3.6831,0.0,0.0,3.7784,0.0,0.0,3.9707,4.051,0.0,4.1727,4.264,4.3349,4.3648,4.3988,0.0,4.4177,0.0,0.0,4.3678,4.3828,4.3723,4.332,4.3224,0.0,4.3033,0.0,0.0,4.2811,4.3043,4.3497,4.4243,4.5136,4.5863,4.6523,4.8333,4.9981,5.1455,5.2141,0.0,0.0,5.397,5.44,5.4473,5.4123,5.4103,5.4282,5.4282,5.4282,5.4304,5.4469,5.3991,5.3471,5.3632,5.2984,5.2219,5.2324,5.1924,5.1414,5.1199,5.0652,4.9999,4.9394,4.8687,4.8028,0.0,0.0,0.0,0.0,0.0,0.0,0.0,0.0,0.0,0.0,0.0,0.0,0.0,3.721,3.7185,3.7421,3.8321,3.8787,3.854,3.9508,4.0516,0.0,0.0,0.0,4.4141,4.4391,4.4744,4.5252,4.6143,4.665,4.6813,4.7406,4.7549,4.7288,4.7288,4.7195,4.6997,4.6997,4.6947,4.6812,4.6676,4.6348,4.5856,4.5155,4.4377,4.3679,4.3731,4.3406,4.2958,3.5677,0.0,0.0,0.0,0.0,0.0,0.0,4.0182,0.0,4.0944,0.0,4.3037,4.3629,4.4296,4.4975,4.5633,0.0,4.5813,4.5813,4.5813,4.5783,4.5693,4.5791,4.5635,4.5223,4.4782,0.0,0.0,0.0,0.0,4.3283,4.3319,4.408,4.5429,4.5541,4.6339,4.768,4.9074,5.0757,5.247,5.2542,5.3219,5.4188,5.428,5.4545,5.4829,5.4952,5.5109,5.5322,5.5322,5.5322,5.5322,5.5345,5.4963,5.4487,5.4438,5.3565,5.266,5.2566,5.2164,5.1654,5.0995,5.094,5.0693,4.9379,4.9136,4.884,4.7508,4.6748,0.0,0.0,0.0,0.0,0.0,0.0,0.0,0.0,0.0,0.0,0.0,0.0,0.0,3.6723,3.7296,3.7753,3.7899,3.858,3.9652,0.0,0.0,0.0,4.3514,4.3836,0.0,4.4218,0.0,4.6163,4.6307,4.6926,4.7242,4.7288,4.7288,4.7003,4.6509,4.6509,4.6166,4.5609,4.5609,4.5207,4.4586,4.4119,4.3708,4.3379,4.3101,4.2986,4.2902,3.7433,0.0,0.0,0.0,0.0,4.1879,4.2697,4.2466,4.2387,4.2993,4.3618,4.4457,4.5642,4.636,4.704,4.7698,4.8289,0.0,0.0,0.0,0.0,4.781,4.7292,4.68,4.6318,4.59,4.5747,0.0,0.0,0.0,0.0,0.0,4.635,4.6637,4.7403,4.8511,4.9832,5.1023,0.0,5.2923,5.331,5.3906,5.4653,5.52,5.5454,5.5592,5.6231,5.5731,5.4823,5.4823,5.4823,5.4869,5.5078,5.5054,5.4882,5.4496,5.4251,5.3939,5.3399,5.2744,5.2235,5.211,5.1684,5.1049,5.0256,4.9631,4.9057,4.8263,4.7112,4.6003,4.5326,0.0,0.0,0.0,0.0,0.0,0.0,0.0,0.0,0.0,0.0,3.6739,0.0,3.7202,3.764,3.7899,3.858,0.0,0.0,0.0,0.0,0.0,4.3603,0.0,0.0,0.0,4.6163,4.6307,4.6926,4.7242,4.7288,4.7288,4.7003,4.6509,4.6509,4.6166,4.5609,4.5609,4.5126,4.434,4.4037,4.3708,4.3379,4.3101,4.2821,4.2566,3.946,0.0,0.0,0.0,0.0,0.0,0.0,4.4558,0.0,4.5008,4.5495,4.6232,4.7249,4.7938,4.8468,4.8798,4.9097,4.9277,4.9277,4.9277,4.9179,4.8828,4.8528,0.0,4.8175,4.764,4.7336,4.7333,0.0,0.0,0.0,0.0,0.0,4.7823,4.9027,5.009,0.0,0.0,0.0,5.3419,5.3983,5.4614,5.5253,5.5561,5.5954,5.6324,5.6662,5.6354,5.5776,5.5776,5.5776,5.58,5.5919,5.5719,5.5372,5.5147,5.483,5.4427,5.3746,5.3401,5.3086,5.2371,5.2022,5.1693,5.0986,5.032,4.9634,4.8959,4.8012,4.6857,4.5466,4.4166,0.0,0.0,0.0,0.0,0.0,0.0,0.0,0.0,0.0,0.0,0.0,0.0,0.0,0.0,0.0,0.0,0.0,0.0,0.0,0.0,0.0,0.0,0.0,0.0,0.0,4.6307,4.6588,4.6932,4.7288,4.7288,4.7003,4.6509,4.6324,4.6007,4.5582,4.5261,4.4721,4.4092,4.3955,4.3598,4.3156,4.2849,4.2566,4.2256,0.0,4.1866,0.0,0.0,4.3757,0.0,4.4876,4.6531,4.7429,4.6629,4.7219,4.8027,4.8835,4.9396,4.9816,5.0085,5.0115,5.0115,5.0115,5.0115,5.0055,4.9905,4.9786,4.9704,4.9734,4.9117,4.8741,0.0,0.0,0.0,0.0,0.0,0.0,0.0,0.0,0.0,0.0,0.0,5.3383,5.4153,5.4706,5.5315,5.593,5.5882,5.6197,5.6713,5.664,5.664,5.664,5.664,5.6713,5.681,5.681,5.6385,5.5899,5.5769,5.5345,5.4768,5.4091,5.3974,5.374,5.2635,5.2417,5.229,5.1553,5.0984,5.0362,4.9532,4.8744,4.7582,4.5721,4.4768,0.0,0.0,0.0,0.0,0.0,0.0,0.0,0.0,0.0,0.0,3.737,0.0,0.0,0.0,0.0,0.0,0.0,0.0,0.0,0.0,0.0,4.3741,4.3209,0.0,4.5486,0.0,4.6307,4.6653,4.7288,4.7288,4.7003,4.6482,4.6166,4.5821,4.5475,4.4857,4.434,4.3899,4.3817,4.3459,4.2958,4.2625,4.234,4.2082,0.0,0.0,0.0,0.0,0.0,0.0,4.701,4.8229,4.8648,4.7369,4.8319,4.9576,5.0787,5.0966,5.1528,5.2749,5.2839,5.2839,5.2839,5.2839,5.257,5.1947,5.1349,5.075,5.0152,4.9719,4.9515,0.0,0.0,0.0,0.0,0.0,0.0,0.0,0.0,0.0,0.0,5.3322,5.4337,5.5499,5.5561,5.6046,5.6669,5.6451,5.6384,5.6421,5.6151,5.6077,5.6077,5.6077,5.6397,5.681,5.681,5.6755,5.657,5.5892,5.5653,5.5468,5.4799,5.4176,5.3706,5.356,5.309,5.2497,5.181,5.1625,5.1224,4.993,4.8605,4.7309,4.6052,4.5296,4.4595,0.0,0.0,0.0,0.0,0.0,0.0,3.8279,0.0,0.0,0.0,3.7704,0.0,0.0,3.8611,0.0,0.0,0.0,0.0,4.1407,0.0,4.3741,4.3209,4.4436,0.0,4.6307,4.6307,4.6653,4.7288,4.7288,4.7003,4.6482,4.6166,4.5715,4.518,4.4585,4.4148,4.3872,4.3572,4.3268,4.2958,4.2625,4.234,4.2054,0.0,0.0,0.0,0.0,0.0,0.0,0.0,4.9477,5.0018,4.9482,5.0007,5.093,5.2247,5.2396,5.2606,5.3169,5.3198,5.3198,5.3198,5.3198,5.3079,5.2785,5.2546,5.2276,5.2007,5.1443,5.1049,0.0,0.0,0.0,0.0,0.0,0.0,0.0,0.0,5.326,5.3914,5.442,5.4955,5.5476,5.5761,5.6079,5.6323,5.6201,5.6395,5.6644,5.615,5.6222,5.6464,5.6125,5.6151,5.6323,5.6323,5.6323,5.6287,5.6157,5.6114,5.5984,5.5452,5.5099,5.473,5.3906,5.3506,5.3106,5.2452,5.199,5.1392,5.0279,4.8567,4.7109,4.664,4.5701,4.4722,0.0,0.0,0.0,0.0,0.0,0.0,0.0,0.0,3.8601,0.0,0.0,0.0,0.0,0.0,0.0,0.0,0.0,0.0,4.1779,0.0,4.3783,4.3802,4.492,4.5742,4.6307,4.65,4.684,4.7288,4.7107,4.6665,4.5954,4.5822,4.5422,4.4883,4.4476,4.4121,4.3872,4.3517,4.3129,4.2653,4.2369,4.2057,4.1773,4.59,0.0,4.71,0.0,4.8343,4.9088,4.9557,5.0561,5.1337,5.1539,5.1738,5.2215,5.3163,5.3326,5.3465,5.3644,5.3748,5.3797,5.3797,5.3797,5.3707,5.3503,5.3473,0.0,5.3198,5.2725,5.2348,5.2064,5.1676,0.0,0.0,0.0,0.0,0.0,5.3546,5.4135,5.4779,5.5071,5.5304,5.5548,5.6053,5.6252,5.6282,5.642,5.6703,5.7011,5.6506,5.6602,5.6849,5.6269,5.6058,5.6053,5.6015,5.6003,5.6053,5.6225,5.6274,5.6201,5.5881,5.5623,5.517,5.4067,5.3637,5.3331,5.2657,5.2136,5.1478,5.0437,4.88,4.7458,4.7063,4.6234,4.5293,4.4382,0.0,0.0,0.0,0.0,0.0,0.0,3.9783,3.9713,3.9505,3.9433,0.0,0.0,0.0,0.0,0.0,0.0,0.0,0.0,0.0,0.0,0.0,4.5197,4.5901,4.6307,4.6625,4.6962,4.7288,4.6925,4.635,4.5609,4.5609,4.5261,4.4668,4.434,4.4092,4.3872,4.3434,4.2961,4.2457,4.2199,4.1887,4.1549,4.736,4.8001,4.8496,4.8473,4.9534,5.0388,5.0388,5.1508,5.2623,5.3272,5.3385,5.3385,5.3415,5.3638,5.4055,5.4713,5.5027,5.5179,5.5179,5.5179,5.488,0.0,0.0,5.3892,5.3228,5.3198,5.3198,5.3169,0.0,0.0,5.3561,0.0,5.386,5.3891,5.3891,5.4255,5.4916,5.4892,5.5341,5.6034,5.6647,5.6889,5.693,5.7346,5.7488,5.7462,5.7198,5.709,5.703,5.6402,5.6192,5.6175,5.6042,5.6003,5.6003,5.6003,5.6003,5.6003,5.6003,5.5463,5.4764,5.4151,5.3513,5.2845,5.2177,5.1994,5.1607,5.0272,4.9452,4.855,4.7245,4.7003,4.6517,4.5191,0.0,0.0,0.0,0.0,0.0,0.0,4.1667,4.1611,4.1392,4.1184,0.0,0.0,0.0,0.0,0.0,0.0,0.0,4.2955,4.3394,0.0,4.4218,4.5197,4.5901,4.6307,4.6625,4.6962,4.7262,4.677,4.6166,4.5609,4.5609,4.5261,4.4641,4.4121,4.3899,4.3844,4.3237,4.2818,4.2457,4.2199,4.1887,4.1521,4.8149,4.9039,4.9799,4.9799,5.0889,5.1773,5.1773,5.2306,5.2971,5.3671,5.3984,5.4317,5.4725,5.4796,5.5082,0.0,5.6057,5.6214,0.0,5.6392,5.6196,5.5593,5.5564,5.5264,5.4606,5.4102,5.3892,5.3892,0.0,0.0,0.0,5.3664,5.3996,5.4588,5.4588,5.4977,5.5675,5.5932,5.6184,5.6456,5.686,5.7024,5.7054,5.7191,5.7498,5.7858,5.73,5.7393,5.7693,5.7034,5.6551,5.6188,5.6157,5.5817,5.5481,5.5681,5.5731,5.578,5.5954,5.5852,5.5463,5.4795,5.4127,5.3513,5.2822,5.1826,5.0902,5.051,4.938,4.8397,4.7946,4.7164,4.6392,4.5962,0.0,0.0,0.0,0.0,0.0,0.0,4.1498,4.1403,0.0,4.1148,0.0,0.0,0.0,0.0,0.0,0.0,0.0,0.0,4.3788,0.0,4.5226,4.5816,4.638,4.6926,4.7091,4.7019,4.6744,4.635,4.5954,4.5609,4.5421,4.4991,4.4395,4.4064,4.3764,4.3489,4.2877,4.2481,4.2171,4.1863,4.1602,4.1258,4.9573,5.0281,5.0837,5.0837,5.1741,5.2557,5.2766,5.3198,5.371,5.438,5.4684,5.5097,5.5707,5.5744,0.0,5.6092,5.6388,5.6574,5.668,5.6862,5.684,5.6551,5.6551,5.6342,5.5927,0.0,0.0,5.5299,5.4665,5.4291,5.4198,5.4469,5.4874,5.5409,5.5626,5.5983,5.6436,5.668,5.6809,5.6844,5.7292,5.7483,5.7513,5.7752,5.8112,5.8414,5.7992,5.8112,5.8354,5.7693,5.7064,5.6492,5.6282,5.5743,5.5229,5.5406,5.5431,5.5481,5.5656,5.5706,5.553,5.4835,5.4171,5.347,5.254,5.1549,5.0771,5.0501,4.9674,4.8865,4.8409,4.7608,4.6869,4.639,4.5583,4.4805,4.4147,0.0,0.0,0.0,0.0,0.0,0.0,4.1863,0.0,0.0,0.0,0.0,0.0,0.0,0.0,4.3949,4.4246,0.0,4.568,4.6316,4.6792,4.7032,4.7114,4.6899,4.6509,4.6166,4.5848,4.5609,4.5314,4.4856,4.4285,4.401,4.3708,4.3326,4.2737,4.234,4.2082,4.172,4.1349,4.0942,5.1356,5.1617,0.0,0.0,5.2281,0.0,5.3559,5.4168,5.4807,5.5387,5.5474,5.5736,5.6403,5.6461,5.631,5.5915,0.0,0.0,0.0,5.6829,5.6928,5.7132,5.7154,5.7154,5.7094,5.7094,5.7094,5.7094,5.6551,5.5953,5.5329,5.5983,5.6252,5.6282,5.6825,5.7094,5.7094,5.7154,5.7154,5.7214,5.7902,5.8175,5.8234,5.886,5.9099,5.9099,5.9099,5.9099,5.9009,5.8384,5.7693,5.7004,5.6432,5.5773,5.5179,5.5179,5.5179,5.5179,5.5179,5.5179,5.5029,5.4431,5.3713,5.2869,5.1528,5.1206,5.1026,5.0398,5.0226,4.9807,4.8574,4.8304,4.7834,4.6527,4.6288,4.6019,4.5412,0.0,0.0,0.0,0.0,0.0,0.0,4.3169,4.3374,0.0,0.0,0.0,0.0,0.0,4.3329,4.4582,4.4715,4.5091,4.5798,4.6715,4.7085,4.6838,4.6885,4.677,4.6509,4.6139,4.5821,4.5582,4.5287,4.4829,4.4258,4.401,4.3681,4.3323,4.2709,4.2312,4.2054,4.1692,4.1201,4.0648,0.0,0.0,5.2514,5.2978,5.3617,5.4255,5.4865,5.5097,5.5416,5.6084,5.6171,5.6403,5.7013,5.71,5.7041,5.6952,5.7229,5.748,5.7535,5.7974,5.8038,5.7556,5.7739,5.7633,5.7094,5.7094,5.7094,5.7094,5.6944,5.6795,5.6645,5.6795,5.6885,5.6885,5.7034,5.7094,5.7124,5.7663,5.7846,5.7905,5.859,5.886,5.889,5.9039,5.9099,5.9099,5.9099,5.9099,5.9069,5.8919,5.8082,5.7064,5.6915,5.6107,5.5179,5.5179,5.5179,5.5179,5.5179,5.5179,5.5149,5.4999,5.4072,5.2869,5.1528,5.1206,5.1146,5.0996,5.0438,4.9727,4.8916,4.8171,4.7421,4.6645,4.6113,4.5707,4.5529,4.4959,0.0,0.0,4.4314,4.4141,4.396,4.4022,4.4004,0.0,0.0,0.0,0.0,4.4483,4.4663,4.4949,4.5277,4.5897,4.6831,4.7091,4.7181,4.7197,4.7,4.677,4.6482,4.5954,4.5662,4.5582,4.5072,4.4504,4.401,4.3927,4.357,4.3017,4.2425,4.2167,4.2025,4.1488,4.1028,4.0648,5.2807,5.321,5.3646,5.4284,5.4691,5.5126,5.5765,5.5881,5.6084,5.6723,5.681,5.6955,5.7274,5.7303,5.7303,5.7303,5.7472,5.7641,5.7781,5.8114,5.8187,5.7942,5.8075,5.7978,5.7592,5.7755,5.7739,5.7573,5.7573,5.7393,5.7094,5.7423,5.7573,5.7573,5.7872,5.8022,5.8052,5.8411,5.8563,5.859,5.8949,5.9099,5.9099,5.9099,5.9099,5.9099,5.9099,5.9099,5.9099,5.9099,5.8201,5.7094,5.7094,5.6149,5.5032,5.5032,5.5078,5.5179,5.5179,5.5179,5.5094,5.4694,5.3779,5.2711,5.1553,5.1084,5.0876,5.0876,5.049,4.9975,4.9294,4.8765,4.8119,4.7147,4.6734,4.6359,4.6086,4.5467,0.0,4.4926,4.4662,4.4379,4.4194,4.4406,4.4538,4.4407,0.0,0.0,4.544,4.5791,4.5782,4.5381,4.6029,4.6655,4.7207,4.7237,4.7265,4.7288,4.6901,4.664,4.6482,4.5875,4.5609,4.5582,4.4938,4.4395,4.3899,4.3899,4.3543,4.2958,4.2365,4.211,4.2025,4.1426,4.0884,4.045,5.4258,5.4548,5.4836,5.5445,5.5562,5.5794,5.6432,5.6549,5.6723,5.7245,5.7303,5.7303,5.7303,5.7303,5.7303,5.7303,5.7303,5.7416,5.7725,5.7781,5.792,5.8112,5.8167,5.8195,5.8195,5.8472,5.8451,5.8101,5.8101,5.7829,5.7262,5.7859,5.8101,5.8131,5.8725,5.8964,5.8964,5.8964,5.8964,5.8964,5.8964,5.8964,5.8964,5.8964,5.8964,5.8964,5.8964,5.8964,5.8964,5.8964,5.8128,5.7083,5.6993,5.6002,5.487,5.4751,5.4875,5.5053,5.5053,5.5053,5.4853,5.3966,5.3238,5.2511,5.1611,5.0943,5.0501,5.0501,5.0477,5.0246,4.9569,4.9428,4.8969,4.777,4.7453,4.7241,4.6704,0.0,4.5558,4.5405,4.4894,4.4486,4.4291,4.4821,4.5169,4.5169,4.6256,4.6761,0.0,4.6866,4.6718,4.5944,4.6743,4.7263,4.7347,4.7295,4.7343,4.7426,4.6798,4.6536,4.6591,4.5928,4.5609,4.5582,4.4938,4.4395,4.3899,4.3899,4.3515,4.2874,4.2337,4.2082,4.1944,4.1344,4.074,4.0194,5.4434,5.4923,5.5474,5.6142,5.6258,5.6461,5.7071,5.7158,5.7187,5.7303,5.7303,5.7303,5.7303,5.7303,5.7303,5.7303,5.7303,5.7331,5.736,5.7641,5.7809,5.7864,5.8057,5.8195,5.8195,5.825,5.8248,5.8185,5.8185,5.8126,5.8037,5.8155,5.8185,5.8185,5.8303,5.8333,5.8333,5.8333,5.8333,5.8333,5.8333,5.8333,5.8333,5.8333,5.8333,5.8333,5.8333,5.8333,5.8333,5.8333,5.7833,5.7094,5.6589,5.5883,5.5122,5.4532,5.4406,5.4432,5.4432,5.4432,5.4284,5.3613,5.2939,5.2265,5.1562,5.0943,5.0501,5.0501,5.0333,4.9954,4.928,4.8973,4.8574,4.787,4.7265,4.6887,4.6799,0.0,4.5833,4.5788,4.5701,4.562,4.5627,4.6156,4.6511,4.6511,4.6998,4.719,4.6924,4.7234,4.7278,4.6975,4.7122,4.7434,4.7968,4.7517,4.7564,4.8061,4.6989,4.6753,4.7214,4.6089,4.5609,4.5582,4.4938,4.4395,4.3899,4.3899,4.3376,4.2566,4.2252,4.1915,4.1606,4.1,4.0537,4.0165,5.4954,5.5269,5.5643,5.6276,5.6391,5.6478,5.6794,5.6822,5.6879,5.7049,5.7367,5.7627,5.7797,5.8174,5.8377,5.8377,5.8377,5.8232,5.7855,5.7647,5.7528,5.7528,5.764,5.7807,5.8003,5.8003,5.8059,5.8195,5.8195,5.8195,5.8195,5.8195,5.8195,5.8195,5.8195,5.8195,5.8195,5.8195,5.8195,5.8195,5.8195,5.8195,5.8195,5.8195,5.8195,5.8195,5.8195,5.8195,5.8195,5.8195,5.7755,5.7107,5.6485,5.5731,5.4952,5.4277,5.42,5.4304,5.4304,5.4304,5.4219,5.377,5.2926,5.2055,5.1612,5.0764,5.0062,5.0062,4.9965,4.9776,4.9484,4.933,4.903,4.8391,4.8019,0.0,0.0,4.7085,4.6934,4.6934,4.6934,4.6934,4.6934,4.7172,4.7346,4.7346,4.7667,4.7774,4.7505,4.7839,4.7935,4.7687,4.7659,4.7917,4.8355,4.7967,4.801,4.8456,4.7728,4.7325,4.7109,4.641,4.5821,4.5341,4.4748,4.4258,4.3899,4.3708,4.3184,4.2457,4.2199,4.1887,4.1521,4.0913,4.0479,4.0165,5.5395,5.5594,5.5851,5.6337,5.6394,5.6394,5.6394,5.6394,5.6537,5.6967,5.7398,5.7888,5.8379,5.8871,5.9219,5.9306,5.9306,5.9074,5.8581,5.8058,5.7623,5.7303,5.7303,5.7416,5.7697,5.7697,5.7779,5.7974,5.7974,5.7974,5.7974,5.7974,5.7974,5.7974,5.7974,5.7974,5.7974,5.7974,5.7974,5.7974,5.7974,5.7974,5.7974,5.7974,5.7974,5.7974,5.7974,5.7974,5.7974,5.7974,5.7651,5.7093,5.6327,5.5608,5.4866,5.4048,5.3942,5.4097,5.4097,5.4097,5.4045,5.3867,5.2968,5.2041,5.1668,5.0743,4.9896,4.9722,4.9693,4.9693,4.9693,4.9693,4.9548,4.903,0.0,0.0,0.0,4.7892,4.7805,4.7805,4.7805,4.7805,4.7805,4.795,4.8014,4.8014,4.8278,4.8362,4.8138,4.8301,4.8364,4.8305,4.8305,4.8402,4.8592,4.8469,4.8591,4.8899,4.8409,4.7893,4.7297,4.6757,4.6086,4.5364,4.461,4.4148,4.3872,4.3545,4.3017,4.2397,4.2171,4.1859,4.1435,4.0798,4.0421,4.0135,5.5424,5.5966,5.6366,5.6394,5.6394,5.6394,5.6394,5.6394,5.6623,5.728,5.7395,5.7769,5.8665,5.881,5.8956,5.9277,5.9306,5.9277,5.9248,5.919,5.861,5.7361,5.7303,5.7303,5.7331,5.7331,5.736,5.736,5.736,5.736,5.736,5.736,5.736,5.736,5.736,5.736,5.736,5.736,5.736,5.736,5.736,5.736,5.736,5.736,5.736,5.736,5.736,5.736,5.736,5.736,5.733,5.7069,5.5849,5.5415,5.5124,5.3904,5.3527,5.3553,5.3553,5.3553,5.3553,5.3527,5.3033,5.2391,5.1759,5.1091,5.0448,4.9838,4.9693,4.9693,4.9693,4.9693,4.9693,4.9635,0.0,0.0,4.8629,4.8159,4.7805,4.7805,4.7805,4.7805,4.7805,4.8304,4.8629,4.8629,4.8775,4.8848,4.8823,4.838,4.8387,4.8897,4.8925,4.885,4.8592,4.8884,4.9197,4.9501,4.8627,4.8325,4.8507,4.7132,4.6298,4.5863,4.4792,4.4148,4.3872,4.3545,4.2905,4.2139,4.211,4.1716,4.1144,4.0484,4.0223,4.0077,5.5477,5.5676,5.5845,5.5845,5.5845,5.5958,5.6354,5.6411,5.6696,5.7555,5.8011,5.8472,5.8999,5.9431,5.9781,6.014,6.017,6.0086,5.9887,5.9858,5.9277,5.7971,5.7536,5.7303,5.7303,5.7303,5.7303,5.7303,5.7303,5.7303,5.7303,5.7303,5.7303,5.7303,5.7303,5.7303,5.7303,5.7303,5.7303,5.7303,5.7303,5.7303,5.7303,5.7303,5.7303,5.7303,5.7303,5.7303,5.7303,5.7303,5.7303,5.7071,5.5823,5.5416,5.5101,5.3668,5.3239,5.3213,5.3054,5.3266,5.3474,5.3474,5.3036,5.2539,5.2278,5.1436,5.0622,5.0361,4.9983,4.9693,4.9693,4.9693,4.9693,4.9693,0.0,4.932,4.932,4.9141,4.8967,4.8967,4.8967,4.8967,4.8967,4.9199,4.9248,4.9077,4.8964,4.9006,4.92,4.9239,4.937,4.9595,4.9776,4.9732,4.9465,4.9607,4.9721,4.9852,4.9495,4.9026,4.8416,4.7477,4.6587,4.5695,4.4544,4.401,4.3872,4.3376,4.2734,4.211,4.211,4.1741,4.1115,4.0426,4.0194,4.0077,5.5496,5.5496,5.5496,5.5496,5.5664,5.5917,5.6337,5.6592,5.7017,5.7847,5.836,5.8849,5.9294,5.9784,6.0194,6.0499,6.0621,6.0599,6.0377,6.0263,5.9626,5.8348,5.7855,5.7507,5.7303,5.7303,5.7303,5.7303,5.7303,5.7303,5.7303,5.7303,5.7303,5.7303,5.7303,5.7303,5.7303,5.7303,5.7303,5.7303,5.7303,5.7303,5.7303,5.7191,5.7162,5.7162,5.7049,5.7021,5.7021,5.7021,5.7021,5.679,5.552,5.4855,5.4337,5.3286,5.2974,5.2921,5.2761,5.2974,5.3266,5.3266,5.2919,5.257,5.237,5.1648,5.0897,5.0493,5.0134,4.9807,4.9629,4.962,4.9693,4.9693,4.9693,4.9693,4.9693,4.9693,4.9693,4.9693,4.9693,4.9693,4.9693,4.9896,4.989,4.9593,4.9545,4.9529,4.9596,5.0035,5.0268,5.0268,5.0536,5.0572,5.0298,5.0216,5.0077,5.001,5.001,4.9509,4.8541,4.7768,4.6822,4.5818,4.4456,4.3899,4.3844,4.3237,4.265,4.211,4.211,4.1683,4.0971,4.0397,4.0135,3.9954,5.5496,5.5496,5.5496,5.5496,5.6002,5.6393,5.6393,5.6985,5.7603,5.8221,5.8306,5.8654,5.9583,5.9699,5.9825,6.0194,6.0499,6.0681,6.0681,6.0376,5.9626,5.8377,5.8319,5.8,5.7303,5.7303,5.7303,5.7303,5.7303,5.7303,5.7303,5.7303,5.7303,5.7303,5.7303,5.7303,5.7303,5.7303,5.7303,5.7303,5.7303,5.7303,5.7275,5.6993,5.6908,5.6851,5.6509,5.6394,5.6394,5.6394,5.6394,5.6194,5.4909,5.368,5.2707,5.2707,5.2707,5.2707,5.268,5.268,5.268,5.2707,5.2707,5.2509,5.1882,5.1685,5.1342,5.0084,5.0029,5.0004,4.9425,4.9526,4.9693,4.9693,4.9693,4.9693,4.9693,4.9693,4.9693,4.9722,4.9722,4.9722,4.9722,5.0332,5.0585,5.0231,5.058,5.0564,5.0039,5.0577,5.0914,5.0914,5.1234,5.1238,5.0906,5.0627,5.0319,5.001,5.001,4.967,4.9043,4.7926,4.7061,4.6421,4.4664,4.3899,4.3844,4.3237,4.265,4.211,4.211,4.1541,4.0677,4.0334,4.0042,3.9655,5.5496,5.5496,5.5496,5.5496,5.6002,5.6564,5.7041,5.7631,5.825,5.8868,5.8952,5.9039,5.9329,5.9329,5.9454,5.9825,5.9917,6.0102,6.0347,6.0266,5.9638,5.8345,5.8321,5.8,5.7303,5.7303,5.7303,5.7303,5.7135,5.7022,5.7022,5.6766,5.6652,5.6652,5.6652,5.6652,5.6652,5.6652,5.6652,5.6652,5.6652,5.6652,5.6652,5.6566,5.6566,5.6537,5.6423,5.6394,5.6394,5.6394,5.6394,5.6194,5.4909,5.368,5.2653,5.2438,5.2358,5.2302,5.2113,5.2059,5.2167,5.26,5.2707,5.265,5.2452,5.2025,5.1571,5.12,5.0849,5.0491,5.0008,4.9993,4.9973,4.9756,4.9693,4.9693,4.9693,4.9693,4.9867,5.0361,5.039,5.0564,5.1004,5.1207,5.1121,5.0666,5.0796,5.0793,5.066,5.1195,5.1533,5.1533,5.1237,5.0989,5.0906,5.0627,5.0319,5.001,4.9812,4.9499,4.9043,4.7675,4.6838,4.6421,4.4664,4.3899,4.3844,4.3237,4.265,4.211,4.211,4.1541,4.0677,4.0334,4.0042,3.9655,5.5496,5.5496,5.558,5.5805,5.6395,5.7013,5.7659,5.8278,5.8812,5.9177,5.9174,5.9174,5.9174,5.9174,5.9267,5.9482,5.9637,5.9825,6.0194,6.0224,5.9622,5.8365,5.8289,5.7859,5.6965,5.6936,5.6936,5.6936,5.6766,5.6709,5.6709,5.648,5.6394,5.6394,5.6394,5.6394,5.6394,5.6394,5.6394,5.6394,5.6394,5.6394,5.6394,5.6279,5.625,5.6221,5.6106,5.6048,5.6048,5.6048,5.5736,5.5197,5.4431,5.3324,5.2275,5.2086,5.2032,5.2004,5.1841,5.1787,5.1896,5.2248,5.2358,5.2358,5.2358,5.2018,5.1651,5.1451,5.1161,5.0865,5.0363,5.0453,5.0511,5.0336,5.0403,5.0452,5.0452,5.0452,5.0598,5.1004,5.1062,5.1207,5.1559,5.1846,5.1876,5.159,5.1376,5.128,5.128,5.1617,5.1732,5.1651,5.1155,5.085,5.0767,5.0459,5.0206,5.001,4.9727,4.944,4.9043,4.7562,4.6754,4.6421,4.4664,4.3899,4.3844,4.3237,4.265,4.211,4.211,4.143,4.0479,4.0252,3.9843,3.9308,5.5408,5.5464,5.5661,5.6222,5.6953,5.7629,5.8191,5.8781,5.9174,5.9174,5.9174,5.9174,5.9174,5.9174,5.9174,5.9174,5.9482,5.9763,6.0102,6.0132,5.9531,5.8276,5.8219,5.762,5.6336,5.6365,5.6394,5.6394,5.6365,5.6365,5.6337,5.6308,5.6308,5.6308,5.6308,5.6308,5.6308,5.6308,5.6308,5.6308,5.6308,5.6308,5.6279,5.6048,5.5961,5.5932,5.5613,5.5496,5.5496,5.5496,5.4681,5.3698,5.3698,5.2826,5.1787,5.1787,5.1787,5.1787,5.1787,5.1787,5.1787,5.1787,5.1787,5.1787,5.1787,5.1787,5.1645,5.1083,5.1186,5.1175,5.0578,5.0906,5.1238,5.1206,5.1436,5.1588,5.1588,5.1588,5.1617,5.1675,5.1675,5.1704,5.1762,5.2285,5.2604,5.265,5.2113,5.1787,5.1787,5.1787,5.1706,5.1432,5.1072,5.0767,5.0515,5.0178,5.001,5.001,4.9698,4.9412,4.9043,4.7562,4.6726,4.6365,4.4636,4.3872,4.3817,4.3209,4.2622,4.211,4.2082,4.1316,4.0194,4.0194,3.9609,3.8752,5.4788,5.5176,5.5536,5.5675,5.6804,5.7768,5.7908,5.8625,5.9174,5.9174,5.9174,5.9174,5.9174,5.9174,5.9174,5.9174,5.9267,5.9329,5.9392,5.9423,5.8887,5.7646,5.759,5.6997,5.5728,5.6164,5.6394,5.6394,5.6193,5.6077,5.6077,5.5816,5.57,5.57,5.57,5.57,5.57,5.57,5.57,5.57,5.57,5.57,5.57,5.5613,5.5613,5.5583,5.5525,5.5496,5.5496,5.5496,5.4681,5.3698,5.3698,5.2826,5.1787,5.1787,5.1787,5.1787,5.1787,5.1787,5.1787,5.1787,5.1787,5.1787,5.1787,5.1787,5.1759,5.1645,5.1644,5.1555,5.1176,5.138,5.1496,5.1238,5.1436,5.1588,5.1588,5.1588,5.1791,5.2336,5.2394,5.2572,5.3039,5.2845,5.2591,5.2329,5.1977,5.1787,5.1787,5.1787,5.1706,5.1432,5.1072,5.0767,5.0515,5.0178,5.001,4.9982,4.9469,4.9183,4.9043,4.7365,4.6417,4.6028,4.4553,4.3736,4.3462,4.2849,4.2397,4.2082,4.183,4.1091,4.0194,4.0194,3.9609,3.8693,5.4607,5.5077,5.5544,5.5878,5.6833,5.7647,5.7924,5.854,5.8955,5.8955,5.908,5.9174,5.9174,5.9174,5.9174,5.9174,5.9174,5.9174,5.9174,5.9174,5.8671,5.7435,5.7409,5.6788,5.5524,5.5816,5.599,5.599,5.5816,5.5758,5.5758,5.5583,5.5496,5.5496,5.5496,5.5496,5.5496,5.5496,5.5496,5.5496,5.5496,5.5496,5.5467,5.532,5.5261,5.5232,5.5113,5.5083,5.5083,5.5083,5.4413,5.3577,5.3299,5.2575,5.1738,5.1459,5.1376,5.1376,5.1376,5.1376,5.1376,5.1376,5.1486,5.1651,5.1759,5.1787,5.1787,5.1787,5.1787,5.1757,5.1554,5.1902,5.2133,5.1947,5.2255,5.2488,5.2488,5.2488,5.2659,5.2978,5.3007,5.31,5.329,5.2947,5.2573,5.2221,5.195,5.1787,5.1787,5.1706,5.1486,5.1183,5.0878,5.0571,5.0263,5.0066,4.9925,4.9783,4.9326,4.8879,4.8444,4.7092,4.6176,4.5555,4.4397,4.3708,4.3353,4.2737,4.234,4.2054,4.1602,4.0918,4.0165,3.9873,3.9078,3.8036,5.4538,5.5034,5.5609,5.6273,5.6941,5.7524,5.802,5.8388,5.8641,5.8672,5.8924,5.9142,5.9174,5.9174,5.9174,5.9174,5.9174,5.9174,5.9174,5.9174,5.8671,5.7435,5.7409,5.6788,5.5524,5.5496,5.5496,5.5496,5.5496,5.5496,5.5496,5.5496,5.5467,5.5408,5.5408,5.5379,5.5349,5.5349,5.5349,5.5349,5.5349,5.5349,5.532,5.5026,5.4908,5.4878,5.4669,5.4607,5.4607,5.4607,5.4136,5.3499,5.3004,5.237,5.1707,5.121,5.0989,5.0906,5.0906,5.0906,5.0906,5.0906,5.1155,5.1487,5.1706,5.1759,5.1787,5.1787,5.1787,5.1787,5.1787,5.2248,5.2627,5.268,5.3107,5.3451,5.3474,5.3474,5.3474,5.3474,5.3477,5.3345,5.3054,5.2787,5.2492,5.214,5.1923,5.1787,5.1732,5.1514,5.1211,5.0823,5.0599,5.0347,5.001,4.9953,4.9783,4.9499,4.9183,4.8605,4.7768,4.6904,4.5991,4.5059,4.4241,4.3681,4.3295,4.2681,4.2312,4.2025,4.1369,4.074,4.0106,3.9426,3.8395,3.7283,5.4423,5.4991,5.5589,5.6215,5.7041,5.767,5.7752,5.8039,5.8357,5.8641,5.8735,5.8861,5.9174,5.9174,5.9174,5.9174,5.9174,5.9174,5.9174,5.9174,5.8671,5.7435,5.7409,5.6788,5.5524,5.5496,5.5496,5.5496,5.5496,5.5496,5.5496,5.5496,5.5349,5.5056,5.5056,5.4965,5.4699,5.4699,5.4699,5.4699,5.4699,5.4699,5.4726,5.4697,5.4639,5.4667,5.4637,5.4607,5.4607,5.4607,5.4136,5.3582,5.3499,5.27,5.179,5.1707,5.132,5.0906,5.0906,5.0906,5.0906,5.0906,5.1155,5.1432,5.1431,5.1651,5.1787,5.1787,5.1787,5.1787,5.1787,5.2059,5.2385,5.2653,5.2947,5.3239,5.3477,5.3474,5.3474,5.3474,5.3292,5.3054,5.2787,5.2465,5.214,5.1868,5.1814,5.1706,5.1487,5.1432,5.1155,5.0571,5.0543,5.0347,5.001,4.9755,4.9471,4.9154,4.8895,4.8404,4.7768,4.6904,4.5879,4.4752,4.4158,4.357,4.3014,4.2397,4.2139,4.2025,4.1139,4.0537,4.0048,3.8923,3.8058,3.7283,5.4464,5.5247,5.6007,5.6251,5.6922,5.7399,5.7399,5.772,5.7975,5.8103,5.8293,5.8546,5.8861,5.908,5.9174,5.9174,5.9174,5.9174,5.9174,5.9174,5.8578,5.7192,5.7106,5.6458,5.5023,5.4995,5.4995,5.4995,5.5144,5.5114,5.4995,5.4995,5.4906,5.4788,5.4788,5.4699,5.4607,5.4607,5.4607,5.4607,5.4607,5.4607,5.4578,5.4401,5.4341,5.4311,5.4101,5.4041,5.4041,5.4041,5.385,5.3546,5.3191,5.2726,5.2182,5.1498,5.1115,5.0814,5.0486,5.0404,5.0404,5.0404,5.0655,5.0934,5.11,5.1376,5.1623,5.1759,5.1787,5.1787,5.1787,5.2004,5.2302,5.2653,5.2921,5.3186,5.3477,5.3474,5.3474,5.3474,5.3266,5.2974,5.2734,5.2411,5.2086,5.1814,5.1787,5.1706,5.1404,5.1211,5.0934,5.0515,5.0319,5.015,5.001,4.9727,4.944,4.9096,4.8493,4.7815,4.7066,4.6688,4.5669,4.4233,4.4002,4.3568,4.2958,4.234,4.211,4.1997,4.0855,3.9925,3.9101,3.8388,3.7577,3.6758]},{"header":{"parameterUnit":"m.s-1","parameterCategory":1,"la1":30.6,"la2":28.766,"lo1":-90.7593,"lo2":-88.6598,"dy":0.0162,"dx":0.0183,"nx":116,"ny":114,"refTime":"2023-11-12T06:00:00:Z","depth":0,"parameterNumber":3,"parameterNumberName":"V-component_of_WINDS"},"data":[0.0,0.0,0.0,0.0,0.0,0.0,0.0,0.0,0.0,0.0,0.0,0.0,0.0,0.0,0.0,0.0,0.0,0.0,0.0,0.0,0.0,0.0,0.0,0.0,0.0,0.0,0.0,0.0,0.0,0.0,0.0,0.0,0.0,0.0,0.0,0.0,0.0,0.0,0.0,0.0,0.0,0.0,0.0,0.0,0.0,0.0,0.0,0.0,0.0,0.0,0.0,0.0,0.0,0.0,0.0,0.0,0.0,0.0,0.0,0.0,0.0,0.0,0.0,0.0,0.0,0.0,0.0,0.0,0.0,0.0,0.0,0.0,0.0,0.0,0.0,0.0,0.0,0.0,0.0,0.0,0.0,0.0,0.0,0.0,0.0,0.0,0.0,0.0,0.0,0.0,0.0,0.0,0.0,0.0,0.0,0.0,0.0,0.0,0.0,0.0,0.0,0.0,0.0,0.0,0.0,0.0,0.0,0.0,0.0,0.0,0.0,0.0,0.0,0.0,0.0,0.0,0.0,0.0,0.0,0.0,0.0,0.0,0.0,0.0,0.0,0.0,0.0,0.0,0.0,0.0,0.0,0.0,0.0,0.0,0.0,0.0,0.0,0.0,0.0,0.0,0.0,0.0,0.0,0.0,0.0,0.0,0.0,0.0,0.0,0.0,0.0,0.0,0.0,0.0,0.0,0.0,0.0,0.0,0.0,0.0,0.0,0.0,0.0,0.0,0.0,0.0,0.0,0.0,0.0,0.0,0.0,0.0,0.0,0.0,0.0,0.0,0.0,0.0,0.0,0.0,0.0,0.0,0.0,0.0,0.0,0.0,0.0,0.0,0.0,0.0,0.0,0.0,0.0,0.0,0.0,0.0,0.0,0.0,0.0,0.0,0.0,0.0,0.0,0.0,0.0,0.0,0.0,0.0,0.0,0.0,0.0,0.0,0.0,0.0,0.0,0.0,0.0,0.0,0.0,0.0,0.0,0.0,0.0,0.0,0.0,0.0,0.0,0.0,0.0,0.0,0.0,0.0,0.0,0.0,0.0,0.0,0.0,0.0,0.0,0.0,0.0,0.0,0.0,0.0,0.0,0.0,0.0,0.0,0.0,0.0,0.0,0.0,0.0,0.0,0.0,0.0,0.0,0.0,0.0,0.0,0.0,0.0,0.0,0.0,0.0,0.0,0.0,0.0,0.0,0.0,0.0,0.0,0.0,0.0,0.0,0.0,0.0,0.0,0.0,0.0,0.0,0.0,0.0,0.0,0.0,0.0,0.0,0.0,0.0,0.0,0.0,0.0,0.0,0.0,0.0,0.0,0.0,0.0,0.0,0.0,0.0,0.0,0.0,0.0,0.0,0.0,0.0,0.0,0.0,0.0,0.0,0.0,0.0,0.0,0.0,0.0,0.0,0.0,0.0,0.0,0.0,0.0,0.0,0.0,0.0,0.0,0.0,0.0,0.0,0.0,0.0,0.0,0.0,0.0,0.0,0.0,0.0,0.0,0.0,0.0,0.0,0.0,0.0,0.0,0.0,0.0,0.0,0.0,0.0,0.0,0.0,0.0,0.0,0.0,0.0,0.0,0.0,0.0,0.0,0.0,0.0,0.0,0.0,0.0,0.0,0.0,0.0,0.0,0.0,0.0,0.0,0.0,0.0,0.0,0.0,0.0,0.0,0.0,0.0,0.0,0.0,0.0,0.0,0.0,0.0,0.0,0.0,0.0,0.0,0.0,0.0,0.0,0.0,0.0,0.0,0.0,0.0,0.0,0.0,0.0,0.0,0.0,0.0,0.0,0.0,0.0,0.0,0.0,0.0,0.0,0.0,0.0,0.0,0.0,0.0,0.0,0.0,0.0,0.0,0.0,0.0,0.0,0.0,0.0,0.0,0.0,0.0,0.0,0.0,0.0,0.0,0.0,0.0,0.0,0.0,0.0,0.0,0.0,0.0,0.0,0.0,0.0,0.0,0.0,0.0,0.0,0.0,0.0,0.0,0.0,0.0,0.0,0.0,0.0,0.0,0.0,0.0,0.0,0.0,0.0,0.0,0.0,0.0,0.0,0.0,0.0,0.0,0.0,0.0,0.0,0.0,0.0,0.0,0.0,0.0,0.0,0.0,0.0,0.0,0.0,0.0,0.0,0.0,0.0,0.0,0.0,0.0,0.0,0.0,0.0,0.0,0.0,0.0,0.0,0.0,0.0,0.0,0.0,0.0,0.0,0.0,0.0,0.0,0.0,0.0,0.0,0.0,0.0,0.0,0.0,0.0,0.0,0.0,0.0,0.0,0.0,0.0,0.0,0.0,0.0,0.0,0.0,0.0,0.0,0.0,0.0,0.0,0.0,0.0,0.0,0.0,0.0,0.0,0.0,0.0,0.0,0.0,0.0,0.0,0.0,0.0,0.0,0.0,0.0,0.0,0.0,0.0,0.0,0.0,0.0,0.0,0.0,0.0,0.0,0.0,0.0,0.0,0.0,0.0,0.0,0.0,0.0,0.0,0.0,0.0,0.0,0.0,0.0,0.0,0.0,0.0,0.0,0.0,0.0,0.0,0.0,0.0,0.0,0.0,0.0,0.0,0.0,0.0,0.0,0.0,0.0,0.0,0.0,0.0,0.0,0.0,0.0,0.0,0.0,0.0,0.0,0.0,0.0,0.0,0.0,0.0,0.0,0.0,0.0,0.0,0.0,0.0,0.0,0.0,0.0,0.0,0.0,0.0,0.0,0.0,0.0,0.0,0.0,0.0,0.0,0.0,0.0,0.0,0.0,0.0,0.0,0.0,0.0,0.0,0.0,0.0,0.0,0.0,0.0,0.0,0.0,0.0,0.0,0.0,0.0,0.0,0.0,0.0,0.0,0.0,0.0,0.0,0.0,0.0,0.0,0.0,0.0,0.0,0.0,0.0,0.0,0.0,0.0,0.0,0.0,0.0,0.0,0.0,0.0,0.0,0.0,0.0,0.0,0.0,0.0,0.0,0.0,0.0,0.0,0.0,0.0,0.0,0.0,0.0,0.0,0.0,0.0,0.0,0.0,0.0,0.0,0.0,0.0,0.0,0.0,0.0,0.0,0.0,0.0,0.0,0.0,0.0,0.0,0.0,0.0,0.0,0.0,0.0,0.0,0.0,0.0,0.0,0.0,0.0,0.0,0.0,0.0,0.0,0.0,0.0,0.0,0.0,0.0,0.0,0.0,0.0,0.0,0.0,0.0,0.0,0.0,0.0,0.0,0.0,0.0,0.0,0.0,0.0,0.0,0.0,0.0,0.0,0.0,0.0,0.0,0.0,0.0,0.0,0.0,0.0,0.0,0.0,0.0,0.0,0.0,0.0,0.0,0.0,0.0,0.0,0.0,0.0,0.0,0.0,0.0,0.0,0.0,0.0,0.0,0.0,0.0,0.0,0.0,0.0,0.0,0.0,0.0,0.0,0.0,0.0,0.0,0.0,0.0,0.0,0.0,0.0,0.0,0.0,0.0,0.0,0.0,0.0,0.0,0.0,0.0,0.0,0.0,0.0,0.0,0.0,0.0,0.0,0.0,0.0,0.0,0.0,0.0,0.0,0.0,0.0,0.0,0.0,0.0,0.0,0.0,0.0,0.0,0.0,0.0,0.0,0.0,0.0,0.0,0.0,0.0,0.0,0.0,0.0,0.0,0.0,0.0,0.0,0.0,0.0,0.0,0.0,0.0,0.0,0.0,0.0,0.0,0.0,0.0,0.0,0.0,0.0,0.0,0.0,0.0,0.0,0.0,0.0,0.0,0.0,0.0,0.0,0.0,0.0,0.0,0.0,0.0,0.0,0.0,0.0,0.0,0.0,0.0,0.0,0.0,0.0,0.0,0.0,0.0,0.0,0.0,0.0,0.0,0.0,0.0,0.0,0.0,0.0,0.0,0.0,0.0,0.0,0.0,0.0,0.0,0.0,0.0,0.0,0.0,0.0,0.0,0.0,0.0,0.0,0.0,0.0,0.0,0.0,0.0,0.0,0.0,0.0,0.0,0.0,0.0,0.0,0.0,0.0,0.0,0.0,0.0,0.0,0.0,0.0,0.0,0.0,0.0,0.0,0.0,0.0,0.0,0.0,0.0,0.0,0.0,0.0,0.0,0.0,0.0,0.0,0.0,0.0,0.0,0.0,0.0,0.0,0.0,0.0,0.0,0.0,0.0,0.0,0.0,0.0,0.0,0.0,0.0,0.0,0.0,0.0,0.0,0.0,0.0,0.0,0.0,0.0,0.0,0.0,0.0,0.0,0.0,0.0,0.0,0.0,0.0,0.0,0.0,0.0,0.0,0.0,0.0,0.0,0.0,0.0,0.0,0.0,0.0,0.0,0.0,0.0,0.0,0.0,0.0,0.0,0.0,0.0,0.0,0.0,0.0,0.0,0.0,0.0,0.0,0.0,0.0,0.0,0.0,0.0,0.0,0.0,0.0,0.0,0.0,0.0,0.0,0.0,0.0,0.0,0.0,0.0,0.0,0.0,0.0,0.0,0.0,0.0,0.0,0.0,0.0,0.0,0.0,0.0,0.0,0.0,0.0,0.0,0.0,0.0,0.0,0.0,0.0,0.0,0.0,0.0,0.0,0.0,0.0,0.0,0.0,0.0,0.0,0.0,0.0,0.0,0.0,0.0,0.0,0.0,0.0,0.0,0.0,0.0,0.0,0.0,0.0,0.0,0.0,0.0,0.0,0.0,0.0,0.0,0.0,0.0,0.0,0.0,0.0,0.0,0.0,0.0,0.0,0.0,0.0,0.0,0.0,0.0,0.0,0.0,0.0,0.0,0.0,0.0,0.0,0.0,0.0,0.0,0.0,0.0,0.0,0.0,0.0,0.0,0.0,0.0,0.0,0.0,0.0,0.0,0.0,0.0,0.0,0.0,0.0,0.0,0.0,0.0,0.0,0.0,0.0,0.0,0.0,0.0,0.0,0.0,0.0,0.0,0.0,0.0,0.0,0.0,0.0,0.0,0.0,0.0,0.0,0.0,0.0,0.0,0.0,0.0,0.0,0.0,0.0,0.0,0.0,0.0,0.0,0.0,0.0,0.0,0.0,0.0,0.0,0.0,0.0,0.0,0.0,0.0,0.0,0.0,0.0,0.0,0.0,0.0,0.0,0.0,0.0,0.0,0.0,0.0,0.0,0.0,0.0,0.0,0.0,0.0,0.0,0.0,0.0,0.0,0.0,0.0,0.0,0.0,0.0,0.0,0.0,0.0,0.0,0.0,0.0,0.0,0.0,0.0,0.0,0.0,0.0,0.0,0.0,0.0,0.0,0.0,0.0,0.0,0.0,0.0,0.0,0.0,0.0,0.0,0.0,0.0,0.0,0.0,0.0,0.0,0.0,0.0,0.0,0.0,0.0,0.0,0.0,0.0,0.0,0.0,0.0,0.0,0.0,0.0,0.0,0.0,0.0,0.0,0.0,0.0,0.0,0.0,0.0,0.0,0.0,0.0,0.0,0.0,0.0,0.0,0.0,0.0,0.0,0.0,0.0,0.0,0.0,0.0,0.0,0.0,0.0,0.0,0.0,0.0,0.0,0.0,0.0,0.0,0.0,0.0,0.0,0.0,0.0,0.0,0.0,0.0,0.0,0.0,0.0,0.0,0.0,0.0,0.0,0.0,0.0,0.0,0.0,0.0,0.0,0.0,0.0,0.0,0.0,0.0,0.0,0.0,0.0,0.0,0.0,0.0,0.0,0.0,0.0,0.0,0.0,0.0,0.0,0.0,0.0,0.0,0.0,0.0,0.0,0.0,0.0,0.0,0.0,0.0,0.0,0.0,0.0,0.0,0.0,0.0,0.0,0.0,0.0,0.0,0.0,0.0,0.0,0.0,0.0,0.0,0.0,0.0,0.0,0.0,0.0,0.0,0.0,0.0,0.0,0.0,0.0,0.0,0.0,0.0,0.0,0.0,0.0,0.0,0.0,0.0,0.0,0.0,0.0,0.0,0.0,0.0,0.0,0.0,0.0,0.0,0.0,0.0,0.0,0.0,0.0,0.0,0.0,0.0,0.0,0.0,0.0,0.0,0.0,0.0,0.0,0.0,0.0,0.0,0.0,0.0,0.0,0.0,0.0,0.0,0.0,0.0,0.0,0.0,0.0,0.0,0.0,2.1187,0.0,0.0,0.0,0.0,0.0,0.0,0.0,0.0,0.0,0.0,0.0,0.0,0.0,0.0,0.0,0.0,0.0,0.0,0.0,0.0,0.0,0.0,0.0,0.0,0.0,0.0,0.0,0.0,0.0,0.0,0.0,0.0,0.0,0.0,0.0,0.0,0.0,0.0,0.0,1.4049,1.4567,1.5391,1.5254,1.5274,1.5449,0.0,0.0,0.0,0.0,0.0,0.0,0.0,0.0,0.0,0.0,0.0,0.0,0.0,0.0,0.0,0.0,0.0,0.0,0.0,0.0,0.0,0.0,0.0,0.0,0.0,0.0,0.0,0.0,0.0,0.0,0.0,0.0,0.0,0.0,0.0,0.0,0.0,0.0,0.0,0.0,0.0,0.0,0.0,0.0,0.0,0.0,0.0,0.0,0.0,0.0,0.0,0.0,0.0,0.0,0.0,0.0,0.0,0.0,0.0,0.0,0.0,0.0,0.0,0.0,0.0,0.0,0.0,0.0,0.0,0.0,0.0,2.1928,0.0,0.0,0.0,0.0,0.0,0.0,0.0,0.0,0.0,0.0,0.0,0.0,0.0,0.0,0.0,0.0,0.0,0.0,0.0,0.0,0.0,0.0,0.0,0.0,0.0,0.0,0.0,0.0,0.0,0.0,0.0,0.0,0.0,0.0,0.0,1.3373,1.3943,1.5038,1.517,1.5865,1.7061,1.7284,1.746,1.7536,1.7205,0.0,0.0,0.0,0.0,0.0,0.0,0.0,0.0,0.0,0.0,0.0,0.0,0.0,0.0,0.0,0.0,0.0,0.0,0.0,0.0,0.0,0.0,0.0,0.0,0.0,0.0,0.0,0.0,0.0,0.0,0.0,0.0,0.0,0.0,0.0,0.0,0.0,0.0,0.0,0.0,0.0,0.0,0.0,0.0,0.0,0.0,0.0,0.0,0.0,0.0,0.0,0.0,0.0,0.0,0.0,0.0,0.0,0.0,0.0,0.0,0.0,0.0,0.0,2.3901,2.4417,2.4828,2.5132,2.5511,2.5822,2.425,2.345,2.3266,0.0,0.0,0.0,0.0,0.0,0.0,0.0,0.0,0.0,0.0,0.0,0.0,0.0,0.0,0.0,0.0,0.0,0.0,0.0,0.0,0.0,0.0,0.0,1.0745,1.1127,1.1456,1.1647,0.0,0.0,0.0,0.0,0.0,0.0,0.0,1.4517,1.5057,1.6006,1.6722,1.7426,1.8118,1.8737,1.9274,1.9684,1.8003,1.7346,1.7471,0.0,0.0,0.0,0.0,0.0,0.0,0.0,0.0,0.0,0.0,0.0,0.0,0.0,0.0,0.0,0.0,0.0,0.0,0.0,0.0,0.0,0.0,0.0,0.0,0.0,0.0,0.0,0.0,0.0,0.0,0.0,0.0,0.0,0.0,0.0,0.0,0.0,0.0,0.0,0.0,0.0,1.5393,1.6155,0.0,0.0,0.0,0.0,0.0,0.0,0.0,0.0,0.0,0.0,0.0,0.0,0.0,2.2822,2.3824,2.4171,2.4525,2.4904,2.5214,2.5503,2.5747,2.6433,2.6871,2.7163,2.731,0.0,2.5811,2.5811,0.0,0.0,0.0,0.0,0.0,0.0,0.0,0.0,0.0,0.0,0.0,0.0,0.0,0.0,0.0,0.0,0.0,0.0,0.0,0.0,0.0,1.1071,1.1396,1.1563,1.1922,1.2185,1.2236,0.0,0.0,0.0,0.0,1.4594,1.5368,1.5523,1.6138,1.7274,1.8291,1.9006,1.9381,1.9777,2.0156,2.0464,1.9702,1.9348,1.9277,1.8855,0.0,0.0,0.0,0.0,0.0,0.0,0.0,0.0,0.0,0.0,0.0,0.0,0.0,0.0,0.0,0.0,0.0,0.0,0.0,0.0,0.0,0.0,0.0,0.0,0.0,0.0,0.0,0.0,0.0,0.0,0.0,0.0,0.0,0.0,0.0,0.0,0.0,0.0,0.0,1.5999,1.6533,1.7423,1.7934,1.8471,0.0,0.0,0.0,0.0,0.0,0.0,0.0,0.0,0.0,2.3529,2.3877,2.4404,2.5154,2.5652,2.6183,2.6771,2.7279,2.7666,2.7949,2.8256,2.846,2.8602,2.8815,2.8644,2.8196,2.7292,2.6869,2.6746,0.0,0.0,0.0,0.0,0.0,2.5954,0.0,0.0,0.0,0.0,0.0,0.0,0.0,0.0,0.0,0.0,0.0,0.0,1.0957,1.1469,1.1857,1.1983,1.2371,1.2661,1.28,0.0,0.0,0.0,0.0,1.5687,1.6435,1.6854,1.7559,1.8562,1.981,2.0492,2.0658,2.1123,2.1411,2.15,2.1773,2.1481,2.0741,2.0203,1.9956,1.9871,0.0,0.0,0.0,0.0,0.0,0.0,0.0,0.0,0.0,0.0,0.0,0.0,0.0,0.0,0.0,0.0,0.0,0.0,0.0,0.0,0.0,0.0,0.0,0.0,0.0,0.0,0.0,0.0,0.0,0.0,0.0,0.0,0.0,0.0,0.0,0.0,0.0,1.7255,1.7858,1.8714,1.9354,1.9906,0.0,0.0,0.0,0.0,0.0,0.0,2.3229,2.3663,2.4254,2.5055,2.5635,2.6148,2.6618,2.7256,2.7852,2.8376,2.8908,2.9342,2.9764,2.9892,3.0095,3.0353,3.0482,3.0655,3.0724,2.88,2.8059,2.8084,2.7718,2.7612,2.7612,2.768,2.7703,2.7726,0.0,0.0,0.0,0.0,0.0,0.0,0.0,0.0,0.0,0.0,0.0,1.0969,1.1673,1.1776,1.2013,1.2522,1.2936,1.322,1.3343,1.4264,1.4883,1.5059,1.5634,1.6505,1.7692,1.8836,1.9539,1.9813,2.1149,2.179,2.183,2.3076,2.3636,2.3656,2.4113,2.3075,2.0977,2.0952,2.0931,2.0863,2.013,0.0,0.0,0.0,0.0,0.0,0.0,0.0,0.0,0.0,0.0,0.0,0.0,0.0,0.0,0.0,0.0,0.0,0.0,0.0,0.0,0.0,0.0,0.0,0.0,0.0,0.0,0.0,0.0,0.0,0.0,0.0,0.0,0.0,0.0,0.0,0.0,0.0,0.0,1.9847,2.0283,0.0,0.0,0.0,0.0,2.3695,2.4184,2.4627,2.5068,2.551,2.5953,2.6376,2.7348,2.8094,2.8549,2.9112,2.9381,2.9427,2.9448,2.9807,3.0461,3.0982,3.1745,3.2649,3.3117,3.3501,3.3578,3.0815,2.9835,3.0052,3.003,3.003,3.0054,3.0299,3.0396,3.0444,0.0,0.0,0.0,0.0,0.0,0.0,0.0,0.0,0.0,1.0627,1.0925,1.1267,1.1742,1.2109,1.2498,1.2953,1.3664,1.4185,1.4351,1.501,1.5622,1.6058,1.6781,1.7728,1.8933,2.0186,2.0947,2.1189,2.2367,2.3003,2.3139,2.3894,2.4243,2.4263,2.4699,2.4418,2.3599,2.2941,2.2658,2.2588,2.1727,2.1351,0.0,0.0,0.0,0.0,0.0,0.0,0.0,0.0,0.0,0.0,0.0,0.0,0.0,0.0,0.0,0.0,0.0,0.0,0.0,0.0,0.0,0.0,0.0,0.0,0.0,0.0,0.0,0.0,0.0,0.0,0.0,0.0,0.0,0.0,0.0,0.0,0.0,2.1107,2.1969,0.0,2.3145,2.3845,2.4391,2.4706,2.5174,2.569,2.6252,2.6911,2.751,2.811,2.8666,2.9327,3.0113,3.0291,3.079,3.1572,3.1733,3.2028,3.2441,3.2848,3.3234,3.357,3.3749,3.3895,3.393,3.2927,3.2357,3.2098,3.1812,3.1678,3.1703,3.1803,3.1627,3.1426,0.0,0.0,0.0,0.0,0.0,0.0,0.0,0.0,0.0,1.0827,1.1233,1.161,1.196,1.2474,1.3034,1.3617,1.4309,1.4867,1.5247,1.5728,1.6297,1.6975,1.8037,1.9128,2.0226,2.1292,2.203,2.2427,2.356,2.4142,2.4303,2.5071,2.5428,2.547,2.5791,2.5992,2.6026,2.5088,2.445,2.4018,2.3051,2.2665,2.2557,0.0,0.0,0.0,0.0,0.0,0.0,0.0,0.0,0.0,0.0,0.0,0.0,0.0,0.0,0.0,0.0,0.0,0.0,0.0,0.0,0.0,0.0,0.0,0.0,0.0,0.0,0.0,0.0,0.0,0.0,0.0,0.0,0.0,0.0,0.0,2.16,2.2478,2.3479,2.4171,2.4456,2.5336,2.5956,2.6049,2.6716,2.7311,2.7745,2.8373,2.9006,2.9623,3.0091,3.0713,3.1484,3.1689,3.2175,3.2964,3.3258,3.3586,3.3901,3.4115,3.4364,3.4624,3.4624,3.4655,3.4789,3.4869,3.4691,3.4298,3.336,3.3009,3.3013,3.3115,3.296,3.276,0.0,0.0,0.0,0.0,0.0,0.0,0.0,0.0,1.0405,1.1207,1.1597,1.196,1.236,1.2882,1.3582,1.4522,1.4798,1.5247,1.5971,1.6417,1.7013,1.7842,1.9385,2.0648,2.1512,2.2196,2.2868,2.3548,2.4684,2.5248,2.5312,2.6675,2.7356,2.7356,2.7567,2.7776,2.7985,2.7218,2.6201,2.5108,2.4078,2.3674,2.3562,0.0,0.0,0.0,0.0,0.0,0.0,0.0,0.0,0.0,0.0,0.0,0.0,0.0,0.0,0.0,0.0,0.0,0.0,0.0,0.0,0.0,0.0,0.0,0.0,0.0,0.0,0.0,0.0,0.0,0.0,0.0,0.0,0.0,2.082,2.2154,2.3406,2.3901,2.473,2.5366,2.5637,2.6716,2.747,2.7728,2.8882,2.9537,2.9537,2.9959,3.0427,3.0952,3.1589,3.222,3.2744,3.328,3.3546,3.3546,3.3909,3.4338,3.4755,3.4782,3.5188,3.5881,3.5881,3.6077,3.6405,3.6677,3.6735,3.6588,3.4774,3.4099,3.4125,3.4388,3.4494,3.4572,0.0,0.0,0.0,0.0,0.0,0.0,0.0,1.0342,1.0725,1.1241,1.1597,1.2,1.2484,1.3021,1.3741,1.4726,1.5226,1.5746,1.64,1.7209,1.8243,1.9502,2.0585,2.1494,2.2196,2.3201,2.4068,2.4724,2.5734,2.6403,2.6741,2.7665,2.8195,2.8411,2.8602,2.8816,2.8981,2.8433,2.7997,2.7557,2.5985,2.5144,2.4738,0.0,0.0,0.0,0.0,0.0,0.0,0.0,0.0,0.0,0.0,0.0,0.0,0.0,0.0,0.0,0.0,0.0,0.0,0.0,0.0,0.0,0.0,0.0,0.0,0.0,0.0,0.0,0.0,0.0,0.0,0.0,0.0,2.327,2.303,2.341,2.4058,2.5015,2.6054,2.6819,2.7098,2.8196,2.8939,2.9013,2.9938,3.0521,3.0521,3.1446,3.2045,3.2201,3.276,3.3307,3.3785,3.4163,3.4531,3.491,3.5548,3.5934,3.6092,3.6678,3.7186,3.7627,3.7627,3.7771,3.8054,3.811,3.8137,3.8043,3.6769,3.6243,3.6267,3.6324,3.635,3.633,0.0,0.0,0.0,0.0,0.0,0.0,0.0,1.0428,1.0844,1.1241,1.1747,1.2199,1.2557,1.3218,1.4064,1.5072,1.5487,1.6067,1.6929,1.8088,1.9219,2.0314,2.1375,2.2237,2.2909,2.4046,2.499,2.5796,2.6596,2.7337,2.7948,2.8664,2.9132,2.9393,2.9522,2.9673,2.9841,2.9366,2.9074,2.8851,2.7726,2.6765,2.5947,2.4886,2.4182,2.3614,2.253,2.175,2.1123,2.0395,0.0,0.0,0.0,0.0,0.0,0.0,0.0,0.0,0.0,0.0,0.0,0.0,0.0,0.0,0.0,0.0,0.0,0.0,0.0,0.0,0.0,0.0,0.0,0.0,2.3831,2.4698,2.5382,2.5396,2.5624,2.6388,2.7496,2.8277,2.8443,2.9561,3.0267,3.0267,3.1232,3.1875,3.1958,3.2659,3.3185,3.3539,3.3834,3.4356,3.5018,3.5343,3.5756,3.6224,3.6826,3.7188,3.7323,3.7819,3.8161,0.0,3.847,3.8555,3.8699,3.8863,3.8918,0.0,0.0,0.0,0.0,0.0,3.786,3.7945,0.0,0.0,0.0,0.0,0.0,0.0,0.0,1.0473,1.0908,1.1258,1.1932,1.2467,1.2619,1.3444,1.4421,1.5432,1.5666,1.6281,1.759,1.8903,1.9932,2.064,2.1913,2.2909,2.3526,2.4663,2.5729,2.6669,2.7398,2.8138,2.8923,2.9606,3.008,3.0321,3.0365,3.0474,3.0646,3.0188,2.9813,2.9481,2.9196,2.8301,2.7003,2.592,2.5126,2.4477,2.3642,2.2981,2.2377,2.1576,0.0,0.0,0.0,0.0,0.0,0.0,0.0,0.0,0.0,0.0,0.0,0.0,0.0,0.0,0.0,0.0,0.0,0.0,0.0,0.0,0.0,0.0,0.0,0.0,2.5003,2.6057,2.7542,2.7717,2.7708,2.7878,2.8903,2.9629,2.9693,3.0758,3.1451,3.1542,3.2603,3.3324,3.3617,0.0,0.0,0.0,0.0,3.5371,3.6342,3.6595,3.6991,3.7451,3.7782,3.8083,3.839,3.8464,3.8657,3.8944,3.8944,3.8944,3.9,3.9304,3.9415,3.9364,3.8942,3.8783,3.8783,3.8783,3.9002,0.0,0.0,0.0,0.0,0.0,0.0,0.0,0.0,1.072,1.1212,1.1293,1.1932,1.2522,1.2798,1.3534,1.4452,1.556,1.5827,1.6722,1.8586,1.9415,2.0219,2.1044,2.2504,2.3442,2.3745,2.5069,2.6227,2.7162,2.8101,2.8925,2.9606,3.0384,3.0886,3.1107,3.1306,3.1504,3.1678,3.1385,3.1089,3.0746,2.9831,2.8623,2.7293,2.6885,2.6079,2.5084,2.4441,2.3736,2.2933,2.2171,2.1508,2.0941,2.0465,1.9576,0.0,0.0,0.0,0.0,0.0,0.0,0.0,0.0,0.0,0.0,0.0,0.0,0.0,0.0,0.0,0.0,0.0,0.0,0.0,2.4941,2.6424,2.7653,2.7977,2.9095,2.9696,2.921,2.9856,3.0479,3.0913,3.1706,3.242,3.303,3.3634,3.4127,3.4446,3.4826,3.53,3.5876,3.6122,3.6533,3.7173,3.7428,3.7616,3.7736,0.0,0.0,3.8901,3.9551,3.9998,4.031,4.031,4.0483,4.0717,4.0798,4.0827,4.0702,3.9782,3.9443,3.9443,3.9443,3.9613,3.9861,0.0,0.0,0.0,0.0,0.0,0.0,0.0,1.061,1.1074,1.1276,1.1764,1.2274,1.2698,1.3311,1.4133,1.5221,1.5997,1.7225,1.9036,1.9622,2.0388,2.1452,2.2905,2.3847,2.4144,2.5526,2.6692,2.7651,2.8515,2.9344,3.0163,3.0859,3.1318,3.1651,3.1783,3.1981,3.2201,3.2062,3.177,3.1321,3.0386,2.9399,2.8406,2.7565,2.6892,2.6212,2.5252,2.4608,2.408,2.3006,2.2368,2.1971,2.1418,2.0713,2.003,0.0,0.0,0.0,0.0,0.0,0.0,0.0,0.0,0.0,0.0,0.0,0.0,0.0,0.0,2.2858,2.3865,0.0,2.5565,2.6513,2.7551,2.8511,2.9198,3.032,3.0889,3.0446,3.1037,3.1667,3.2171,3.2862,3.3448,3.3829,3.4452,3.5072,3.5621,3.5869,3.6313,3.698,3.7121,3.7457,3.8011,3.8269,3.8527,3.8805,3.9354,3.9702,3.987,4.0274,4.0624,4.0966,4.0966,4.1052,4.1201,4.1201,4.1369,4.1562,4.1204,4.0874,4.0604,4.0604,4.08,4.1052,0.0,0.0,0.0,0.0,0.0,0.0,0.0,0.0,1.0844,1.1241,1.1597,1.2,1.2539,1.3078,1.3861,1.5052,1.6225,1.7552,1.9118,1.9635,2.0419,2.1613,2.2993,2.398,2.4502,2.5763,2.6956,2.801,2.87,2.9576,3.0598,3.1071,3.1577,3.2069,3.2113,3.2245,3.2466,3.2531,3.221,3.1603,3.0824,3.0162,2.9456,2.8151,2.7567,2.7237,2.5986,2.5443,2.5117,2.3825,2.321,2.2857,2.223,2.1721,2.1289,2.0866,2.0514,0.0,0.0,0.0,0.0,0.0,0.0,0.0,0.0,2.1637,2.2022,2.3145,2.3805,2.4388,2.5125,2.5869,2.679,2.7968,2.8584,2.9264,3.0431,3.1258,3.1753,3.1706,3.2258,3.2805,3.3265,3.3903,3.4403,3.4657,3.5278,3.5976,3.6786,3.6832,3.72,3.793,3.7982,3.8263,3.885,3.9059,3.9413,3.989,4.0159,4.045,4.0706,4.0764,4.1014,4.1369,4.1466,4.1514,4.1514,4.1572,4.1842,4.2257,4.2608,4.2485,4.2095,4.2037,4.2209,4.2516,0.0,0.0,0.0,0.0,0.0,0.0,0.0,0.0,0.0,1.1241,1.1597,1.2,1.2539,1.3078,1.4116,1.5911,1.6571,1.7487,1.8844,1.9547,2.0279,2.1139,2.2469,2.3597,2.4482,2.5409,2.6596,2.801,2.8496,2.9477,3.0858,3.11,3.1604,3.2356,3.2528,3.2636,3.268,3.2918,3.2571,3.1811,3.1245,3.045,2.9521,2.8897,2.8133,2.7323,2.6671,2.5948,2.5164,2.4347,2.3685,2.3102,2.2662,2.2068,2.1529,2.1289,2.1075,2.0896,2.0878,2.072,2.0719,2.1325,2.1676,2.2042,0.0,2.3201,2.3791,2.4829,2.5083,2.5424,2.6339,2.7372,2.8154,2.835,2.9645,3.0687,3.0815,3.1717,3.2564,3.3171,3.3312,3.3581,3.4041,3.4422,3.5124,3.6251,3.642,3.6809,3.7621,3.7673,3.7925,3.8481,3.8504,3.8879,3.965,3.968,3.9849,4.0165,4.0479,4.0677,4.0706,4.1024,4.1408,4.1947,4.2404,4.2621,4.2651,4.2893,4.3006,4.3114,4.3438,4.3707,4.3887,4.357,4.3687,4.3974,0.0,0.0,0.0,0.0,0.0,0.0,0.0,0.0,0.0,0.0,1.1285,1.1674,1.2092,1.2895,1.4059,1.5725,1.6246,1.713,1.8631,1.9216,2.0083,2.1384,2.2357,2.3354,2.4412,2.5585,2.6617,2.7478,2.8433,2.9302,3.015,3.0549,3.1073,3.1653,3.1737,3.1817,3.1943,3.2068,3.1922,3.1543,3.0896,3.0301,2.9751,2.907,2.8473,2.7956,2.729,2.6557,0.0,2.5099,2.4292,2.3591,2.3406,2.3,2.2508,2.2151,2.1832,2.1564,2.1439,2.1752,2.2162,2.2429,2.2813,2.3219,2.3787,2.4295,2.4848,2.5509,2.6001,2.6496,2.7161,2.8011,2.8802,0.0,3.0267,3.1105,3.1673,3.2376,3.3095,3.3825,3.4319,3.4672,3.4895,3.5438,3.6047,3.6566,3.703,3.7588,3.8229,3.8281,3.8481,3.8987,3.9185,3.9476,3.9802,4.0153,4.0386,4.0508,4.0826,4.1138,4.1479,4.16,4.1971,4.2477,4.2693,4.2909,4.3033,4.3152,4.35,4.4002,4.4329,4.473,4.5042,4.4254,4.4178,4.444,0.0,0.0,0.0,0.0,0.0,0.0,0.0,0.0,0.0,0.0,0.0,1.1289,1.1825,1.2793,1.3921,1.5268,1.5794,1.6719,1.8304,1.8822,1.9777,2.1239,2.213,2.3097,2.4168,2.5405,2.641,2.7097,2.8135,2.9024,2.9719,3.0175,3.0647,3.1186,3.1186,3.1268,3.1406,3.1406,3.1311,3.1115,3.0598,3.0129,2.9696,2.91,2.862,2.8194,2.7506,2.6847,2.6169,2.5424,2.4646,2.3959,2.3927,2.3703,2.3379,2.2932,2.2637,2.2456,2.2477,2.2938,2.3435,2.3474,2.3816,2.4246,2.4758,2.5272,2.5808,2.6366,2.6906,2.7451,2.8078,2.874,2.9447,3.0253,3.0799,3.1389,3.2289,3.2813,3.3407,3.4243,3.4972,3.5523,3.5796,3.6357,3.6814,3.7138,3.7679,3.8229,3.8757,3.878,3.8941,3.9285,3.9626,3.9831,3.9919,4.0444,4.0835,4.1065,4.1326,4.1706,4.2236,4.2356,4.2645,4.3006,4.315,4.3373,4.3649,4.3739,4.4198,4.4897,4.5221,4.559,4.5839,4.5096,4.489,4.5066,0.0,0.0,0.0,0.0,0.0,0.0,0.0,0.0,0.0,0.0,0.0,0.0,0.0,1.2863,1.3784,1.4736,1.5298,1.6274,1.7825,1.849,1.9279,2.0305,2.1605,2.272,2.3615,2.4501,2.565,2.7097,2.7539,2.8523,2.9987,3.0188,3.0683,3.1386,3.1386,3.1386,3.1406,3.1406,3.111,3.0613,3.0613,3.0005,2.9116,2.9091,2.8519,2.7661,2.7114,2.6652,2.6141,2.5154,2.4549,2.4164,2.3963,2.3909,2.3794,2.3386,2.3439,2.3749,2.427,2.4283,2.4203,2.4425,2.4673,2.5048,2.5713,2.6213,2.6824,2.7762,2.7935,2.8263,2.927,2.9838,3.0319,3.0799,3.1254,3.1756,3.2306,3.2813,3.3487,3.4562,3.5109,3.5796,0.0,3.6979,3.742,3.8459,3.855,3.878,3.9262,3.9285,3.9285,3.9308,3.9626,3.9919,4.0194,4.0537,4.1118,4.1942,4.1971,4.226,4.2789,4.3241,4.3481,4.3529,4.4027,4.4453,4.4792,4.5098,4.5434,4.5793,4.6125,4.6271,4.6271,4.6245,4.622,4.625,0.0,0.0,0.0,0.0,0.0,0.0,0.0,0.0,0.0,0.0,0.0,0.0,0.0,0.0,0.0,0.0,1.4824,1.5673,1.6775,1.7833,1.8837,1.9795,2.0902,2.2023,2.3095,2.4245,2.5232,2.6108,2.6951,2.7692,2.8344,2.8534,2.8843,2.9227,2.9584,2.9735,2.976,3.0156,3.0005,2.9484,2.9484,2.8885,2.803,2.803,2.7686,2.7109,0.0,2.6142,2.5784,2.5431,2.4823,2.42,2.4127,2.4018,2.3881,2.379,2.4081,2.4442,2.4502,2.4685,2.4883,2.4945,2.5494,2.6105,2.6301,2.6977,2.7609,2.7936,2.8287,2.8747,2.9381,2.9882,3.0362,3.0821,3.1586,3.2285,3.2792,3.3273,3.3944,3.5027,3.563,0.0,0.0,0.0,0.0,3.8527,3.8872,3.9124,3.9285,3.9308,3.9397,3.9626,3.9896,4.0382,4.1058,4.138,4.1878,4.2525,4.2862,4.3096,4.3289,4.3787,4.4027,4.4051,4.446,4.481,4.5178,4.5483,4.5817,4.612,4.6266,4.6301,4.6301,4.6301,4.6446,4.6626,0.0,0.0,0.0,0.0,0.0,0.0,0.0,0.0,0.0,0.0,0.0,0.0,0.0,0.0,0.0,0.0,0.0,1.4984,1.6024,1.7012,1.8025,1.9046,2.0276,2.1353,2.2167,2.3526,2.4543,2.5139,2.6221,2.6913,2.7219,2.7692,2.7994,2.8122,2.8455,2.8605,2.8631,2.9026,2.8976,2.8605,2.8531,2.8108,2.7496,2.7415,2.7052,0.0,2.6214,2.5761,2.5313,2.5313,2.4823,2.42,2.42,2.4187,2.4257,2.4649,2.4937,2.5147,2.5126,2.5329,2.5572,2.5665,2.6147,2.6693,2.702,2.7565,2.8045,2.8243,2.868,2.9185,2.9663,3.0144,3.0603,3.1083,3.1848,3.2573,3.3032,3.3513,3.4159,3.5135,3.5821,3.6567,0.0,0.0,0.0,3.8803,3.9124,3.9308,3.9308,3.9308,3.9455,3.9773,4.0235,4.0816,4.1496,4.2011,4.2549,4.3078,4.3553,4.3787,4.3787,4.4148,4.4378,4.4501,4.4717,4.5055,4.5514,4.5696,4.5999,4.6301,4.6301,4.6301,4.6301,4.6421,4.6626,4.6806,0.0,0.0,0.0,0.0,0.0,0.0,0.0,0.0,0.0,0.0,0.0,0.0,0.0,0.0,0.0,0.0,0.0,0.0,1.5518,1.6112,1.6915,1.8084,1.9723,2.0687,2.0869,2.2352,2.3492,2.4218,2.5307,2.6082,2.6599,2.7515,2.7946,2.7946,2.7971,2.7971,2.7971,2.8047,2.8047,2.7985,2.7827,2.76,2.7379,2.7169,2.6668,2.6069,2.6069,2.5504,2.4801,2.4801,2.4549,2.4223,2.4223,2.4498,2.4964,2.5837,2.5971,2.5907,2.6149,2.6242,2.6312,2.6561,2.6649,2.6889,2.7783,2.8023,2.8177,2.8705,2.9163,2.9642,3.0122,3.0581,3.1061,3.1516,3.2066,3.2595,3.3032,3.3508,3.412,3.4908,3.5725,3.6505,0.0,0.0,0.0,3.9262,0.0,3.9308,3.9308,3.9308,3.9478,3.9848,4.0616,4.117,4.162,4.2472,4.3102,4.3553,4.4075,4.4285,4.4285,4.4285,4.447,4.481,4.481,4.5208,4.5787,4.5817,4.5999,4.6301,4.6301,4.6301,4.6361,4.6686,4.6836,4.6866,0.0,0.0,0.0,0.0,0.0,0.0,0.0,0.0,0.0,0.0,0.0,0.0,0.0,0.0,0.0,0.0,0.0,0.0,1.4441,1.5708,1.6622,1.7119,1.8695,1.9816,2.0301,2.1469,2.2422,2.3114,2.4188,2.4779,2.4902,2.5403,2.5645,2.567,2.6063,2.6239,2.6289,2.7143,2.7197,2.6713,2.7069,2.6737,2.6073,2.6037,2.5797,2.5498,2.5391,2.5129,2.4801,2.4801,2.4782,2.471,2.471,2.5329,2.605,2.6101,2.6341,2.6599,2.6528,2.661,2.6751,2.6797,2.7239,2.7696,2.7936,2.8309,2.8638,2.8771,2.9163,2.9642,3.0122,3.0581,3.1061,3.1516,3.2328,3.2967,3.3076,3.3814,3.4493,3.4952,3.5817,3.663,3.7315,3.8196,0.0,0.0,3.9308,3.9308,3.9308,3.9308,3.9735,4.0639,4.0898,4.1644,4.3,4.3612,4.3979,4.41,4.4213,4.4285,4.4285,4.4285,4.447,4.481,4.5055,4.5422,4.5817,4.6059,4.621,4.6301,4.6301,4.6476,4.6686,4.6776,4.7078,4.7468,0.0,0.0,0.0,0.0,0.0,0.0,0.0,0.0,0.0,0.0,0.0,0.0,0.0,0.0,0.0,0.0,0.0,0.0,0.0,1.486,1.5695,1.6163,1.7704,1.8765,1.927,2.0399,2.1256,2.1779,2.2759,2.3369,2.3615,2.4197,2.4566,2.4816,2.5118,2.5243,2.5293,2.587,2.5885,0.0,0.0,2.5357,2.4883,2.4839,2.4678,2.453,2.4682,2.4714,2.4634,2.4562,2.4705,2.4939,2.5169,2.585,2.6496,2.6585,2.6819,2.701,2.6923,2.7004,2.7145,2.7326,2.7699,2.8045,2.8309,2.8594,2.8792,2.8792,2.9338,2.9882,3.0166,3.0756,3.1276,3.156,3.2437,3.3098,3.3098,3.3901,3.459,3.4758,3.5757,3.662,3.7137,3.8163,3.893,0.0,3.9308,3.9308,3.9308,3.9515,4.0065,4.0945,4.1445,4.2384,4.3835,4.4148,4.4285,4.4285,4.4285,4.4285,4.4285,4.444,4.4687,4.5055,0.0,4.5696,4.6029,4.621,4.6301,4.6301,4.6451,4.6626,4.6836,4.7108,4.7409,4.7733,0.0,0.0,0.0,0.0,0.0,0.0,0.0,0.0,0.0,0.0,0.0,0.0,0.0,0.0,0.0,0.0,0.0,0.0,0.0,0.0,1.4566,1.5275,1.6713,1.7648,1.7986,1.923,2.0055,2.0379,2.1316,2.2016,2.2484,2.3299,2.3929,2.4365,2.4365,2.4349,2.4333,2.4364,2.4334,2.4294,2.4067,2.4009,2.3976,0.0,2.3644,2.3542,2.4055,2.4284,2.4325,2.4232,2.4568,2.5077,2.5536,2.6106,2.6677,2.7052,2.717,2.7181,2.7283,2.7336,2.7475,2.7941,2.8091,2.8221,2.8682,2.8792,2.8769,2.8746,2.9441,3.0071,3.0087,3.0805,3.1436,3.148,3.2359,3.3044,3.3044,3.3874,3.4507,3.4507,3.5593,3.6476,3.6799,3.7988,3.8871,3.9219,3.9279,3.9331,3.94,3.9843,4.0442,4.121,4.2265,4.3305,4.4285,4.4285,4.4285,4.4285,4.4285,4.4316,4.4378,4.4656,4.5025,4.5392,0.0,0.0,4.6301,4.6301,4.6331,4.6391,4.6686,4.6866,4.6959,4.7497,4.7733,4.7821,0.0,0.0,0.0,0.0,0.0,0.0,0.0,0.0,0.0,0.0,0.8452,0.0,0.0,0.0,0.0,0.0,0.0,0.0,0.0,0.0,0.0,1.4786,1.5864,1.6606,1.6863,1.8193,1.8993,1.9277,2.0545,2.1186,2.1299,2.1727,2.1985,2.2071,2.2071,2.2013,2.1973,2.2824,2.3013,2.2863,2.3677,2.3943,2.381,2.3628,0.0,0.0,2.3739,2.3717,2.3667,2.4062,2.482,2.5582,2.5673,2.6339,2.7055,2.6983,2.6964,2.6994,2.7241,2.7453,2.7745,2.8209,2.8513,2.8682,2.8771,2.8792,2.8745,2.8511,2.8919,2.9341,2.951,2.9995,3.0508,3.0867,3.1985,3.2749,3.2749,3.3764,3.4507,3.4507,3.5444,3.6187,3.6476,3.7687,0.0,0.0,0.0,3.9492,3.9935,4.005,4.0766,4.2292,4.3429,4.4096,4.4285,4.4285,4.4285,4.4285,4.4285,4.444,4.4717,4.4779,4.5147,4.5726,4.5757,0.0,4.6301,4.6301,4.6451,4.6716,4.6776,4.7108,4.7556,4.7674,4.788,4.8143,0.0,0.0,0.0,0.0,0.0,0.0,0.0,0.0,0.0,0.0,0.8353,0.8575,0.0,0.0,0.0,0.0,0.0,0.0,0.0,0.0,0.0,0.0,0.0,0.0,1.6125,1.7198,1.7851,1.8068,0.0,1.9575,2.0221,2.0451,2.0845,2.1395,2.1395,2.1311,2.122,2.1637,2.1712,2.1612,2.2046,2.2309,2.2392,0.0,0.0,0.0,2.2766,2.3035,2.3453,2.37,2.4402,2.5234,2.5585,2.6142,2.6661,2.6853,2.6841,2.6854,2.7363,2.7611,2.7856,2.8449,2.8709,2.8746,2.8628,2.8605,2.8535,2.8233,2.8571,2.9015,2.9341,2.9781,3.0249,3.0738,3.1721,3.2507,3.2669,3.362,3.4426,3.4812,3.5517,3.6209,3.6772,3.7784,3.8507,3.8782,0.0,3.982,4.0103,4.0935,4.1868,4.295,4.3831,4.4285,4.4285,4.4285,4.4285,4.4285,4.4285,4.447,4.481,4.4994,4.5331,4.5817,4.5969,0.0,4.6301,4.6506,4.6656,4.6836,4.7138,4.7438,4.7733,4.7909,4.8172,4.8489,0.0,0.0,0.0,0.0,0.0,0.0,0.0,0.7935,0.8039,0.8147,0.8301,0.8475,0.8683,0.8876,0.9216,0.0,0.0,0.0,0.0,0.0,0.0,0.0,0.0,0.0,0.0,0.0,0.0,1.7026,1.7412,0.0,0.0,0.0,0.0,0.0,2.067,2.0637,2.0524,2.059,2.0603,0.0,0.0,2.0705,0.0,0.0,0.0,0.0,0.0,2.245,2.3217,2.3291,2.3841,2.4585,2.5222,2.5691,2.6142,2.6621,2.6655,2.6648,2.7302,2.7546,2.7789,2.8465,2.868,2.8675,2.8441,2.8371,2.8254,2.7974,2.8201,2.86,2.9123,2.9546,2.999,3.0535,3.1482,3.221,3.2453,3.3427,3.4343,3.5032,3.562,3.6297,3.7016,3.7911,0.0,3.8693,0.0,0.0,4.0395,4.1884,4.2926,4.3302,4.395,4.4285,4.4285,4.4285,4.4285,4.4285,4.4378,4.4594,4.4933,4.5239,4.5574,4.5908,4.618,0.0,0.0,4.6656,4.6836,4.693,4.7497,4.7736,4.785,4.8172,4.846,4.8721,0.0,0.0,0.0,0.0,0.0,0.0,0.0,0.7873,0.7992,0.8028,0.8234,0.8475,0.8683,0.8876,0.9095,0.0,0.0,0.0,0.0,0.0,0.0,0.0,0.0,0.0,0.0,0.0,0.0,1.6468,1.7219,0.0,0.0,0.0,0.0,0.0,0.0,1.8767,1.8714,1.9672,0.0,0.0,0.0,0.0,0.0,0.0,0.0,0.0,0.0,2.2154,2.2565,2.2984,2.3397,2.3805,2.4356,2.5108,2.5883,2.6168,2.6261,2.6288,2.6626,2.702,2.7458,2.7959,2.8256,2.8418,2.8395,2.8209,2.7951,2.7691,2.7662,2.7884,2.8541,2.8699,2.901,2.9927,3.1082,3.1852,3.1879,3.3151,3.4287,3.4797,3.5526,3.618,3.6713,3.7762,3.841,3.844,0.0,0.0,4.1429,4.2607,4.3279,4.3295,4.395,4.4285,4.4285,4.4285,4.4285,4.4285,4.4625,4.4933,4.527,4.5605,4.5939,4.6266,4.6271,0.0,0.0,4.6656,4.6959,4.7205,4.7586,4.788,4.8172,4.8518,4.8663,4.8779,0.0,0.0,0.0,0.0,0.0,0.0,0.0,0.7863,0.7992,0.7992,0.8224,0.8475,0.8683,0.8876,0.9078,0.0,0.0,0.0,0.0,0.0,0.0,0.0,0.0,0.0,0.0,0.0,1.5361,1.5381,1.6129,0.0,0.0,0.0,0.0,0.0,0.0,1.7922,1.7823,1.8245,0.0,0.0,0.0,0.0,0.0,0.0,0.0,0.0,0.0,0.0,2.2032,2.237,2.2724,2.3134,2.3917,2.4554,2.5118,2.5623,2.5894,2.6121,2.6496,2.6846,2.7235,2.769,2.7982,2.8115,2.7972,2.7854,2.7691,2.7476,2.7428,2.7651,2.8442,2.8582,2.8918,2.9849,3.0867,3.1606,3.177,3.2957,3.4168,3.51,3.57,3.6289,3.7055,0.0,3.8807,3.9757,0.0,0.0,4.1994,4.2832,4.3295,4.3295,4.395,4.4285,4.4285,4.4285,4.4409,4.4594,4.4748,4.5086,4.5605,4.5726,4.5969,4.6301,4.6301,0.0,0.0,4.693,4.7231,4.753,4.788,4.8227,4.8518,4.8635,4.8924,4.9297,0.0,0.0,0.0,0.0,0.0,0.0,0.7701,0.7863,0.7992,0.7992,0.8255,0.8506,0.8683,0.8916,0.9118,0.9298,0.0,0.0,0.0,0.0,0.0,0.0,0.0,0.0,0.0,0.0,1.4447,1.4447,1.5204,1.5822,0.0,0.0,1.6697,1.706,0.0,0.0,0.0,0.0,0.0,0.0,0.0,0.0,0.0,0.0,0.0,0.0,0.0,0.0,0.0,0.0,0.0,2.265,2.347,2.3911,2.4318,2.507,2.5534,2.5867,2.6129,2.6433,2.6774,2.7269,2.7537,2.7687,2.7623,2.7547,2.7452,2.7214,2.7167,2.7435,2.8317,2.8482,2.8817,2.9823,3.0808,3.1463,3.1661,3.279,3.4033,3.5234,3.575,3.6377,3.7317,3.7998,3.9055,4.0693,0.0,0.0,4.2397,4.298,4.3295,4.3295,4.395,4.4285,4.4285,4.4285,4.447,4.481,4.4902,4.5239,4.5787,4.5908,4.6059,4.6326,0.0,0.0,0.0,4.7201,4.7471,4.7762,4.8198,4.8489,4.8721,4.8895,4.924,4.964,0.0,0.0,0.0,0.0,0.0,0.0,0.0,0.7863,0.7992,0.7992,0.8296,0.8551,0.8694,0.8997,0.9218,0.9298,0.0,0.0,0.0,0.0,0.0,0.0,0.0,0.0,0.0,0.0,0.0,1.392,1.4645,1.5002,1.5037,1.5564,1.5815,1.5839,0.0,0.0,0.0,0.0,0.0,0.0,0.0,0.0,0.0,0.0,0.0,0.0,0.0,0.0,0.0,0.0,0.0,0.0,0.0,2.3199,2.3589,2.4515,2.5203,2.5549,2.5295,2.5551,2.604,2.6486,2.6795,2.7119,2.7513,2.7452,2.7238,2.6972,2.69,2.7166,2.8023,2.8186,2.8594,2.9797,3.0808,3.1408,3.1408,3.2678,3.3976,3.4971,3.5634,3.6377,3.7317,3.7998,3.9055,0.0,0.0,0.0,4.2713,4.3106,4.3295,4.3295,4.395,4.4285,4.4285,4.4285,4.447,4.481,4.5147,4.5483,4.5817,4.612,4.6301,0.0,0.0,0.0,0.0,4.7438,4.7703,4.7762,4.8431,4.8692,4.875,4.9383,4.9585,4.967,0.0,0.0,0.0,0.0,0.0,0.0,0.0,0.7863,0.7992,0.7992,0.8296,0.8551,0.8694,0.8997,0.9258,0.9428,0.0,0.0,0.0,0.0,0.0,0.0,0.0,0.0,0.0,0.0,0.0,1.3429,1.4081,1.4591,1.5002,1.517,1.5444,1.5815,1.5983,1.6033,0.0,0.0,0.0,0.0,0.0,0.0,0.0,0.0,0.0,0.0,0.0,0.0,0.0,0.0,0.0,0.0,0.0,0.0,0.0,2.3769,2.436,2.4889,2.5125,2.5444,2.58,2.622,2.6408,2.6563,2.7016,2.6928,2.6736,2.664,2.6637,2.6899,2.7768,2.8081,2.8543,2.9568,3.0653,3.1408,3.1408,3.2678,3.3976,3.4971,3.6218,3.7256,0.0,0.0,3.9393,0.0,0.0,0.0,4.2768,4.3106,4.342,4.3615,4.4044,4.4285,4.4285,4.4532,4.481,4.5147,4.5483,4.5817,4.615,4.624,0.0,0.0,0.0,0.0,0.0,4.7615,4.7967,4.8402,4.8606,4.8952,4.9354,4.9528,4.9867,5.0234,0.0,0.0,0.0,0.0,0.0,0.0,0.0,0.7863,0.7992,0.7992,0.8347,0.8612,0.8694,0.9017,0.9308,0.9487,0.0,0.0,0.0,0.0,0.0,0.0,0.0,0.0,0.0,0.0,0.0,0.0,0.0,1.4008,1.4433,1.4821,1.5181,1.5527,1.5686,1.5749,0.0,0.0,0.0,0.0,0.0,0.0,1.7882,0.0,0.0,0.0,0.0,0.0,0.0,0.0,0.0,0.0,0.0,0.0,0.0,0.0,2.3675,2.4032,2.4745,2.4995,2.5177,2.5612,2.5774,2.5945,2.6391,2.6495,2.6472,2.6376,2.6352,2.6636,2.7663,2.7975,2.8462,2.9568,3.0679,3.1408,3.1408,3.2678,3.4062,3.5292,3.6717,0.0,0.0,3.8927,0.0,0.0,0.0,0.0,4.2957,4.32,4.3514,4.3982,4.4192,4.4285,4.4285,4.4625,4.4963,4.53,4.5635,4.5969,4.6301,4.6446,0.0,0.0,0.0,0.0,0.0,4.7967,4.8344,4.8721,4.8952,4.9269,4.964,4.9867,5.0178,5.0543,0.0,0.0,0.0,0.0,0.0,0.0,0.0,0.0,0.0,0.0,0.8413,0.8704,0.8714,0.9068,0.9368,0.0,0.0,0.0,0.0,0.0,0.0,0.0,0.0,0.0,0.0,0.0,0.0,1.2383,1.2947,1.3335,1.352,0.0,1.4965,1.5016,1.5488,1.5693,0.0,0.0,0.0,0.0,0.0,0.0,0.0,0.0,0.0,0.0,0.0,0.0,0.0,0.0,0.0,0.0,0.0,0.0,0.0,0.0,0.0,0.0,0.0,2.4273,2.4287,2.4756,2.5024,2.5266,2.5685,2.6127,0.0,2.6135,2.6106,2.6481,2.7658,2.7915,2.8396,2.9786,3.0801,3.1408,3.1477,3.279,3.4318,3.5882,3.7125,0.0,3.8395,3.9175,0.0,0.0,0.0,0.0,4.324,4.3326,4.3639,4.4285,4.4316,4.4347,4.4347,4.4656,4.4994,4.5331,4.5666,4.5999,4.6331,4.6656,0.0,0.0,0.0,0.0,0.0,4.8431,4.8721,4.8808,4.9383,4.964,4.9727,5.0291,5.0543,5.0655,0.0,0.0,0.0,0.0,0.0,0.0,0.0,0.0,0.0,0.0,0.847,0.8734,0.8842,0.9118,0.0,0.0,0.0,0.0,0.0,0.0,0.0,0.0,0.0,0.0,0.0,0.0,0.0,1.2258,1.2483,1.2852,1.3349,1.4107,0.0,0.0,1.5466,0.0,0.0,0.0,0.0,0.0,0.0,0.0,0.0,0.0,0.0,0.0,1.8673,1.9034,0.0,0.0,0.0,0.0,0.0,0.0,0.0,0.0,2.2634,2.29,2.3386,0.0,2.4027,2.447,2.4756,2.5013,0.0,2.5722,2.5868,2.5795,2.607,2.6561,2.7376,2.7978,2.8738,2.9974,3.0852,3.1615,3.2169,3.3841,3.5409,3.6427,3.7345,3.8162,3.8873,3.9672,0.0,0.0,0.0,4.2769,4.3271,4.3545,4.3888,4.4285,4.4563,4.4687,4.4687,4.5025,4.5361,4.5696,4.6029,4.6361,4.6686,4.6776,0.0,0.0,0.0,0.0,4.8489,4.8635,4.8981,4.9412,4.9528,4.9896,5.0291,5.0459,5.0794,5.1211,0.0,0.0,0.0,0.0,0.0,0.0,0.0,0.0,0.0,0.0,0.0,0.0,0.0,0.0,0.0,0.0,0.0,0.0,0.0,0.0,0.0,0.0,0.0,0.0,0.0,1.1986,0.0,0.0,0.0,1.2642,0.0,0.0,0.0,0.0,1.5323,0.0,0.0,0.0,0.0,0.0,1.63,0.0,0.0,0.0,0.0,0.0,1.854,1.879,0.0,1.969,2.0189,2.0569,0.0,0.0,0.0,0.0,2.2332,2.2593,2.2971,2.3369,2.3727,2.3967,2.4326,2.4677,2.4936,2.5369,2.5776,2.5971,2.623,2.6707,2.7725,2.825,2.8926,3.0218,3.1077,3.2057,3.3388,3.469,3.5866,3.6838,3.765,3.8439,0.0,0.0,0.0,0.0,0.0,4.2949,4.3295,4.3639,4.395,4.4285,4.4625,4.481,4.481,4.53,4.5635,4.5817,4.6301,4.6626,4.6806,4.7078,4.7379,0.0,0.0,0.0,4.8721,4.901,4.9326,4.964,4.9896,5.0206,5.0543,5.0822,5.1128,5.1459,0.0,0.0,0.0,0.0,0.0,0.0,0.0,0.0,0.0,0.0,0.0,0.0,0.0,0.0,0.0,0.0,0.0,0.0,0.0,0.0,0.0,0.0,0.0,0.0,1.1812,1.1986,1.214,1.2171,0.0,0.0,0.0,0.0,1.4277,0.0,0.0,0.0,0.0,0.0,0.0,0.0,1.6231,0.0,0.0,0.0,0.0,0.0,0.0,0.0,0.0,1.9539,1.9935,2.0076,2.048,0.0,0.0,0.0,0.0,0.0,2.264,2.3074,2.3448,2.3549,2.3983,2.441,2.4492,2.5132,2.5835,2.6289,2.6495,2.6946,2.825,2.864,2.9213,3.0576,3.1577,3.281,3.4633,3.5352,3.6092,3.7163,3.7963,0.0,0.0,0.0,0.0,0.0,0.0,4.3012,4.3357,4.3678,4.4044,4.4378,4.4687,4.4902,4.4963,4.5514,4.5848,4.5969,4.6536,4.6866,4.693,4.7468,4.7762,0.0,0.0,0.0,4.8866,4.9412,4.9641,4.981,5.0291,5.0571,5.0711,5.1211,5.1431,5.1596,0.0,0.0,0.0,0.0,0.0,0.0,0.0,0.0,0.0,0.0,0.0,0.0,0.0,0.0,0.0,0.0,0.0,0.0,0.0,0.0,0.0,0.0,0.0,1.1812,1.1812,1.1986,1.2113,1.2122,1.2162,1.2487,1.305,1.3632,1.4395,1.5241,1.5164,0.0,0.0,0.0,0.0,0.0,1.6381,0.0,0.0,0.0,0.0,0.0,0.0,0.0,0.0,1.9361,1.9796,2.0024,2.0144,0.0,0.0,0.0,0.0,0.0,2.2097,2.2601,2.3245,2.3638,2.4085,2.4512,2.4906,2.5371,2.5835,2.6289,2.6861,2.7509,2.8336,2.9303,3.024,3.1147,3.2777,3.4246,3.5265,0.0,3.6852,3.7671,0.0,3.8889,0.0,0.0,0.0,0.0,0.0,4.3389,4.3732,4.4044,4.4378,4.4717,4.5055,4.5361,4.5635,4.5757,4.609,4.6656,4.6746,4.7078,4.7556,4.7674,4.7997,0.0,0.0,4.8981,4.9497,4.9556,4.9896,5.0347,5.0459,5.0822,5.1294,5.1377,5.1678,5.2168,0.0,0.0,0.0,0.0,0.0,0.0,0.0,0.0,0.0,0.0,0.0,0.0,0.0,0.0,0.0,0.0,0.0,0.0,0.0,0.0,0.0,0.0,1.1599,1.1812,1.1812,1.1986,1.2104,1.2104,1.2408,1.2871,1.3463,1.4262,1.4847,1.5199,1.5119,1.5097,1.5097,0.0,0.0,0.0,0.0,0.0,0.0,0.0,0.0,0.0,0.0,0.0,0.0,0.0,1.9544,1.9588,1.9973,0.0,0.0,0.0,0.0,0.0,2.1936,2.2479,2.3257,2.3942,2.4254,2.4531,2.4984,2.5605,2.6236,2.6822,2.7382,2.8109,2.9209,2.9862,3.0641,3.1994,3.3522,3.4841,3.5656,3.6457,3.7266,0.0,0.0,0.0,0.0,0.0,0.0,0.0,0.0,0.0,4.3771,4.4106,4.444,4.4779,4.5117,4.5453,4.5787,4.615,4.6506,4.6806,4.6959,4.7261,4.7733,4.8084,4.8402,4.8721,0.0,4.9354,4.964,4.9952,5.0234,5.0543,5.0878,5.1183,5.1459,5.1733,5.2195,5.2734,0.0,0.0,0.0,0.0,0.0,0.0,0.0,0.0,0.0,0.0,0.0,0.0,0.0,0.0,0.0,0.0,0.0,0.0,0.0,0.0,1.1205,1.1205,1.1599,1.1812,1.1812,1.1986,1.215,1.2288,1.2703,1.3271,1.3967,1.485,1.5187,1.5097,1.5097,1.5097,1.5097,1.5234,0.0,0.0,0.0,0.0,0.0,0.0,0.0,0.0,0.0,0.0,0.0,0.0,0.0,0.0,0.0,0.0,0.0,2.0619,2.1351,2.1915,2.1915,2.2578,2.3454,2.4196,2.4391,2.459,2.5258,2.5923,2.6624,2.7388,2.7972,2.8739,2.9957,3.0499,3.1311,3.3055,3.4246,3.5273,3.6151,3.6927,3.7681,3.8582,0.0,0.0,0.0,0.0,0.0,0.0,0.0,0.0,4.3919,4.423,4.4563,4.4902,4.5239,4.5605,4.6029,4.6536,4.6836,4.69,4.7201,4.7471,4.785,4.8431,4.8721,4.8808,4.9383,4.967,4.9867,5.0291,5.0599,5.0766,5.1238,5.1487,5.1651,5.2222,5.2707,5.3136,0.0,0.0,0.0,0.0,0.0,0.0,0.0,0.0,0.0,0.0,0.0,0.0,0.0,0.0,0.0,0.0,0.0,0.0,0.0,0.0,1.1205,1.1205,1.1599,1.1812,1.1812,1.1986,1.2348,1.2841,1.2887,1.3416,1.4372,1.4866,1.5108,1.5097,1.5097,1.5097,1.5119,1.5624,1.6129,0.0,0.0,0.0,0.0,0.0,0.0,0.0,0.0,0.0,0.0,0.0,0.0,0.0,0.0,0.0,1.9911,2.0466,2.1231,2.1915,2.1915,2.2814,2.3848,2.4274,2.4391,2.4723,2.6016,2.6348,2.6722,2.7809,2.8633,2.9359,3.0072,3.1388,3.2867,3.4404,3.51,3.583,3.6957,0.0,3.8252,0.0,0.0,0.0,0.0,0.0,0.0,0.0,0.0,0.0,4.4254,4.4594,4.4933,4.5239,4.5574,4.6059,4.6716,4.6776,4.693,4.7176,4.7501,4.785,4.8198,4.8548,4.8837,4.9096,4.9469,4.9924,5.0431,5.0487,5.085,5.1349,5.1377,5.1706,5.2194,5.2814,5.3054,5.316,0.0,0.0,0.0,0.0,0.0,0.0,0.0,0.0,0.0,0.0,0.0,0.0,0.0,0.0,0.0,0.0,0.0,0.0,0.0,0.0,1.1205,1.1205,1.1599,1.1812,1.1812,1.2328,1.2703,1.291,1.3521,1.4177,1.4832,1.5016,1.5097,1.5097,1.5097,1.5292,1.5601,1.5808,1.6371,1.7118,0.0,0.0,0.0,0.0,0.0,0.0,0.0,0.0,0.0,0.0,1.9202,1.9012,1.9593,1.9733,1.9844,2.0722,2.1406,2.1934,2.2207,2.3008,2.3887,2.4293,2.4801,2.5425,2.6211,2.6732,2.7264,2.8167,2.913,3.0186,3.1408,3.2895,3.4118,3.4712,3.5802,3.6722,3.7156,3.7933,0.0,0.0,0.0,0.0,0.0,0.0,0.0,0.0,0.0,0.0,0.0,4.4717,4.5055,4.5605,4.5726,4.612,4.6806,4.6989,4.7201,4.7501,4.7645,4.7967,4.8518,4.8808,4.9125,4.944,4.9952,5.0291,5.0543,5.0906,5.1211,5.1404,5.176,5.225,5.2787,5.3001,5.3319,5.3632,0.0,0.0,0.0,0.0,0.0,0.0,0.0,0.0,0.0,0.0,0.0,0.0,0.0,0.0,0.0,0.0,0.0,0.0,0.0,0.0,1.1205,1.1205,1.1599,1.1879,1.2054,1.2748,1.313,1.313,1.4131,1.4809,1.5153,1.5153,1.5153,1.5176,1.5349,1.5602,1.5922,1.6233,1.6774,1.7407,1.7555,1.7666,0.0,0.0,0.0,0.0,0.0,0.0,0.0,0.0,1.9168,1.9114,1.9636,1.9796,1.9988,2.0918,2.1523,2.1993,2.2402,2.3242,2.4062,2.4313,2.5152,2.6055,2.6584,2.7173,2.7879,2.8717,2.9996,3.136,3.2798,3.4012,3.4977,0.0,3.6472,3.731,3.7673,3.8454,0.0,0.0,0.0,0.0,0.0,0.0,0.0,0.0,0.0,0.0,0.0,4.4902,4.5208,0.0,4.5999,4.6391,4.693,4.7231,4.753,4.788,4.7967,4.8257,4.8692,4.9096,4.9383,4.9613,5.0234,5.0543,5.0655,5.1211,5.1514,5.1706,5.2277,5.2734,5.3136,5.3186,5.35,5.389,0.0,0.0,0.0,0.0,0.0,0.0,0.0,0.0,0.0,0.0,0.0,0.0,0.0,0.0,0.0,0.0,0.0,0.0,0.0,1.0985,1.1205,1.1205,1.1599,1.2054,1.2586,1.325,1.3603,1.3626,1.4626,1.5165,1.5301,1.5301,1.5301,1.5324,1.5858,1.6019,1.5968,1.698,1.7407,1.7453,1.7905,1.7934,0.0,0.0,0.0,0.0,0.0,0.0,0.0,0.0,1.9396,1.9538,1.9754,1.9977,2.0326,2.1016,2.1543,2.1993,2.2402,2.3435,2.4391,2.4391,2.541,2.6579,2.7249,2.7762,2.8442,2.9581,3.1265,3.2875,3.4068,3.4583,0.0,3.6964,3.7207,3.7569,3.8655,0.0,0.0,0.0,0.0,0.0,0.0,0.0,0.0,0.0,0.0,0.0,0.0,4.5117,4.5453,0.0,4.6476,4.693,4.7205,4.753,4.788,4.8201,4.8548,4.8692,4.8721,4.9326,4.9585,4.9641,5.0234,5.0655,5.0934,5.1266,5.1706,5.2248,5.2867,5.308,5.3133,5.3398,5.3684,5.3916,0.0,0.0,0.0,0.0,0.0,0.0,0.0,0.0,0.0,0.0,0.0,0.0,0.0,0.0,0.0,0.0,0.0,0.0,0.0,1.1023,1.1205,1.1205,1.1944,1.2442,1.2596,1.3625,1.4304,1.4672,1.5049,1.5267,1.5301,1.539,1.5635,1.601,1.6068,1.6474,1.7095,1.7318,1.7588,1.7905,1.8029,1.7934,1.7745,0.0,0.0,0.0,0.0,0.0,0.0,0.0,0.0,0.0,1.968,1.9884,2.0213,2.1368,2.1777,2.2109,2.3144,2.3906,2.4492,2.4828,2.5859,2.6931,2.7329,2.8155,2.9399,3.1299,3.2581,3.3621,3.4475,3.5461,0.0,3.7104,3.7673,0.0,0.0,0.0,0.0,0.0,0.0,0.0,0.0,0.0,0.0,0.0,0.0,0.0,0.0,4.5483,0.0,0.0,4.6596,4.693,4.7205,4.753,4.7997,4.8548,4.8837,4.8981,4.901,4.9412,4.9839,5.0234,5.0627,5.0961,5.1294,5.1788,5.2195,5.26,5.2947,5.3213,5.3424,5.3684,5.3971,5.4226,0.0,0.0,0.0,0.0,0.0,0.0,0.0,0.0,0.0,0.0,0.9208,0.0,0.0,0.0,0.0,0.0,0.0,0.0,0.0,0.0,1.1205,1.1205,1.2108,1.2828,1.3293,1.4205,1.4832,1.5176,1.5267,1.5357,1.5458,1.5725,1.6031,1.6338,1.6691,1.7132,1.7599,1.7742,1.7917,1.8098,1.8098,1.8047,1.8,0.0,0.0,0.0,0.0,0.0,0.0,0.0,0.0,0.0,1.9723,1.9966,2.0391,2.1543,2.1915,2.2189,2.3437,2.4102,2.4547,2.5176,2.6191,2.729,2.8396,2.9273,3.0364,3.2142,3.3275,3.4161,3.4941,3.6063,0.0,3.7592,3.8335,0.0,0.0,0.0,0.0,0.0,0.0,0.0,0.0,0.0,0.0,0.0,0.0,0.0,0.0,4.5696,0.0,0.0,4.681,4.7112,4.7383,4.788,4.8315,4.8692,4.9125,4.9297,4.9326,4.9613,5.0037,5.0543,5.0934,5.1349,5.176,5.2222,5.2573,5.2894,5.316,5.3424,5.3684,5.3841,5.4152,5.4513,0.0,0.0,0.0,0.0,0.0,0.0,0.0,0.0,0.0,0.0,0.9268,0.9418,0.0,0.0,0.0,0.0,0.0,0.0,0.0,0.0,1.1214,1.1276,1.2196,1.3262,1.4453,1.4878,1.5165,1.5323,1.5323,1.5471,1.5765,1.6205,1.6479,1.661,1.7561,1.7882,1.7718,1.8197,1.8298,1.8166,1.8166,1.8297,1.847,1.8515,0.0,0.0,0.0,0.0,0.0,0.0,0.0,0.0,1.9827,2.0184,2.0781,2.1641,2.1915,2.2189,2.3496,2.4121,2.4625,2.5542,2.649,2.7767,3.0015,3.0776,3.1326,3.2427,3.3593,3.4624,3.5466,3.6531,3.7495,3.8283,0.0,0.0,0.0,0.0,0.0,0.0,0.0,0.0,0.0,0.0,0.0,0.0,0.0,0.0,0.0,4.5848,0.0,4.6776,4.7083,4.7383,4.7703,4.8373,4.8692,0.0,4.9326,4.9613,4.967,4.9925,5.0263,5.0627,5.1211,5.1733,5.2221,5.2573,5.2867,5.3136,5.3398,5.3658,5.3919,5.3945,5.4282,5.4803,0.0,0.0,0.0,0.0,0.0,0.0,0.0,0.0,0.0,0.0,0.0,0.0,0.0,0.0,0.0,0.0,0.0,0.0,0.0,0.0,1.1411,1.1891,1.3054,1.41,1.4936,1.5051,1.5221,1.5457,1.5457,1.5737,1.6254,1.6466,1.7003,1.7819,1.7932,1.8135,1.8394,1.839,1.852,1.8736,1.8736,1.8848,1.9067,1.9455,1.9508,0.0,0.0,0.0,0.0,0.0,0.0,0.0,2.004,2.0346,2.0781,2.1641,2.1915,2.2267,2.3848,2.4332,2.4684,2.5937,2.7507,2.9046,3.0238,3.1159,3.2162,3.3628,3.4465,3.5253,3.6228,3.7154,3.7887,3.8328,0.0,0.0,0.0,0.0,0.0,0.0,0.0,0.0,0.0,0.0,0.0,0.0,0.0,0.0,4.5787,0.0,0.0,4.6806,4.732,4.7645,4.7703,4.8373,4.8808,0.0,4.9412,4.9867,5.0291,5.0347,5.0683,5.1238,5.1569,5.1896,5.2221,5.2573,5.2867,5.3136,5.3398,5.3658,5.3945,5.4149,5.4462,5.4828,0.0,0.0,0.0,0.0,0.0,0.0,0.0,0.0,0.0,0.0,0.0,0.0,0.0,0.0,0.0,0.0,0.0,0.0,0.0,0.0,0.0,0.0,1.3659,1.4338,1.5074,1.5097,1.5348,1.5891,1.5891,1.609,1.6502,1.7099,1.7664,1.8205,1.8392,1.8694,1.9071,1.8907,1.9044,1.9365,1.9307,1.9394,1.9567,1.9798,1.9824,1.9754,1.9902,0.0,0.0,0.0,0.0,0.0,0.0,0.0,2.1016,2.17,2.2052,2.2519,2.4004,2.4391,2.4762,2.6309,2.8099,2.9662,3.0346,3.1296,3.2495,3.4315,3.4907,3.5433,3.6491,3.7509,3.8201,3.838,0.0,0.0,0.0,0.0,0.0,0.0,0.0,0.0,0.0,0.0,0.0,0.0,0.0,4.5696,4.6029,4.6511,4.684,4.6989,4.7468,4.785,4.8198,4.8663,4.9039,4.9354,4.9641,5.0095,5.0711,5.085,5.11,5.1404,5.1842,5.214,5.2465,5.2761,5.3054,5.3319,5.3451,5.3736,5.4097,5.4252,5.459,5.5032,0.0,0.0,0.0,0.0,0.0,0.0,0.0,0.0,0.0,0.0,0.0,0.0,0.0,0.0,0.0,0.0,0.0,0.0,0.0,0.0,0.0,0.0,1.4093,1.4428,1.5097,1.5097,1.5487,1.6303,1.6397,1.6598,1.6907,1.7784,1.8253,1.835,1.8892,1.9316,1.9594,1.9484,1.9679,2.0029,1.9889,1.9916,2.0044,2.0133,0.0,2.0254,2.0377,2.0428,2.0388,2.0229,0.0,0.0,0.0,0.0,2.1288,2.1717,2.2125,2.2728,2.3994,2.4582,2.5191,2.6635,2.841,2.9916,3.0387,3.1296,3.2586,3.4684,3.5099,3.5476,3.6667,3.7732,3.841,3.847,0.0,0.0,0.0,0.0,0.0,0.0,0.0,0.0,0.0,0.0,0.0,0.0,0.0,4.5969,4.6386,4.6691,4.7019,4.7265,4.7589,4.8084,4.8692,4.8981,4.9269,4.9585,4.9982,5.0432,5.0906,5.1294,5.1459,5.1486,5.2005,5.2411,5.2734,5.2974,5.3266,5.3474,5.3474,5.3841,5.4304,5.4304,5.4692,5.5179,0.0,0.0,0.0,0.0,0.0,0.0,0.0,0.0,0.0,0.0,0.9655,0.0,0.0,0.0,0.0,0.0,0.0,0.0,1.1778,0.0,0.0,1.3992,1.444,1.4812,1.5097,1.5097,1.5487,1.6303,1.6774,1.7322,1.7976,1.812,1.8446,1.8916,1.9445,1.9665,1.9632,1.9875,2.0223,2.0578,2.0381,2.0417,2.0629,0.0,0.0,2.0805,2.0886,2.0917,2.0857,2.0557,2.0462,0.0,0.0,0.0,2.1247,2.1471,2.1872,2.2532,2.3786,2.5382,2.6693,2.6928,2.841,2.9916,3.0387,3.1296,3.2586,3.4684,3.5099,3.565,3.7404,3.8096,3.85,3.8693,0.0,0.0,0.0,0.0,0.0,0.0,0.0,0.0,0.0,0.0,0.0,0.0,4.5757,4.6059,4.6716,4.6993,4.7294,4.7619,4.7967,4.8315,4.8692,4.8981,4.9269,4.9613,5.0404,5.0823,5.0934,5.1486,5.1732,5.1759,5.2059,5.2411,5.2734,5.2974,5.3266,5.3474,5.3474,5.3841,5.4304,5.4304,5.4692,5.5179,0.0,0.0,0.0,0.0,0.0,0.0,0.0,0.0,0.0,0.0,0.0,1.0416,0.0,0.0,0.0,1.1419,1.1726,1.2163,1.2765,1.3368,1.3916,1.4429,1.4664,1.488,1.5097,1.5395,1.5927,1.6751,1.7257,1.7892,1.8638,1.8964,1.9229,1.9445,0.0,0.0,2.0605,2.057,2.0822,2.1245,2.1242,2.1173,0.0,0.0,0.0,0.0,0.0,0.0,2.134,2.1007,2.1026,2.1189,2.0997,0.0,0.0,0.0,2.2197,2.2777,2.3821,2.5514,2.6986,2.6986,2.841,2.9916,3.0387,3.1296,3.2495,3.4294,3.4886,3.5612,3.7311,3.8028,3.844,3.8567,3.9605,0.0,0.0,0.0,0.0,0.0,0.0,0.0,0.0,0.0,0.0,0.0,4.5969,4.6271,4.6776,4.7053,4.7353,4.7703,4.8201,4.8606,4.8924,4.924,4.964,5.0122,5.0656,5.0989,5.1211,5.1595,5.1787,5.1814,5.2275,5.2573,5.2734,5.316,5.3398,5.35,5.3658,5.3942,5.4329,5.4513,5.4849,5.5179,0.0,0.0,0.0,0.0,0.0,0.0,0.0,0.0,0.0,0.0,0.0,0.0,0.0,0.0,0.0,0.0,1.2347,1.2836,1.3636,1.3837,1.4182,1.4777,1.4811,1.4994,1.5303,1.5705,1.6344,1.7269,1.762,1.8211,1.9012,1.9542,1.9879,0.0,2.0143,2.0605,0.0,0.0,2.1479,2.1838,2.2042,0.0,0.0,0.0,0.0,0.0,0.0,0.0,0.0,0.0,0.0,2.191,2.1507,2.1893,0.0,0.0,0.0,2.3076,2.3798,2.5339,2.6773,2.6967,2.8179,2.9554,3.0319,3.1138,3.2203,3.3939,3.4622,3.5361,3.6935,3.7872,3.841,3.8477,3.9393,0.0,0.0,0.0,0.0,0.0,0.0,0.0,0.0,0.0,0.0,0.0,4.615,4.6481,4.687,4.7112,4.7383,4.7821,4.8402,4.8808,4.9096,4.9499,4.998,5.0515,5.0767,5.11,5.1432,5.1706,5.1841,5.1923,5.2492,5.2707,5.2734,5.3292,5.3474,5.3556,5.3815,5.4045,5.4329,5.4671,5.4981,5.5179,0.0,0.0,0.0,0.0,0.0,0.0,0.0,0.0,0.0,0.0,0.0,0.0,0.0,1.1791,1.1953,1.2094,1.2692,1.3376,1.4112,1.4409,1.4628,1.4799,1.4857,0.0,1.5831,1.5889,1.6506,1.7762,1.7785,1.8211,1.9012,1.9542,2.0071,2.0572,2.1076,2.1251,2.1166,0.0,0.0,0.0,0.0,0.0,0.0,0.0,0.0,0.0,0.0,0.0,0.0,0.0,0.0,0.0,0.0,2.2168,2.2413,0.0,0.0,0.0,2.363,2.4861,2.6203,2.6838,2.7596,2.8581,3.0151,3.0728,3.1594,3.3826,3.4316,3.4818,3.6426,3.765,3.85,3.8752,3.9542,4.0313,0.0,0.0,0.0,0.0,0.0,0.0,0.0,0.0,0.0,0.0,4.6271,4.6571,4.7146,4.7205,4.7501,4.8143,4.8518,4.8808,4.9096,4.967,5.015,5.0515,5.0767,5.11,5.1432,5.1706,5.1923,5.2194,5.2546,5.2707,5.2734,5.3292,5.3474,5.3556,5.3815,5.4045,5.4329,5.4671,5.4981,5.5179,0.0,0.0,0.0,0.0,0.0,0.0,0.0,0.0,0.0,0.0,0.0,0.0,0.0,1.2825,1.2951,1.3158,1.3557,1.3946,1.4315,1.4511,1.4783,1.5225,1.5343,1.5712,1.6323,1.6692,1.7166,1.7809,1.8151,1.8722,1.9518,2.0057,2.061,2.1125,2.1308,2.1658,2.2131,2.2318,0.0,0.0,0.0,0.0,0.0,0.0,0.0,0.0,0.0,0.0,0.0,0.0,0.0,0.0,0.0,0.0,0.0,2.2846,2.3305,2.3892,2.4254,2.5271,2.6384,2.6889,2.7556,2.8436,2.9742,3.0505,3.1326,3.2833,3.3777,3.4546,3.5323,3.6802,3.8007,3.8462,3.9142,3.9798,0.0,0.0,0.0,0.0,0.0,0.0,0.0,0.0,0.0,0.0,0.0,4.6222,4.6664,4.7232,4.7733,4.8172,4.8692,4.9183,4.967,4.9897,5.0235,5.0767,5.085,5.1155,5.1678,5.1759,5.195,5.2221,5.2546,5.2787,5.2974,5.3372,5.3474,5.3556,5.3815,5.4045,5.4329,5.4671,5.4981,5.5179,0.0,0.0,0.0,0.0,0.0,0.0,0.0,0.0,0.0,0.0,0.0,0.0,0.0,0.0,1.3671,1.4116,1.4551,1.4817,1.4926,1.5093,1.538,1.5779,1.5924,1.6272,1.6863,1.721,0.0,0.0,0.0,1.9173,1.982,2.0538,2.1023,2.1323,2.1673,2.213,0.0,0.0,0.0,2.3369,0.0,0.0,2.413,0.0,0.0,0.0,0.0,0.0,0.0,0.0,0.0,0.0,0.0,0.0,0.0,0.0,0.0,2.4239,2.4602,2.5363,2.6209,2.685,2.7381,2.8087,2.9474,3.018,3.0894,3.2225,3.3205,3.4047,3.4683,3.5967,3.7211,3.7999,3.8555,3.916,0.0,0.0,0.0,0.0,0.0,0.0,0.0,0.0,0.0,0.0,0.0,0.0,4.61,4.6963,4.7756,4.8463,4.8895,4.9412,4.9982,5.001,5.0292,5.0906,5.0906,5.1238,5.1787,5.1787,5.2004,5.2385,5.26,5.2841,5.3107,5.3398,5.3474,5.3556,5.3815,5.4045,5.4329,5.4671,5.4981,5.5179,0.0,0.0,0.0,0.0,0.0,0.0,0.0,0.0,0.0,0.0,0.0,0.0,0.0,0.0,0.0,1.4864,1.554,1.593,1.6006,1.6249,1.6423,1.6423,1.6559,1.6863,1.7407,0.0,0.0,0.0,0.0,0.0,0.0,0.0,2.1284,2.1175,2.225,2.2604,2.2503,0.0,2.3924,2.4269,0.0,2.5009,2.5136,0.0,0.0,0.0,2.5423,2.5828,0.0,2.5826,0.0,0.0,0.0,0.0,0.0,0.0,0.0,0.0,0.0,0.0,0.0,2.6701,2.6986,2.7473,2.934,2.9776,3.0302,3.2065,3.267,3.3251,3.4532,3.5225,3.6039,3.7336,3.7837,3.8478,3.9598,0.0,0.0,0.0,0.0,0.0,0.0,0.0,0.0,0.0,4.4882,4.5224,4.5568,4.6395,4.7568,4.9014,4.907,4.9385,4.9982,5.001,5.0292,5.0906,5.0906,5.1238,5.1787,5.1787,5.2113,5.268,5.2707,5.2841,5.3107,5.3398,5.3474,5.3556,5.3789,5.4045,5.4329,5.4671,5.4951,5.5179,0.0,0.0,0.0,0.0,0.0,0.0,0.0,0.0,0.0,0.0,0.0,0.0,0.0,0.0,0.0,1.5584,1.5829,1.6044,1.6221,1.6325,1.6582,1.6967,1.711,1.7404,1.7882,0.0,0.0,0.0,0.0,0.0,0.0,0.0,0.0,0.0,2.2587,2.3227,2.3857,2.4106,0.0,2.4733,2.5108,2.5602,0.0,0.0,0.0,0.0,0.0,2.638,2.6503,0.0,2.5531,2.5394,0.0,0.0,0.0,0.0,0.0,0.0,2.5324,0.0,0.0,0.0,0.0,0.0,2.8585,2.9333,3.0066,3.1008,3.1674,3.2374,3.3272,3.3763,3.4513,3.5988,3.6978,3.7868,3.8606,0.0,0.0,0.0,0.0,0.0,0.0,0.0,0.0,0.0,4.43,4.484,4.4925,4.6,4.7197,4.8486,4.8514,4.9011,4.9982,5.001,5.0292,5.0906,5.0906,5.1238,5.1787,5.1787,5.2004,5.2358,5.26,5.2841,5.3107,5.3398,5.3474,5.35,5.3579,5.3893,5.4304,5.4381,5.4743,5.5179,0.0,0.0,0.0,0.0,0.0,0.0,0.0,0.0,0.0,0.0,0.0,0.0,0.0,0.0,0.0,1.6341,1.6623,1.6839,1.6957,1.7279,1.7583,1.7893,1.8203,1.8483,1.8753,0.0,0.0,0.0,0.0,0.0,0.0,0.0,0.0,0.0,0.0,0.0,0.0,0.0,0.0,0.0,2.5873,0.0,0.0,2.6835,2.7129,0.0,0.0,0.0,2.7416,2.7113,2.6745,0.0,0.0,0.0,0.0,0.0,0.0,0.0,0.0,0.0,0.0,0.0,0.0,0.0,2.8284,2.9011,2.9735,3.0529,3.1127,3.171,3.2475,3.2882,3.3464,3.4588,3.5335,3.6273,3.7706,3.8273,0.0,0.0,0.0,0.0,0.0,4.1338,4.1716,4.2416,4.3326,4.4151,4.4864,4.5673,4.6675,4.7901,4.8196,4.8716,4.9602,4.9874,5.0292,5.0906,5.0906,5.1238,5.1787,5.1787,5.195,5.2221,5.2546,5.2841,5.3107,5.3398,5.3474,5.3474,5.3474,5.3841,5.4304,5.4304,5.4692,5.5179,0.0,0.0,0.0,0.0,0.0,0.0,0.0,0.0,0.0,0.0,0.0,0.0,0.0,0.0,0.0,0.0,1.7752,1.807,1.8134,1.867,0.0,0.0,0.0,0.0,0.0,0.0,0.0,0.0,0.0,0.0,0.0,0.0,0.0,0.0,0.0,0.0,0.0,0.0,0.0,2.67,2.6787,2.71,0.0,0.0,2.7964,2.8197,2.8466,2.8662,2.8849,2.8958,2.8412,0.0,0.0,0.0,0.0,0.0,2.5825,0.0,0.0,0.0,0.0,0.0,2.6685,0.0,2.8224,2.8816,2.9438,3.0426,3.0808,3.1221,3.1932,3.2362,3.2738,3.3316,3.3449,3.4338,3.6719,3.7602,0.0,0.0,0.0,0.0,3.9946,4.03,4.0821,4.1566,4.2269,4.3327,4.4908,4.5314,4.6043,4.726,4.7821,4.8421,4.9087,4.9629,5.0265,5.0906,5.0906,5.1238,5.1787,5.1787,5.1923,5.2167,5.2546,5.2841,5.3054,5.3398,5.3474,5.3474,5.3474,5.3815,5.4252,5.4304,5.4667,5.5154,0.0,0.0,0.0,0.0,0.0,0.0,0.0,0.0,0.0,0.0,0.0,0.0,0.0,0.0,0.0,0.0,0.0,1.9225,1.9486,0.0,0.0,0.0,0.0,0.0,0.0,0.0,0.0,0.0,0.0,0.0,0.0,0.0,0.0,0.0,0.0,0.0,0.0,0.0,0.0,2.7669,2.7342,0.0,2.8433,2.8538,2.8859,2.9247,2.944,2.9556,2.952,2.9137,2.8574,2.8043,0.0,0.0,0.0,0.0,0.0,0.0,0.0,0.0,0.0,0.0,0.0,0.0,2.7919,2.8776,2.96,3.0066,3.0171,3.0448,3.1173,3.1529,3.1977,3.2711,3.3231,3.3848,3.4838,3.5646,3.6464,0.0,0.0,0.0,3.9922,4.03,4.0649,4.102,4.2207,4.3185,4.3796,4.4507,4.5439,4.6621,4.6781,4.759,4.9087,4.9222,4.9828,5.0906,5.0906,5.1238,5.1787,5.1787,5.1814,5.1896,5.2465,5.2734,5.2814,5.3319,5.3474,5.3474,5.3474,5.3684,5.3993,5.4226,5.4539,5.493,0.0,0.0,0.0,0.0,0.0,0.0,0.0,0.0,0.0,0.0,0.0,0.0,0.0,0.0,0.0,0.0,0.0,0.0,0.0,0.0,0.0,0.0,0.0,0.0,0.0,0.0,0.0,0.0,0.0,0.0,0.0,0.0,0.0,0.0,0.0,0.0,0.0,0.0,2.7922,2.9047,2.8587,0.0,2.9125,2.9393,2.9642,2.9879,3.0215,3.0416,3.0389,2.9627,2.9165,0.0,0.0,2.8131,2.794,0.0,2.7352,2.7267,0.0,0.0,0.0,2.6809,0.0,0.0,0.0,2.9033,2.9597,2.9632,2.9642,2.972,3.0004,3.0286,3.0632,3.1172,3.1578,3.2012,3.2443,3.3935,3.5297,0.0,0.0,0.0,3.7923,3.8637,3.9453,4.0424,4.1805,4.2774,4.3218,4.3906,4.4834,4.6008,4.6328,4.7054,4.8246,4.8517,4.9255,5.0436,5.0436,5.0905,5.1787,5.1787,5.1787,5.1814,5.2248,5.2546,5.2734,5.3133,5.3398,5.3474,5.3474,5.3658,5.3916,5.42,5.4513,5.4854,1.4784,0.0,0.0,0.0,0.0,0.0,0.0,0.0,0.0,0.0,0.0,0.0,0.0,0.0,0.0,0.0,0.0,0.0,0.0,0.0,0.0,0.0,0.0,2.3384,0.0,0.0,0.0,0.0,0.0,0.0,0.0,0.0,0.0,0.0,0.0,0.0,0.0,0.0,0.0,3.0171,0.0,2.9868,2.9933,3.0365,3.0567,3.0608,3.113,3.1385,3.1357,3.0559,3.0252,3.0039,2.9125,2.8803,0.0,0.0,0.0,0.0,0.0,0.0,0.0,0.0,0.0,2.8623,0.0,0.0,0.0,2.9322,2.9228,2.9139,2.8944,2.9179,0.0,0.0,0.0,0.0,0.0,3.2429,0.0,3.475,0.0,0.0,0.0,3.6924,3.8146,3.968,4.1044,4.2079,4.2669,4.3409,4.4308,4.5342,4.6008,4.6625,4.7297,4.7812,4.86,4.9747,4.9912,5.0516,5.1564,5.1703,5.1787,5.1814,5.2059,5.2411,5.2734,5.2974,5.3266,5.3474,5.3474,5.3632,5.3867,5.4175,5.4487,5.4747,1.546,1.5325,0.0,0.0,0.0,0.0,0.0,0.0,0.0,0.0,0.0,0.0,0.0,0.0,0.0,0.0,0.0,0.0,2.3288,0.0,0.0,0.0,0.0,0.0,2.3478,0.0,0.0,0.0,0.0,0.0,0.0,0.0,0.0,0.0,2.5873,0.0,0.0,0.0,2.9183,0.0,3.0851,3.1141,0.0,3.1656,3.181,3.1895,3.2608,3.2693,3.2496,0.0,3.2191,3.1912,0.0,3.0958,3.0553,0.0,0.0,0.0,0.0,0.0,0.0,0.0,2.8376,0.0,0.0,0.0,2.9348,2.9286,0.0,2.8669,2.8653,0.0,0.0,0.0,0.0,0.0,3.0575,3.1044,3.1931,3.3342,0.0,0.0,0.0,3.6763,3.7638,3.8613,3.97,4.0695,4.1543,4.2835,4.3832,4.4441,4.5236,4.6116,4.6948,4.7298,4.7946,4.8871,4.9637,5.0213,5.0677,5.1453,5.1787,5.1814,5.2059,5.2411,5.2734,5.2974,5.3266,5.3474,5.3474,5.353,5.3605,5.4097,5.4329,5.4432,1.6458,1.6198,0.0,0.0,0.0,0.0,0.0,0.0,0.0,0.0,0.0,0.0,0.0,0.0,0.0,0.0,0.0,2.5075,0.0,0.0,0.0,0.0,0.0,0.0,0.0,0.0,0.0,0.0,2.4813,0.0,0.0,0.0,0.0,0.0,2.6588,0.0,2.8149,0.0,3.017,0.0,0.0,0.0,0.0,3.2737,3.2893,3.3179,3.329,3.3258,3.3124,0.0,3.2636,0.0,0.0,0.0,0.0,0.0,0.0,0.0,0.0,0.0,0.0,0.0,0.0,0.0,2.9549,0.0,2.9228,0.0,0.0,0.0,0.0,0.0,0.0,0.0,2.912,0.0,0.0,0.0,3.0471,0.0,0.0,0.0,0.0,0.0,0.0,0.0,3.8792,3.9829,4.0824,4.1905,4.2918,4.3834,4.4652,4.5367,4.5899,4.6567,4.732,4.8187,4.8701,4.9493,5.0511,5.1033,5.1477,5.1814,5.1923,5.2248,5.2707,5.2814,5.3133,5.3474,5.3474,5.3474,5.3553,5.4097,5.4304,5.4381,1.7687,0.0,0.0,0.0,0.0,0.0,0.0,0.0,0.0,0.0,0.0,0.0,2.4738,2.5129,0.0,0.0,2.6801,2.7099,0.0,0.0,2.7429,0.0,0.0,0.0,0.0,0.0,0.0,0.0,0.0,0.0,0.0,0.0,0.0,0.0,0.0,2.8151,2.916,0.0,3.0973,3.226,3.3019,3.3821,3.4549,3.3967,3.4095,3.4553,3.4338,3.4324,3.4353,3.3994,3.3688,0.0,3.3149,0.0,0.0,0.0,0.0,0.0,3.1726,0.0,0.0,0.0,0.0,0.0,0.0,0.0,0.0,0.0,0.0,0.0,0.0,0.0,0.0,0.0,0.0,2.8594,0.0,2.8669,0.0,0.0,0.0,0.0,0.0,0.0,0.0,3.6677,3.7593,3.8742,4.021,4.1029,4.1982,4.3098,4.4174,4.4807,4.5042,4.6027,4.6831,4.7451,4.788,4.8722,4.9902,5.0505,5.1058,5.1561,5.1731,5.2086,5.2573,5.2653,5.2974,5.3398,5.3477,5.3474,5.3553,5.4097,5.4304,5.4351,1.9142,1.903,0.0,0.0,0.0,0.0,0.0,0.0,0.0,0.0,0.0,0.0,0.0,0.0,0.0,0.0,0.0,2.9116,2.914,0.0,2.8797,0.0,0.0,2.7713,0.0,0.0,0.0,0.0,0.0,0.0,0.0,0.0,0.0,0.0,2.8218,2.9228,3.0147,3.017,3.1387,3.3247,3.3294,3.4489,3.614,0.0,3.5495,3.6129,3.6101,0.0,0.0,3.6767,3.6254,0.0,0.0,0.0,0.0,0.0,0.0,0.0,0.0,0.0,0.0,3.1466,0.0,0.0,0.0,0.0,2.9947,0.0,0.0,0.0,0.0,0.0,0.0,0.0,0.0,0.0,0.0,0.0,0.0,0.0,0.0,0.0,0.0,0.0,0.0,3.5547,3.5932,3.716,3.9594,4.026,4.1079,4.2212,4.3831,4.4702,4.4702,4.5895,4.6509,4.6562,4.7397,4.7963,4.8308,4.982,5.0674,5.0971,5.1561,5.195,5.2221,5.2573,5.2867,5.3133,5.3398,5.3474,5.3553,5.4097,5.4304,5.4292,0.0,0.0,0.0,0.0,0.0,0.0,0.0,2.4231,0.0,0.0,0.0,0.0,0.0,2.888,2.9548,0.0,0.0,3.0269,3.0269,3.0269,0.0,0.0,0.0,2.9476,0.0,0.0,0.0,0.0,0.0,0.0,2.8045,2.8163,0.0,0.0,0.0,2.9872,0.0,0.0,0.0,0.0,0.0,3.5864,3.6732,0.0,0.0,3.7229,3.7059,3.7116,0.0,3.6971,3.6716,3.6474,3.6295,3.5803,3.5235,3.5058,3.4466,0.0,0.0,0.0,3.2538,3.2351,0.0,0.0,0.0,0.0,0.0,0.0,0.0,0.0,0.0,0.0,0.0,0.0,0.0,0.0,0.0,0.0,0.0,0.0,0.0,0.0,0.0,0.0,0.0,3.4443,3.5273,3.6321,3.7715,3.9161,4.023,4.0786,4.244,4.359,4.4169,4.5146,4.5945,4.6509,4.6988,4.7551,4.8199,4.8932,4.9836,5.0914,5.1111,5.1584,5.2221,5.2573,5.2867,5.3078,5.2961,5.2995,5.3201,5.3586,5.3684,5.3672,2.2276,0.0,0.0,0.0,0.0,0.0,0.0,0.0,0.0,0.0,2.829,0.0,2.9881,0.0,3.1232,0.0,3.2084,3.2184,3.2184,3.2184,0.0,3.1805,3.155,0.0,0.0,0.0,0.0,0.0,0.0,2.943,2.9196,2.9122,2.9133,2.9274,0.0,3.0675,3.1134,3.265,3.3524,0.0,0.0,3.7022,0.0,0.0,3.7855,3.8068,0.0,3.7925,3.8033,3.783,3.755,3.7328,3.7328,3.6904,3.6465,3.6465,3.5854,3.5199,3.4957,3.4277,0.0,3.3441,3.2908,0.0,3.2136,0.0,0.0,0.0,0.0,0.0,0.0,0.0,0.0,0.0,0.0,0.0,0.0,2.732,0.0,0.0,0.0,0.0,0.0,3.1135,3.2061,3.3361,3.4267,3.5334,0.0,0.0,3.9201,4.0065,4.1525,4.2693,4.3583,4.464,4.5544,4.6183,4.6583,4.7144,4.7895,4.8272,4.9088,5.0241,5.0493,5.0962,5.1569,5.1917,5.2182,5.2413,5.2294,5.2402,5.2686,5.2935,5.3014,5.2946,2.3394,0.0,0.0,0.0,2.3908,0.0,0.0,0.0,2.8447,0.0,2.9898,3.0898,3.1886,3.2567,3.3202,3.3925,3.4452,3.4778,3.4778,3.4778,0.0,0.0,3.3439,3.2703,3.1455,0.0,0.0,0.0,0.0,0.0,2.9571,2.9804,3.0049,3.0308,3.0882,0.0,3.2582,3.318,3.4007,3.5064,3.6534,3.7876,3.9041,3.9087,0.0,3.8723,3.87,3.8976,3.9338,3.9338,3.884,3.8219,3.819,3.7653,3.7016,3.6988,3.6651,3.6269,3.6269,3.5545,3.4805,3.4778,0.0,0.0,0.0,0.0,3.255,0.0,0.0,0.0,0.0,0.0,0.0,0.0,0.0,0.0,0.0,0.0,0.0,0.0,0.0,2.9128,2.9341,3.0116,3.1074,3.2277,3.2889,3.4216,0.0,0.0,3.8069,3.9963,4.1082,4.2085,4.2998,4.4427,4.5276,4.5587,4.621,4.6796,4.7315,4.7895,4.846,4.9063,4.9651,5.0116,5.0405,5.0694,5.0949,5.1203,5.1458,5.1707,5.195,5.2258,5.2264,5.2157,2.5015,2.5284,2.5802,0.0,2.6699,2.687,0.0,0.0,0.0,0.0,3.1561,3.2438,3.309,3.4145,3.4886,3.5056,3.5629,0.0,0.0,0.0,0.0,3.5036,3.4782,3.423,3.3316,3.3045,0.0,3.2466,0.0,0.0,3.1987,3.1669,3.1553,3.1645,3.2378,3.2833,3.318,3.4418,3.5653,3.6936,3.8293,3.9036,0.0,0.0,4.0422,4.0317,3.9943,3.9867,3.996,3.996,3.9809,3.9628,3.9417,3.8954,3.843,3.8223,3.7799,3.7354,3.7156,3.6595,3.6065,3.5842,3.5159,3.4464,0.0,0.0,0.0,0.0,0.0,0.0,0.0,0.0,0.0,0.0,0.0,0.0,0.0,0.0,0.0,2.7108,0.0,2.8151,2.8819,2.9882,3.0862,3.174,3.2671,3.3803,3.5171,0.0,0.0,3.9075,4.0159,4.1464,4.2971,4.3819,4.469,4.5587,4.621,4.6796,4.7315,4.7453,4.8071,4.9009,4.9176,4.9695,5.0405,5.0694,5.0949,5.1174,5.0991,5.0924,5.0959,5.1703,5.1726,5.1492,2.6486,0.0,0.0,2.8679,0.0,0.0,2.9553,0.0,0.0,3.2154,3.3209,0.0,3.4742,3.566,3.6334,3.6585,3.691,0.0,3.711,0.0,0.0,3.661,3.637,3.5883,3.508,3.4575,0.0,3.3621,0.0,0.0,3.2887,3.2583,3.2629,3.3001,3.3437,3.3898,3.4386,3.5683,3.7068,3.8424,3.9202,0.0,0.0,4.0993,4.146,4.1751,4.1437,4.1141,4.0905,4.0905,4.0905,4.0875,4.072,4.0317,3.9838,3.9686,3.9117,3.8508,3.8366,3.7855,3.7226,3.6858,3.6213,3.5582,3.5151,3.4528,3.3904,0.0,0.0,0.0,0.0,0.0,0.0,0.0,0.0,0.0,0.0,0.0,0.0,0.0,2.7534,2.7894,2.8424,2.9305,3.0236,3.1175,3.2028,3.314,0.0,0.0,0.0,3.8414,3.949,4.0732,4.2199,4.3076,4.4077,4.5207,4.583,4.6523,4.7288,4.7288,4.7765,4.8614,4.8614,4.9042,4.9762,4.989,5.0194,5.0539,5.0592,5.0602,5.0692,5.1316,5.1387,5.1253,2.8062,0.0,0.0,0.0,0.0,0.0,0.0,3.225,0.0,3.3789,0.0,3.5794,3.6609,3.721,3.7739,3.8291,0.0,3.8442,3.8442,3.8442,3.8417,3.8341,3.8042,3.7494,3.6702,3.5942,0.0,0.0,0.0,0.0,3.3362,3.3315,3.3671,3.435,3.4395,3.4959,3.597,3.7106,3.8378,3.9674,3.9773,4.0561,4.1674,4.1745,4.2233,4.2886,4.2982,4.2526,4.1925,4.1925,4.1925,4.1925,4.1895,4.1559,4.1152,4.1022,4.0364,3.9682,3.9612,3.9041,3.8353,3.7864,3.7479,3.6957,3.6041,3.5577,3.512,3.4162,3.3345,0.0,0.0,0.0,0.0,0.0,0.0,0.0,0.0,0.0,0.0,0.0,0.0,0.0,2.8179,2.8716,2.9529,3.0725,3.1311,3.2469,0.0,0.0,0.0,3.7826,3.8997,0.0,4.1189,0.0,4.3569,4.4719,4.5316,4.6223,4.7288,4.7288,4.7571,4.8108,4.8108,4.8384,4.8909,4.8909,4.9227,4.979,5.0309,5.0614,5.0846,5.1082,5.1229,5.1299,3.0245,0.0,0.0,0.0,0.0,3.4065,3.504,3.489,3.4863,3.548,3.6317,3.7262,3.8341,3.8944,3.9471,4.0023,4.0474,0.0,0.0,0.0,0.0,4.0073,3.9595,3.8966,3.8139,3.7293,3.6675,0.0,0.0,0.0,0.0,0.0,3.5525,3.5665,3.5883,3.6555,3.7594,3.8931,0.0,4.0563,4.1277,4.1974,4.2604,4.2982,4.3228,4.3433,4.3883,4.3444,4.264,4.264,4.264,4.258,4.231,4.2149,4.1923,4.1205,4.0881,4.0646,4.0194,3.97,3.9273,3.9179,3.877,3.825,3.7614,3.7146,3.6674,3.604,3.51,3.4235,3.377,0.0,0.0,0.0,0.0,0.0,0.0,0.0,0.0,0.0,0.0,2.8159,0.0,2.8837,2.9673,3.0725,3.1311,0.0,0.0,0.0,0.0,0.0,3.8789,0.0,0.0,0.0,4.3569,4.4719,4.5316,4.6223,4.7288,4.7288,4.7571,4.8108,4.8108,4.8384,4.8909,4.8909,4.9355,5.0062,5.0381,5.0614,5.0846,5.1082,5.1316,5.1579,3.2025,0.0,0.0,0.0,0.0,0.0,0.0,3.7141,0.0,3.7516,3.8091,3.8793,3.9647,4.0224,4.0625,4.0901,4.1152,4.1302,4.1302,4.1302,4.1175,4.0926,4.0675,0.0,3.9756,3.9054,3.8375,3.7693,0.0,0.0,0.0,0.0,0.0,3.707,3.7747,3.8479,0.0,0.0,0.0,4.1455,4.2129,4.2717,4.3168,4.3409,4.3667,4.3955,4.422,4.3979,4.3577,4.3577,4.3577,4.3547,4.3394,4.3142,4.2825,4.2412,4.212,4.1811,4.1287,4.0838,4.0413,3.9869,3.9424,3.8953,3.8464,3.7919,3.7402,3.6935,3.6179,3.531,3.43,3.3169,0.0,0.0,0.0,0.0,0.0,0.0,0.0,0.0,0.0,0.0,0.0,0.0,0.0,0.0,0.0,0.0,0.0,0.0,0.0,0.0,0.0,0.0,0.0,0.0,0.0,4.4719,4.499,4.5869,4.7288,4.7288,4.7571,4.8108,4.8232,4.8534,4.8934,4.9178,4.9722,5.0333,5.0453,5.071,5.1035,5.1293,5.1579,5.1834,0.0,3.4206,0.0,0.0,3.6271,0.0,3.7614,3.9044,3.9798,3.917,3.9622,4.03,4.0978,4.1403,4.1754,4.198,4.2005,4.2005,4.2005,4.2005,4.1955,4.1829,4.1729,4.1522,4.118,4.0579,3.9867,0.0,0.0,0.0,0.0,0.0,0.0,0.0,0.0,0.0,0.0,0.0,4.1755,4.2356,4.2789,4.3216,4.3697,4.3758,4.4054,4.4409,4.4501,4.4501,4.4501,4.4501,4.4409,4.4285,4.4285,4.4003,4.3673,4.3523,4.3241,4.2837,4.2308,4.1886,4.1423,4.0617,4.0131,3.9717,3.9202,3.8725,3.8253,3.7665,3.7024,3.61,3.461,3.3927,0.0,0.0,0.0,0.0,0.0,0.0,0.0,0.0,0.0,0.0,2.9825,0.0,0.0,0.0,0.0,0.0,0.0,0.0,0.0,0.0,0.0,3.9862,4.0381,0.0,4.2977,0.0,4.4719,4.5596,4.7288,4.7288,4.7571,4.8134,4.8384,4.8656,4.9033,4.9547,5.0062,5.0501,5.0572,5.0828,5.1253,5.1479,5.1764,5.2025,0.0,0.0,0.0,0.0,0.0,0.0,3.9446,4.0424,4.0775,3.9747,4.0499,4.1553,4.2663,4.2813,4.3237,4.4213,4.4288,4.4288,4.4288,4.4288,4.4062,4.3589,4.3087,4.2585,4.2082,4.1259,4.0771,0.0,0.0,0.0,0.0,0.0,0.0,0.0,0.0,0.0,0.0,4.1706,4.2501,4.3361,4.3409,4.3739,4.4275,4.4552,4.47,4.4779,4.5117,4.5208,4.5208,4.5208,4.481,4.4285,4.4285,4.4292,4.4148,4.3619,4.3481,4.3337,4.2862,4.2327,4.1913,4.1846,4.1432,4.0923,4.0342,4.0198,3.9886,3.8878,3.7846,3.6713,3.5337,3.4717,3.4219,0.0,0.0,0.0,0.0,0.0,0.0,3.0313,0.0,0.0,0.0,3.084,0.0,0.0,3.1829,0.0,0.0,0.0,0.0,3.6674,0.0,3.9862,4.0381,4.1528,0.0,4.4719,4.4719,4.5596,4.7288,4.7288,4.7571,4.8134,4.8384,4.881,4.9305,4.9844,5.0231,5.0525,5.068,5.0941,5.1253,5.1479,5.1764,5.2048,0.0,0.0,0.0,0.0,0.0,0.0,0.0,4.1793,4.2484,4.2029,4.2194,4.2735,4.384,4.3966,4.4141,4.4564,4.4589,4.4589,4.4589,4.4589,4.4489,4.4292,4.4091,4.3865,4.3639,4.2975,4.241,0.0,0.0,0.0,0.0,0.0,0.0,0.0,0.0,4.1658,4.2217,4.2901,4.3421,4.3832,4.4354,4.4707,4.4902,4.5055,4.5312,4.5563,4.5368,4.5527,4.5724,4.5398,4.5117,4.4902,4.4902,4.4902,4.4822,4.442,4.4286,4.4135,4.3421,4.3048,4.276,4.2164,4.1851,4.1538,4.098,4.0619,4.0242,3.9636,3.8589,3.7598,3.7058,3.623,3.5454,0.0,0.0,0.0,0.0,0.0,0.0,0.0,0.0,3.1224,0.0,0.0,0.0,0.0,0.0,0.0,0.0,0.0,0.0,3.7371,0.0,4.0163,4.089,4.2211,4.3502,4.4719,4.5249,4.613,4.7288,4.7468,4.7903,4.8585,4.871,4.9029,4.9575,4.9941,5.0255,5.0525,5.0728,5.1058,5.1456,5.1741,5.1994,5.2223,3.8944,0.0,4.0005,0.0,4.1016,4.1648,4.2,4.3231,4.4186,4.4311,4.4139,4.4301,4.5056,4.5044,4.5062,4.5213,4.515,4.5091,4.5091,4.5091,4.5016,4.4895,4.4869,0.0,4.4589,4.4242,4.378,4.3205,4.2693,0.0,0.0,0.0,0.0,0.0,4.2307,4.2821,4.3329,4.3904,4.4238,4.4433,4.5239,4.5552,4.5576,4.5841,4.6174,4.6476,4.6168,4.6297,4.6551,4.6025,4.5852,4.5797,4.541,4.53,4.5239,4.5025,4.4963,4.4804,4.4202,4.3899,4.359,4.2718,4.2379,4.2137,4.1604,4.1193,4.0765,4.0254,3.9298,3.8473,3.8154,3.744,3.6677,3.594,0.0,0.0,0.0,0.0,0.0,0.0,3.2432,3.2519,3.271,3.2796,0.0,0.0,0.0,0.0,0.0,0.0,0.0,0.0,0.0,0.0,0.0,4.2657,4.3845,4.4719,4.5569,4.6452,4.7288,4.7647,4.8207,4.8909,4.8909,4.9178,4.9717,5.0062,5.0333,5.0525,5.0799,5.1199,5.1618,5.188,5.2132,5.2352,4.126,4.1773,4.2157,4.2183,4.3106,4.385,4.385,4.4825,4.5745,4.6308,4.6356,4.6356,4.6382,4.6064,4.6117,4.673,4.6481,4.6301,4.6301,4.6301,4.605,0.0,0.0,4.5221,4.4614,4.4589,4.4589,4.4564,0.0,0.0,4.4153,0.0,4.3664,4.3688,4.3688,4.3984,4.447,4.45,4.4814,4.5325,4.5871,4.6068,4.6204,4.7115,4.7495,4.7527,4.7783,4.7851,4.7801,4.7274,4.7099,4.6876,4.5686,4.53,4.53,4.53,4.53,4.53,4.53,4.4913,4.4347,4.3802,4.3286,4.2745,4.2205,4.2057,4.1791,4.0709,4.0045,3.9359,3.8301,3.8104,3.7711,3.6555,0.0,0.0,0.0,0.0,0.0,0.0,3.4386,3.4454,3.4655,3.4903,0.0,0.0,0.0,0.0,0.0,0.0,0.0,3.8634,3.9546,0.0,4.1189,4.2657,4.3845,4.4719,4.5569,4.6452,4.7313,4.7854,4.8384,4.8909,4.8909,4.9178,4.9742,5.0255,5.0501,5.0548,5.1017,5.1369,5.1618,5.188,5.2132,5.2374,4.1901,4.2723,4.3337,4.3337,4.4286,4.5055,4.5055,4.5871,4.6711,4.7276,4.7866,4.8373,4.8737,4.7949,4.7619,0.0,4.7983,4.78,0.0,4.7529,4.7154,4.6597,4.6572,4.6321,4.5769,4.5397,4.5221,4.5221,0.0,0.0,0.0,4.409,4.4116,4.4254,4.4254,4.4519,4.5085,4.5698,4.6006,4.6229,4.7029,4.7321,4.7346,4.7671,4.8033,4.8334,4.8027,4.8159,4.841,4.7857,4.74,4.7043,4.6653,4.6268,4.5939,4.5696,4.5635,4.5574,4.5361,4.5177,4.4913,4.4372,4.3831,4.3286,4.2774,4.2203,4.1728,4.1406,4.0751,4.0162,3.9788,3.9139,3.8541,3.8141,0.0,0.0,0.0,0.0,0.0,0.0,3.459,3.4703,0.0,3.5066,0.0,0.0,0.0,0.0,0.0,0.0,0.0,0.0,4.0389,0.0,4.2684,4.3764,4.4643,4.5316,4.6377,4.7225,4.788,4.8207,4.8585,4.8909,4.9083,4.9477,5.0014,5.0357,5.0567,5.0751,5.1269,5.1649,5.1903,5.2101,5.2359,5.2631,4.3714,4.4387,4.4878,4.4878,4.5626,4.6295,4.653,4.7221,4.7938,4.8536,4.9076,4.961,5.0159,4.959,0.0,4.9137,4.8856,4.864,4.8517,4.8244,4.7906,4.74,4.74,4.7224,4.6928,0.0,0.0,4.6401,4.5819,4.5354,4.4976,4.5201,4.5385,4.5473,4.5702,4.5944,4.6316,4.6879,4.7091,4.7171,4.7914,4.8234,4.8259,4.846,4.8761,4.9069,4.8661,4.8761,4.9019,4.841,4.7883,4.735,4.7174,4.6722,4.624,4.6029,4.5999,4.5939,4.5726,4.5666,4.5572,4.5002,4.4457,4.3833,4.3119,4.2541,4.2133,4.1908,4.1497,4.1003,4.0575,3.9948,3.9371,3.8969,3.8291,3.7637,3.7085,0.0,0.0,0.0,0.0,0.0,0.0,3.6151,0.0,0.0,0.0,0.0,0.0,0.0,0.0,4.0271,4.1215,0.0,4.3397,4.4484,4.5285,4.5767,4.6909,4.7673,4.8108,4.8384,4.8631,4.8909,4.9182,4.96,5.011,5.0405,5.0614,5.084,5.1386,5.1764,5.2025,5.2215,5.251,5.2877,4.6292,4.6527,0.0,0.0,4.7074,0.0,4.8224,4.8773,4.9348,4.9871,4.9949,5.0185,5.0786,5.0838,5.048,4.9633,0.0,0.0,0.0,4.8644,4.8407,4.8045,4.7958,4.7958,4.7908,4.7908,4.7908,4.7908,4.74,4.6898,4.6426,4.6923,4.7149,4.7174,4.7682,4.7908,4.7908,4.7958,4.7958,4.8008,4.8586,4.8868,4.8919,4.9389,4.959,4.959,4.959,4.959,4.9515,4.9044,4.841,4.7832,4.7299,4.6747,4.6301,4.6301,4.6301,4.6301,4.6301,4.6301,4.6175,4.5673,4.507,4.4313,4.3237,4.3014,4.2864,4.2336,4.2238,4.1886,4.0803,4.0577,4.0226,3.9171,3.8969,3.8743,3.819,0.0,0.0,0.0,0.0,0.0,0.0,3.7983,3.8459,0.0,0.0,0.0,0.0,0.0,3.9791,4.0852,4.1972,4.2883,4.3556,4.4915,4.5768,4.6077,4.7193,4.7854,4.8108,4.8409,4.8656,4.8934,4.9207,4.9624,5.0135,5.0405,5.0638,5.0893,5.1409,5.1787,5.2048,5.2238,5.2676,5.3153,0.0,0.0,4.7283,4.7702,4.8277,4.8852,4.9401,4.961,4.9897,5.0498,5.0577,5.0786,5.1335,5.1413,5.1304,5.1111,5.08,5.0575,5.0512,5.0008,4.9514,4.8995,4.8718,4.836,4.7908,4.7908,4.7908,4.7908,4.7782,4.7657,4.7531,4.7657,4.7732,4.7732,4.7857,4.7908,4.7933,4.8385,4.8592,4.8642,4.9163,4.9389,4.9414,4.954,4.959,4.959,4.959,4.959,4.9565,4.9439,4.8736,4.7883,4.7757,4.7079,4.6301,4.6301,4.6301,4.6301,4.6301,4.6301,4.6276,4.615,4.5372,4.4313,4.3237,4.3014,4.2964,4.2838,4.2652,4.2283,4.1548,4.1278,4.0951,4.0236,3.9777,3.947,3.9317,3.8782,0.0,0.0,3.8394,3.8414,3.868,3.8905,3.9103,0.0,0.0,0.0,0.0,4.1075,4.1513,4.1779,4.2686,4.3793,4.5076,4.5425,4.6062,4.6991,4.7464,4.7854,4.8134,4.8585,4.8859,4.8934,4.9404,4.9917,5.0405,5.0477,5.0733,5.1152,5.1695,5.1956,5.2071,5.245,5.281,5.3153,4.76,4.7911,4.8303,4.8878,4.9244,4.9636,5.0211,5.0315,5.0498,5.1073,5.1152,5.1282,5.157,5.1596,5.1596,5.1596,5.1408,5.1277,5.112,5.0741,5.0359,4.9926,4.9711,4.9463,4.9134,4.9002,4.8718,4.8309,4.8309,4.8159,4.7908,4.8184,4.8309,4.8309,4.856,4.8686,4.8711,4.9012,4.9195,4.9163,4.9464,4.959,4.959,4.959,4.959,4.959,4.959,4.959,4.959,4.959,4.8837,4.7908,4.7908,4.7271,4.6536,4.6536,4.6421,4.6301,4.6301,4.6301,4.6281,4.6149,4.5477,4.4623,4.3934,4.3581,4.3404,4.3404,4.3314,4.3014,4.2428,4.2204,4.1876,4.1029,4.067,4.0388,4.0106,3.9568,0.0,3.9356,3.9124,3.9091,3.9358,3.959,3.9795,3.9941,0.0,0.0,4.1593,4.2422,4.2833,4.269,4.3823,4.4809,4.5587,4.6117,4.6701,4.7288,4.7726,4.7981,4.8134,4.866,4.8909,4.8934,4.9473,5.0014,5.0501,5.0501,5.0757,5.1253,5.1795,5.2002,5.2071,5.2549,5.2922,5.3255,4.8907,4.9169,4.9374,4.9923,5.0028,5.0237,5.0812,5.0917,5.1073,5.1544,5.1596,5.1596,5.1596,5.1596,5.1596,5.1596,5.1596,5.1471,5.1183,5.112,5.0962,5.0683,5.062,5.0588,5.0588,5.0327,4.9812,4.9077,4.9077,4.8794,4.8315,4.8819,4.9077,4.9103,4.9549,4.9751,4.9751,4.9751,4.9751,4.9751,4.9751,4.9751,4.9751,4.9751,4.9751,4.9751,4.9751,4.9751,4.9751,4.9751,4.9046,4.8164,4.8088,4.7567,4.6967,4.6866,4.6661,4.6451,4.6451,4.6451,4.6385,4.6041,4.557,4.5097,4.4766,4.4284,4.3899,4.3899,4.3927,4.3775,4.3185,4.3109,4.2803,4.1801,4.1569,4.1338,4.0824,0.0,3.9998,4.0171,3.9806,3.9618,3.9836,4.0357,4.0671,4.0671,4.174,4.2521,0.0,4.3561,4.3948,4.3743,4.4942,4.5641,4.5723,4.6782,4.7343,4.7426,4.7882,4.8137,4.8246,4.8717,4.8909,4.8934,4.9473,5.0014,5.0501,5.0501,5.0781,5.1323,5.1818,5.2025,5.2086,5.2563,5.3033,5.3399,4.912,4.9453,4.9949,5.0551,5.0655,5.0838,5.1387,5.1465,5.1492,5.1596,5.1596,5.1596,5.1596,5.1596,5.1596,5.1596,5.1596,5.1565,5.1534,5.1277,5.1088,5.1025,5.0747,5.0588,5.0588,5.0525,5.0467,5.0302,5.0302,5.025,5.0174,5.0276,5.0302,5.0302,5.0404,5.0429,5.0429,5.0429,5.0429,5.0429,5.0429,5.0429,5.0429,5.0429,5.0429,5.0429,5.0429,5.0429,5.0429,5.0429,5.0052,4.9413,4.8922,4.8365,4.7812,4.73,4.7087,4.7057,4.7057,4.7057,4.6929,4.6451,4.5918,4.5383,4.4822,4.4284,4.3899,4.3899,4.4092,4.405,4.3456,4.3566,4.3544,4.2866,4.2371,4.2032,4.1954,0.0,4.1042,4.1092,4.1014,4.0987,4.1038,4.1559,4.1924,4.1924,4.2783,4.3384,4.3614,4.4482,4.5061,4.5264,4.5505,4.5857,4.6373,4.7002,4.7564,4.8061,4.8078,4.8361,4.8839,4.8887,4.8909,4.8934,4.9473,5.0014,5.0501,5.0501,5.0899,5.1579,5.1887,5.2109,5.2306,5.2833,5.3188,5.3421,5.0522,5.0756,5.1099,5.1681,5.1786,5.1866,5.2099,5.2125,5.2063,5.1877,5.2166,5.2287,5.2098,5.238,5.2563,5.2563,5.2563,5.2433,5.2093,5.1622,5.1346,5.1346,5.122,5.1031,5.0867,5.0867,5.0804,5.0588,5.0588,5.0588,5.0588,5.0588,5.0588,5.0588,5.0588,5.0588,5.0588,5.0588,5.0588,5.0588,5.0588,5.0588,5.0588,5.0588,5.0588,5.0588,5.0588,5.0588,5.0588,5.0588,5.0261,4.9697,4.9102,4.866,4.8245,4.7652,4.7324,4.7205,4.7205,4.7205,4.7184,4.7103,4.6466,4.5801,4.5713,4.4962,4.434,4.434,4.4449,4.4427,4.4167,4.4222,4.4147,4.3572,4.3284,0.0,0.0,4.2396,4.2213,4.2213,4.2213,4.2213,4.2213,4.2474,4.2631,4.2631,4.344,4.4017,4.4251,4.515,4.5787,4.6101,4.6074,4.6425,4.7208,4.7602,4.8167,4.8881,4.9048,4.9167,4.9211,4.9336,4.9298,4.9157,4.9698,5.0135,5.0501,5.0614,5.1011,5.1618,5.188,5.2132,5.2374,5.29,5.3233,5.3421,5.1713,5.1899,5.2139,5.2535,5.2588,5.2588,5.2588,5.2588,5.2549,5.243,5.2827,5.3044,5.2853,5.3241,5.3497,5.34,5.34,5.3191,5.2746,5.2276,5.1884,5.1596,5.1596,5.1471,5.1214,5.1214,5.1063,5.0842,5.0842,5.0842,5.0842,5.0842,5.0842,5.0842,5.0842,5.0842,5.0842,5.0842,5.0842,5.0842,5.0842,5.0842,5.0842,5.0842,5.0842,5.0842,5.0842,5.0842,5.0842,5.0842,5.0558,5.0069,4.9343,4.9036,4.8755,4.8028,4.7619,4.7442,4.7442,4.7442,4.7501,4.7762,4.7068,4.6347,4.6471,4.5689,4.4878,4.4721,4.4695,4.4695,4.4695,4.4695,4.4564,4.4147,0.0,0.0,0.0,4.3075,4.2997,4.2997,4.2997,4.2997,4.2997,4.3127,4.3232,4.3232,4.4046,4.4705,4.4889,4.5686,4.6299,4.6699,4.6699,4.7048,4.7803,4.8205,4.8857,4.9706,4.9911,4.9921,4.9841,4.9813,4.9692,4.956,4.9926,5.0231,5.0525,5.0704,5.1152,5.1718,5.1903,5.2155,5.2442,5.2989,5.3277,5.3443,5.1853,5.2189,5.2562,5.2588,5.2588,5.2588,5.2588,5.2588,5.2801,5.3356,5.3463,5.3577,5.3757,5.383,5.3728,5.3432,5.34,5.3373,5.3347,5.3295,5.2772,5.1648,5.1596,5.1596,5.1565,5.1565,5.1534,5.1534,5.1534,5.1534,5.1534,5.1534,5.1534,5.1534,5.1534,5.1534,5.1534,5.1534,5.1534,5.1534,5.1534,5.1534,5.1534,5.1534,5.1534,5.1534,5.1534,5.1534,5.1534,5.1534,5.1507,5.1273,5.0176,4.9841,4.958,4.8482,4.8143,4.8114,4.8114,4.8114,4.8114,4.8143,4.7699,4.7069,4.6604,4.6003,4.5374,4.4825,4.4695,4.4695,4.4695,4.4695,4.4695,4.4643,0.0,0.0,4.3834,4.3363,4.2997,4.2997,4.2997,4.2997,4.2997,4.3493,4.3834,4.3834,4.4891,4.5502,4.5529,4.6112,4.6727,4.7323,4.735,4.7484,4.7803,4.8618,4.9521,5.0428,5.0135,5.0426,5.1116,5.0212,4.9975,5.0216,5.013,5.0231,5.0525,5.0704,5.1246,5.1979,5.2002,5.2269,5.2721,5.3179,5.3377,5.3487,5.2934,5.3066,5.3227,5.3227,5.3227,5.3335,5.3712,5.3766,5.392,5.432,5.469,5.4885,5.4777,5.5058,5.514,5.4807,5.4774,5.4518,5.3922,5.3896,5.3373,5.2197,5.1805,5.1596,5.1596,5.1596,5.1596,5.1596,5.1596,5.1596,5.1596,5.1596,5.1596,5.1596,5.1596,5.1596,5.1596,5.1596,5.1596,5.1596,5.1596,5.1596,5.1596,5.1596,5.1596,5.1596,5.1596,5.1596,5.1596,5.1596,5.1596,5.1387,5.0263,4.9897,4.9722,4.8802,4.8518,4.8548,4.8721,4.8489,4.8201,4.8201,4.7754,4.7255,4.702,4.6262,4.5531,4.5296,4.4956,4.4695,4.4695,4.4695,4.4695,4.4695,0.0,4.4408,4.4408,4.4198,4.4042,4.4042,4.4042,4.4042,4.4042,4.4251,4.4489,4.4677,4.5262,4.5849,4.6384,4.7136,4.7676,4.7893,4.8436,4.8872,4.9142,4.9499,5.0212,5.1287,5.1198,5.1269,5.1524,5.0746,5.0453,5.0527,5.0403,5.0405,5.0525,5.0899,5.1439,5.2002,5.2002,5.2299,5.2743,5.3223,5.3399,5.3487,5.3592,5.3592,5.3592,5.3592,5.3754,5.3999,5.4464,5.465,5.4941,5.5316,5.5685,5.5907,5.5778,5.6055,5.6132,5.5802,5.567,5.5347,5.4662,5.438,5.3687,5.2537,5.2093,5.1779,5.1596,5.1596,5.1596,5.1596,5.1596,5.1596,5.1596,5.1596,5.1596,5.1596,5.1596,5.1596,5.1596,5.1596,5.1596,5.1596,5.1596,5.1596,5.1596,5.1721,5.1752,5.1752,5.1877,5.1908,5.1908,5.1908,5.1908,5.1698,5.0597,4.9936,4.9518,4.8988,4.8808,4.8866,4.9039,4.8808,4.8489,4.8489,4.8174,4.7803,4.7674,4.7017,4.6333,4.5965,4.5489,4.5093,4.4883,4.4776,4.4695,4.4695,4.4695,4.4695,4.4695,4.4695,4.4695,4.4695,4.4695,4.4695,4.4695,4.4878,4.5118,4.5444,4.59,4.649,4.7271,4.8056,4.849,4.849,4.9391,5.0023,5.0298,5.0381,5.0903,5.1787,5.1787,5.1888,5.1997,5.1169,5.0874,5.0942,5.0637,5.0501,5.0548,5.1017,5.1509,5.2002,5.2002,5.2345,5.2855,5.3246,5.3443,5.3627,5.3592,5.3592,5.3592,5.3592,5.408,5.4518,5.4518,5.503,5.5627,5.6224,5.6305,5.6394,5.6666,5.6714,5.6524,5.6132,5.5802,5.5604,5.5604,5.4721,5.3687,5.2563,5.2511,5.2223,5.1596,5.1596,5.1596,5.1596,5.1596,5.1596,5.1596,5.1596,5.1596,5.1596,5.1596,5.1596,5.1596,5.1596,5.1596,5.1596,5.1596,5.1596,5.1627,5.1996,5.209,5.2152,5.2465,5.2588,5.2588,5.2588,5.2588,5.2402,5.126,5.0057,4.9096,4.9096,4.9096,4.9096,4.9125,4.9125,4.9125,4.9096,4.9096,4.8965,4.8434,4.8302,4.7982,4.6755,4.6297,4.5921,4.5339,4.4937,4.4695,4.4695,4.4695,4.4695,4.4695,4.4695,4.4695,4.4721,4.4721,4.4721,4.4721,4.5269,4.5747,4.6078,4.6909,4.767,4.8164,4.8788,4.9114,4.9114,5.0019,5.0627,5.0906,5.1238,5.1541,5.1787,5.1787,5.2113,5.265,5.1395,5.1078,5.1556,5.0818,5.0501,5.0548,5.1017,5.1509,5.2002,5.2002,5.2458,5.3131,5.3343,5.3562,5.3898,5.3592,5.3592,5.3592,5.3592,5.408,5.4623,5.5084,5.5654,5.6251,5.6848,5.6929,5.6951,5.7044,5.7044,5.6915,5.6524,5.6426,5.623,5.5967,5.5709,5.5008,5.3874,5.2975,5.2223,5.1596,5.1596,5.1596,5.1596,5.1841,5.1965,5.1965,5.2187,5.2311,5.2311,5.2311,5.2311,5.2311,5.2311,5.2311,5.2311,5.2311,5.2311,5.2311,5.2404,5.2461,5.2434,5.2558,5.2588,5.2588,5.2588,5.2588,5.2402,5.126,5.0057,4.9154,4.9383,4.9469,4.9471,4.967,4.9727,4.9613,4.9211,4.9096,4.9043,4.8912,4.8567,4.8196,4.7849,4.7366,4.6776,4.5974,4.576,4.5492,4.48,4.4695,4.4695,4.4695,4.4695,4.4852,4.5296,4.5322,4.5478,4.5924,4.6107,4.6435,4.6989,4.7993,4.8677,4.8815,4.9385,4.971,4.971,5.0406,5.0823,5.0906,5.1238,5.1541,5.1787,5.1977,5.2275,5.265,5.1575,5.1283,5.1556,5.0818,5.0501,5.0548,5.1017,5.1509,5.2002,5.2002,5.2458,5.3131,5.3343,5.3562,5.3898,5.3592,5.3592,5.3673,5.389,5.446,5.5057,5.5681,5.6278,5.6794,5.7146,5.7206,5.7206,5.7206,5.7206,5.7109,5.6942,5.6779,5.6524,5.6132,5.6099,5.5599,5.4427,5.3647,5.2844,5.2027,5.2001,5.2001,5.2001,5.2187,5.2306,5.2306,5.2496,5.2588,5.2588,5.2588,5.2588,5.2588,5.2588,5.2588,5.2588,5.2588,5.2588,5.2588,5.2769,5.2799,5.283,5.2953,5.3014,5.3014,5.3014,5.2661,5.2152,5.1484,5.0437,4.9499,4.9698,4.9755,4.9783,4.9953,5.001,4.9897,4.9528,4.9469,4.9469,4.9469,4.9202,4.8908,4.8665,4.8233,4.7692,4.6913,4.6587,4.6234,4.5672,4.5483,4.5428,4.5428,4.5428,4.5558,4.5924,4.5976,4.6107,4.6475,4.6682,4.7173,4.8003,4.8914,4.9466,4.9466,4.9792,5.0066,5.0206,5.0656,5.0962,5.11,5.1404,5.1651,5.1787,5.2059,5.2385,5.265,5.1678,5.1359,5.1556,5.0818,5.0501,5.0548,5.1017,5.1509,5.2002,5.2002,5.2495,5.3233,5.3355,5.3661,5.4103,5.3682,5.3737,5.3927,5.4471,5.5119,5.5713,5.6256,5.6826,5.7206,5.7206,5.7206,5.7206,5.7206,5.7206,5.7206,5.7206,5.6942,5.659,5.623,5.6197,5.5696,5.4522,5.4469,5.3908,5.2707,5.2619,5.2588,5.2588,5.2619,5.2619,5.265,5.2681,5.2681,5.2681,5.2681,5.2681,5.2681,5.2681,5.2681,5.2681,5.2681,5.2681,5.2711,5.3014,5.3163,5.3193,5.347,5.3592,5.3592,5.3592,5.2805,5.1799,5.1799,5.0958,5.001,5.001,5.001,5.001,5.001,5.001,5.001,5.001,5.001,5.001,5.001,5.001,4.9819,4.9276,4.9,4.8616,4.7996,4.7419,4.7002,4.6922,4.667,4.6501,4.6501,4.6501,4.6527,4.658,4.658,4.6606,4.6658,4.7129,4.794,4.9043,4.967,5.001,5.001,5.001,5.015,5.0487,5.0739,5.1045,5.1404,5.1678,5.1787,5.1787,5.2086,5.2411,5.265,5.1678,5.1385,5.1606,5.0842,5.0525,5.0572,5.1041,5.1533,5.2002,5.2025,5.2586,5.3399,5.3399,5.3835,5.4454,5.4371,5.4756,5.5114,5.5251,5.5943,5.6522,5.6658,5.6986,5.7206,5.7206,5.7206,5.7206,5.7206,5.7206,5.7206,5.7206,5.7109,5.7044,5.6979,5.6947,5.6434,5.5244,5.519,5.4623,5.3406,5.2891,5.2588,5.2588,5.2861,5.2983,5.2983,5.3258,5.3379,5.3379,5.3379,5.3379,5.3379,5.3379,5.3379,5.3379,5.3379,5.3379,5.3379,5.347,5.347,5.3501,5.3561,5.3592,5.3592,5.3592,5.2805,5.1799,5.1799,5.0958,5.001,5.001,5.001,5.001,5.001,5.001,5.001,5.001,5.001,5.001,5.001,5.001,4.9983,4.9819,4.9764,4.9462,4.8671,4.8228,4.7759,4.7002,4.667,4.6501,4.6501,4.6501,4.6684,4.7072,4.7124,4.7336,4.7809,4.8371,4.8935,4.9442,4.9812,5.001,5.001,5.001,5.015,5.0487,5.0739,5.1045,5.1404,5.1678,5.1787,5.1814,5.2358,5.2627,5.265,5.186,5.1664,5.1854,5.0915,5.0591,5.0775,5.1293,5.1718,5.2025,5.2177,5.2712,5.3399,5.3399,5.3835,5.4497,5.4607,5.5077,5.5604,5.5878,5.6524,5.7146,5.7421,5.7464,5.7431,5.7431,5.7303,5.7206,5.7206,5.7206,5.7206,5.7206,5.7206,5.7206,5.7206,5.7206,5.6658,5.5464,5.5378,5.484,5.3619,5.3258,5.3075,5.3075,5.3258,5.3319,5.3319,5.3501,5.3592,5.3592,5.3592,5.3592,5.3592,5.3592,5.3592,5.3592,5.3592,5.3592,5.3622,5.3773,5.3833,5.3863,5.4041,5.4071,5.4071,5.4071,5.3472,5.265,5.232,5.1609,5.0788,5.0514,5.0432,5.0432,5.0432,5.0432,5.0432,5.0432,5.032,5.0206,5.0038,5.001,5.001,5.001,5.001,4.9872,4.9406,4.8984,4.8509,4.802,4.7569,4.7312,4.7312,4.7312,4.7414,4.7702,4.7728,4.7916,4.8405,4.8837,4.924,4.9556,4.984,5.001,5.001,5.015,5.0375,5.0683,5.0989,5.1294,5.1596,5.1732,5.1868,5.2004,5.2492,5.2589,5.2406,5.1844,5.1566,5.1491,5.0792,5.0614,5.0816,5.1386,5.1764,5.2048,5.2359,5.2846,5.3421,5.364,5.4221,5.4957,5.4897,5.5395,5.6035,5.6642,5.719,5.7712,5.821,5.8007,5.7752,5.772,5.7463,5.7238,5.7206,5.7206,5.7206,5.7206,5.7206,5.7206,5.7206,5.7206,5.6658,5.5464,5.5378,5.484,5.3619,5.3592,5.3592,5.3592,5.3592,5.3592,5.3592,5.3592,5.3622,5.3682,5.3682,5.3713,5.3743,5.3743,5.3743,5.3743,5.3743,5.3743,5.3773,5.4074,5.4194,5.4224,5.449,5.4607,5.4607,5.4607,5.4195,5.3616,5.3062,5.237,5.1707,5.121,5.0989,5.0906,5.0906,5.0906,5.0906,5.0906,5.0711,5.043,5.015,5.0038,5.001,5.001,5.001,5.001,5.001,4.9528,4.9183,4.9125,4.8663,4.8286,4.8201,4.8201,4.8201,4.8201,4.8257,4.8402,4.8721,4.901,4.9326,4.9641,4.9868,5.001,5.0066,5.0347,5.0655,5.0989,5.1266,5.1514,5.1787,5.1841,5.2004,5.2275,5.2627,5.2523,5.2073,5.1751,5.1416,5.1042,5.0669,5.0638,5.0917,5.1433,5.1787,5.2071,5.2594,5.3033,5.3465,5.4017,5.4707,5.547,5.605,5.6697,5.7314,5.7958,5.8299,5.8557,5.8641,5.8357,5.8039,5.7752,5.7656,5.7528,5.7206,5.7206,5.7206,5.7206,5.7206,5.7206,5.7206,5.7206,5.6658,5.5464,5.5378,5.484,5.3619,5.3592,5.3592,5.3592,5.3592,5.3592,5.3592,5.3592,5.3743,5.4044,5.4044,5.4191,5.446,5.446,5.446,5.446,5.446,5.446,5.4488,5.4518,5.452,5.4548,5.4578,5.4607,5.4607,5.4607,5.4195,5.3699,5.3616,5.2758,5.179,5.1707,5.132,5.0906,5.0906,5.0906,5.0906,5.0906,5.0711,5.0487,5.0431,5.0206,5.001,5.001,5.001,5.001,5.001,4.9727,4.944,4.9154,4.8837,4.8518,4.8257,4.8201,4.8201,4.8201,4.846,4.8721,4.901,4.9354,4.9641,4.9925,4.9982,5.015,5.043,5.0487,5.0766,5.1294,5.1377,5.1514,5.1787,5.2032,5.2302,5.2653,5.2894,5.2709,5.2073,5.1751,5.1516,5.1312,5.0742,5.0733,5.1206,5.1718,5.1979,5.2071,5.2774,5.3188,5.3509,5.438,5.4989,5.547,5.6337,5.721,5.7997,5.825,5.8687,5.8986,5.8986,5.8672,5.842,5.8293,5.8103,5.7848,5.7528,5.7303,5.7206,5.7206,5.7206,5.7206,5.7206,5.7206,5.6754,5.5714,5.5691,5.518,5.4189,5.4161,5.4161,5.4161,5.3954,5.3984,5.4161,5.4161,5.4251,5.4371,5.4371,5.446,5.4607,5.4607,5.4607,5.4607,5.4607,5.4607,5.4637,5.4758,5.4817,5.4847,5.5054,5.5113,5.5113,5.5113,5.4918,5.4668,5.4305,5.3831,5.3216,5.2519,5.2129,5.1822,5.1487,5.1403,5.1403,5.1403,5.1211,5.0934,5.0767,5.0487,5.0234,5.0038,5.001,5.001,5.001,4.9783,4.9471,4.9154,4.8866,4.8577,4.8257,4.8201,4.8201,4.8201,4.8489,4.8808,4.9068,4.9412,4.9698,4.9982,5.001,5.015,5.0459,5.0655,5.0934,5.1404,5.1541,5.1706,5.1787,5.2059,5.2385,5.2707,5.2574,5.2295,5.1815,5.1682,5.1337,5.0884,5.0618,5.0787,5.1253,5.1764,5.2002,5.2094,5.2944,5.3649,5.4253,5.476,5.5319,5.5866]}]]